     2.10           OBSERVATION DATA    G (GPS)             RINEX VERSION / TYPE
teqc 2000Feb29 20020809 18:34:54UTC                         PGM / RUN BY / DATE
HP-UX 10.20|PA-RISC|cc A.10.32.03|=+|=|                     COMMENT
BIT 2 OF LLI FLAGS DATA COLLECTED UNDER A/S CONDITION       COMMENT
-Unknown-                                                   MARKER NAME
????                                                        MARKER NUMBER
-Unknown- -Unknown-                                         OBSERVER / AGENCY
-Unknown- -Unknown- -Unknown-                               REC # / TYPE / VERS
-Unknown- -Unknown-                                         ANT # / TYPE
   946795.3778 -5284915.8967  3431356.1310                  APPROX POSITION XYZ
        0.0000        0.0000        0.0000                  ANTENNA: DELTA H/E/N
     1     1                                                WAVELENGTH FACT L1/2
     7    L1    L2    C1    P2    P1    S1    S2            # / TYPES OF OBSERV
    30.0000                                                 INTERVAL
Forced Modulo Decimation to 30 seconds                      COMMENT
SNR is mapped to RINEX snr flag value [1-9]                 COMMENT
L1: 1 -> 1; 90 -> 5; 210 -> 9                               COMMENT
L2: 1 -> 1; 150 -> 5; 250 -> 9                              COMMENT
  2002     8     5     0     3    0.0000000     GPS         TIME OF FIRST OBS
                                                            END OF HEADER
 02  8  5  0  3  0.0000000  0  7G 3G25G20G 2G22G 1G13
  -6643839.17648  -5018247.72046  22469292.6904   22469297.5464   22469292.8384
       170.0004        170.0004
  11902525.32448   9950952.07246  22659904.5974   22659912.2524   22659904.8544
       170.0004        170.0004
    -79373.03848    296760.00746  22796682.5954   22796688.2844   22796680.9914
       177.0004        177.0004
  -8012782.32549  -6078185.78147  21049714.0514   21049716.9774   21049713.5044
       196.0004        196.0004
 -12302907.95149  -9376684.97647  19969479.7524   19969483.9164   19969477.4244
       201.0004        200.0004
 -10821069.96748  -8047823.19947  21512338.1754   21512343.3984   21512338.1024
       193.0004        192.0004
  -4682479.61047  -3484827.43745  23891664.5074   23891671.2154   23891664.0994
       149.0004        149.0004
 02  8  5  0  3 30.0000000  0  7G 3G25G20G 2G22G 1G13
  -6695657.09148  -5058625.18946  22459430.7664   22459437.0604   22459430.7114
       166.0004        166.0004
  11987203.16748  10016934.79246  22676013.6714   22676025.9954   22676014.2704
       174.0004        174.0004
     21647.82648    375477.53646  22815903.8864   22815912.0624   22815903.9064
       178.0004        178.0004
  -7974582.72648  -6048419.87546  21056977.1914   21056986.2324   21056976.0544
       183.0004        185.0004
 -12237738.28649  -9325903.31347  19981879.1634   19981885.0404   19981879.2904
       196.0004        199.0004
 -10850747.09448  -8070948.16947  21506691.7784   21506695.2714   21506691.3134
       192.0004        192.0004
  -4744504.73047  -3533158.61745  23879862.9984   23879867.5084   23879863.2354
       149.0004        149.0004
 02  8  5  0  4  0.0000000  0  7G 3G25G20G 2G22G 1G13
  -6747132.10947  -5098735.57945  22449633.0664   22449642.6984   22449632.6704
       151.0004        154.0004
  12072095.92648  10083085.00046  22692168.2854   22692181.2084   22692169.1254
       173.0004        173.0004
    123106.30848    454536.08246  22835209.4774   22835220.2284   22835210.6734
       179.0004        178.0004
  -7935970.77749  -6018332.61947  21064331.5494   21064333.6844   21064330.8104
       197.0004        198.0004
 -12172018.55649  -9274693.21847  19994386.8704   19994391.3424   19994385.1814
       203.0004        203.0004
 -10880006.92948  -8093747.96147  21501121.3344   21501127.7854   21501121.4454
       189.0004        189.0004
  -4806322.50547  -3581328.21245  23868098.9814   23868104.3114   23868098.7924
       148.0004        147.0004
 02  8  5  0  4 30.0000000  0  7G 3G25G20G 2G22G 1G13
  -6798313.72848  -5138617.41246  22439898.7504   22439902.5194   22439896.8084
       167.0004        167.0004
  12157151.63448  10149362.15146  22708357.0434   22708365.9544   22708359.3954
       168.0004        168.0004
    224947.13148    533892.53446  22854590.5504   22854599.6334   22854591.1854
       181.0004        181.0004
  -7896999.94948  -5987965.71446  21071740.2374   21071749.4094   21071739.3494
       182.0004        186.0004
 -12105803.25448  -9223096.80547  20006985.6874   20006991.8194   20006985.5414
       194.0004        197.0004
 -10908899.57448  -8116261.67746  21495620.2364   21495629.5674   21495620.3804
       186.0004        187.0004
  -4867982.83247  -3629375.13045  23856365.1234   23856369.4024   23856364.6244
       148.0004        148.0004
 02  8  5  0  5  0.0000000  0  7G 3G25G20G 2G22G 1G13
  -6849269.10248  -5178322.76446  22430199.5084   22430205.2114   22430199.6054
       170.0004        170.0004
  12242300.72247  10215712.04246  22724571.9204   22724568.8274   22724568.3154
       163.0004        164.0004
    327097.23448    613490.00046  22874031.0944   22874037.6524   22874030.8474
       180.0004        180.0004
  -7857741.72549  -5957374.91347  21079217.3264   21079219.9544   21079216.5694
       197.0004        197.0004
 -12039164.22149  -9171170.32247  20019667.5274   20019672.4714   20019666.4144
       205.0004        205.0004
 -10937492.64648  -8138541.95546  21490180.2824   21490188.7684   21490179.8674
       186.0004        186.0004
  -4929553.56747  -3677352.22145  23844645.9654   23844652.3794   23844647.1824
       145.0004        145.0004
 02  8  5  0  5 30.0000000  0  7G 3G25G20G 2G22G 1G13
  -6899942.06847  -5217808.06845  22420555.2254   22420562.2014   22420555.7394
       161.0004        162.0004
  12327596.31848  10282176.08846  22740800.4354   22740800.7994   22740798.2614
       165.0004        165.0004
    429606.68048    693367.45446  22893540.7794   22893545.0254   22893538.9094
       182.0004        182.0004
  -7818143.99648  -5926519.46746  21086746.6014   21086755.3024   21086746.2764
       184.0004        187.0004
 -11972050.47448  -9118873.85347  20032438.9494   20032443.7014   20032438.3874
       191.0004        195.0004
 -10965730.63248  -8160545.52346  21484804.3344   21484814.3004   21484804.1784
       183.0004        183.0004
  -4990979.37447  -3725216.40845  23832959.1144   23832965.2664   23832958.8474
       149.0004        149.0004
 02  8  5  0  6  0.0000000  0  7G 3G25G20G 2G22G 1G13
  -6950431.23447  -5257150.30845  22410949.2854   22410957.4394   22410947.8284
       156.0004        156.0004
  12412937.41448  10348675.60146  22757031.9344   22757039.7394   22757032.2624
       167.0004        167.0004
    532370.89548    773443.42346  22913097.1594   22913100.0324   22913095.3004
       181.0004        180.0004
  -7778309.72449  -5895479.83847  21094332.8064   21094335.4934   21094331.9144
       196.0004        196.0004
 -11904565.53349  -9066288.20547  20045280.9114   20045285.3394   20045279.9664
       205.0004        205.0004
 -10993712.63748  -8182349.64346  21479480.7274   21479489.6074   21479479.8874
       183.0004        183.0004
  -5052359.37747  -3773044.89745  23821278.1954   23821284.8324   23821277.6724
       149.0004        150.0004
 02  8  5  0  6 30.0000000  0  7G 3G25G20G 2G22G 1G13
  -7000641.98648  -5296275.52146  22401395.0824   22401400.1894   22401393.9204
       169.0004        168.0004
  12498415.85648  10415282.16346  22773294.6064   22773306.8914   22773294.6194
       172.0004        171.0004
    635478.88748    853787.28446  22932718.6104   22932720.8994   22932716.3644
       181.0004        180.0004
  -7738148.21848  -5864185.05547  21101969.2134   21101978.2304   21101969.8294
       185.0004        188.0004
 -11836619.29848  -9013343.09147  20058211.6804   20058215.2984   20058210.2314
       193.0004        195.0004
 -11021344.65148  -8203881.04347  21474226.4664   21474232.2384   21474224.3204
       188.0004        188.0004
  -5113599.51747  -3820764.40645  23809623.5674   23809630.4084   23809623.3494
       151.0004        150.0004
 02  8  5  0  7  0.0000000  0  7G 3G25G20G 2G22G 1G13
  -7050536.91448  -5335154.54746  22391899.2994   22391905.4914   22391899.1394
       171.0004        170.0004
  12584066.72248  10482023.08746  22789595.0914   22789605.5904   22789595.0124
       173.0004        172.0004
    738961.84648    934423.32646  22952411.0104   22952412.0844   22952408.4484
       179.0004        178.0004
  -7697626.15348  -5832609.49847  21109686.0884   21109688.8024   21109684.7954
       194.0004        194.0004
 -11768179.59649  -8960013.43247  20071233.6964   20071238.6734   20071233.2654
       204.0004        205.0004
 -11048589.73048  -8225110.93547  21469041.8334   21469047.2774   21469040.2154
       190.0004        189.0004
  -5174662.77347  -3868346.11245  23798006.0964   23798009.6504   23798004.7244
       150.0004        151.0004
 02  8  5  0  7 30.0000000  0  7G 3G25G20G 2G22G 1G13
  -7100144.70947  -5373809.86046  22382458.2304   22382466.3434   22382458.7624
       163.0004        163.0004
  12669858.87648  10548874.08246  22805922.4524   22805931.6914   22805924.3224
       170.0004        170.0004
    842785.02948   1015324.48246  22972166.3144   22972170.0594   22972164.3624
       179.0004        179.0004
  -7656776.77248  -5800778.68847  21117455.8634   21117462.4144   21117456.3464
       188.0004        190.0004
 -11699279.84749  -8906325.35847  20084346.7624   20084349.7354   20084345.0534
       196.0004        197.0004
 -11075477.35848  -8246062.29547  21463926.7774   21463930.2394   21463925.4294
       193.0004        192.0004
  -5235578.70447  -3915813.01945  23786414.4514   23786418.8794   23786412.6094
       153.0004        153.0004
 02  8  5  0  8  0.0000000  0  7G 3G25G20G 2G22G 1G13
  -7149435.65547  -5412218.44845  22373081.4634   22373086.6944   22373079.3054
       162.0004        161.0004
  12755818.92648  10615855.89746  22822285.3514   22822289.8584   22822285.7414
       166.0004        167.0004
    946972.10148   1096509.17646  22991992.2564   22991996.2294   22991990.7754
       179.0004        179.0004
  -7615574.49448  -5768673.11047  21125298.7244   21125302.9274   21125297.4454
       192.0004        192.0004
 -11629895.82949  -8852259.82547  20097547.8494   20097552.7184   20097547.6934
       202.0004        203.0004
 -11101978.53449  -8266712.49947  21458884.6484   21458887.5364   21458883.6064
       196.0004        195.0004
  -5296318.17147  -3963142.40645  23774854.2334   23774859.7604   23774854.7964
       151.0004        151.0004
 02  8  5  0  8 30.0000000  0  7G 3G25G20G 2G22G 1G13
  -7198448.84948  -5450410.45746  22363753.2484   22363759.0874   22363752.3894
       173.0004        173.0004
  12841905.72548  10682936.47346  22838671.4184   22838670.4584   22838668.0764
       167.0004        167.0004
   1051478.15848   1177942.44446  23011879.0224   23011883.6784   23011876.7374
       179.0004        179.0004
  -7574062.36848  -5736325.88347  21133197.5984   21133202.3514   21133197.3514
       190.0004        191.0004
 -11560070.83249  -8797850.79947  20110837.1574   20110840.3064   20110835.2464
       199.0004        198.0004
 -11128132.36549  -8287092.06447  21453906.9754   21453910.9374   21453906.1284
       197.0004        197.0004
  -5356920.77947  -4010365.16045  23763324.0784   23763328.1974   23763322.6194
       150.0004        150.0004
 02  8  5  0  9  0.0000000  0  7G 3G25G20G 2G22G 1G13
  -7247204.70248  -5488401.88046  22354474.3044   22354480.7334   22354474.1894
       171.0004        172.0004
  12928096.17248  10750097.81146  22855068.3294   22855071.9184   22855067.5804
       171.0004        171.0004
   1156276.73648   1259603.64546  23031819.2784   23031825.9814   23031818.1374
       178.0004        178.0004
  -7532265.07648  -5703756.65947  21141151.7364   21141155.8514   21141149.7744
       190.0004        189.0004
 -11489830.78449  -8743118.21447  20124201.3444   20124206.5834   20124201.2394
       199.0004        200.0004
 -11153960.10049  -8307217.55747  21448992.0894   21448995.9324   21448991.1984
       197.0004        197.0004
  -5417407.40647  -4057497.56845  23751812.6984   23751818.2954   23751813.0554
       152.0004        152.0004
 02  8  5  0  9 30.0000000  0  7G 3G25G20G 2G22G 1G13
  -7295639.48647  -5526143.21946  22345256.7144   22345266.0444   22345256.5654
       162.0004        163.0004
  13014451.33948  10817387.51946  22871496.9824   22871505.1094   22871496.9574
       176.0004        175.0004
   1261425.56048   1341537.75946  23051827.1674   23051835.0764   23051826.9644
       177.0004        177.0004
  -7490123.56948  -5670919.01247  21149171.1924   21149174.9964   21149171.0544
       192.0004        193.0004
 -11419116.65949  -8688016.37947  20137659.5414   20137662.8364   20137657.5774
       201.0004        201.0004
 -11179398.75349  -8327039.84747  21444152.4994   21444154.0514   21444151.6734
       198.0004        197.0004
  -5477714.81547  -4104490.30745  23740337.6104   23740342.2624   23740336.3104
       152.0004        152.0004
 02  8  5  0 10  0.0000000  0  7G 3G25G20G 2G22G 1G13
  -7343777.73948  -5563653.57946  22336099.6444   22336103.9504   22336097.1784
       168.0004        167.0004
  13100943.94348  10884784.34146  22887953.1714   22887964.7244   22887953.8444
       178.0004        178.0004
   1366893.79348   1423720.74046  23071896.1334   23071904.4714   23071896.6424
       177.0004        177.0004
  -7447666.02148  -5637835.29046  21157248.6914   21157254.4874   21157247.1754
       187.0004        187.0004
 -11347958.07749  -8632568.05047  20151199.3384   20151204.1054   20151199.3224
       195.0004        197.0004
 -11204473.41049  -8346578.48447  21439379.9854   21439383.0804   21439379.8194
       199.0004        198.0004
  -5537868.21047  -4151363.08945  23728890.2664   23728893.9584   23728889.9214
       150.0004        150.0004
 02  8  5  0 10 30.0000000  0  7G 3G25G20G 2G22G 1G13
  -7391651.81048  -5600957.92146  22326986.7234   22326992.0494   22326986.3274
       171.0004        171.0004
  13187539.40448  10952261.32646  22904431.5364   22904442.6584   22904432.7444
       178.0004        178.0004
   1472643.48348   1506123.05846  23092019.0074   23092027.2624   23092019.7554
       176.0004        176.0004
  -7404929.36648  -5604533.90247  21165383.4304   21165387.1424   21165383.2224
       193.0004        194.0004
 -11276392.26249  -8576802.53947  20164818.7124   20164822.3434   20164817.1114
       203.0004        203.0004
 -11229216.77549  -8365859.02247  21434670.3824   21434675.6444   21434670.2654
       198.0004        198.0004
  -5597900.44847  -4198141.43845  23717465.0114   23717471.8734   23717465.5974
       151.0004        151.0004
 02  8  5  0 11  0.0000000  0  7G 3G25G20G 2G22G 1G13
  -7439166.22548  -5637982.00946  22317943.9414   22317951.5264   22317944.3434
       169.0004        169.0004
  13274330.51348  11019890.74946  22920949.3164   22920959.0834   22920950.2004
       177.0004        177.0004
   1578764.11748   1588814.43446  23112214.3184   23112221.5794   23112214.3904
       178.0004        177.0004
  -7361821.84348  -5570943.69346  21173583.4194   21173590.3144   21173582.0804
       185.0004        186.0004
 -11204328.63948  -8520649.00147  20178531.8164   20178536.2104   20178531.2904
       192.0004        195.0004
 -11253533.89849  -8384807.43047  21430043.8154   21430047.2924   21430043.6364
       198.0004        198.0004
  -5657716.50547  -4244751.33345  23706082.1264   23706088.0484   23706081.8524
       152.0004        152.0004
 02  8  5  0 11 30.0000000  0  8G 3G25G31G20G 2G22G 1G13
  -7486328.59047  -5674731.87945  22308969.1544   22308979.1584   22308969.5664
       161.0004        162.0004
  13361306.70548  11087664.35946  22937505.1144   22937509.9474   22937505.0754
       176.0004        176.0004
   -438088.71956   -325715.51344  24891480.2474   24891490.2184   24891478.1394
       128.0004        126.0004
   1685241.51248   1671783.79046  23132476.2884   23132483.8364   23132476.5514
       177.0004        177.0004
  -7318356.21349  -5537074.28647  21181858.5774   21181861.5234   21181858.1174
       195.0004        196.0004
 -11131780.16049  -8464117.76247  20192336.6824   20192341.0394   20192335.7114
       205.0004        205.0004
 -11277433.30549  -8403430.31247  21425495.2444   21425498.7154   21425495.1654
       196.0004        195.0004
  -5717324.96947  -4291199.46745  23694739.4824   23694745.4624   23694739.1664
       154.0004        155.0004
 02  8  5  0 12  0.0000000  0  8G 3G25G31G20G 2G22G 1G13
  -7533159.63848  -5711223.61346  22300059.4504   22300065.2324   22300058.6534
       169.0004        169.0004
  13448445.11348  11155564.38746  22954091.6904   22954091.3434   22954088.9034
       176.0004        176.0004
   -514611.89046   -385343.71545  24876922.8884   24876926.1764   24876920.2134
       134.0004        134.0004
   1792049.17248   1755010.50846  23152803.9234   23152808.8324   23152802.6524
       177.0004        176.0004
  -7274556.52848  -5502944.71046  21190188.8414   21190196.3284   21190187.1394
       183.0004        185.0004
 -11058772.13248  -8407228.36747  20206231.5654   20206234.6654   20206230.6044
       193.0004        196.0004
 -11300936.06448  -8421744.13447  21421021.0294   21421026.6844   21421021.1844
       194.0004        193.0004
  -5776746.53947  -4337501.94645  23683432.6464   23683439.2174   23683431.6824
       153.0004        153.0004
 02  8  5  0 12 30.0000000  0  8G 3G25G31G20G 2G22G 1G13
  -7579703.04248  -5747491.04946  22291201.8434   22291206.7084   22291201.3674
       173.0004        172.0004
  13535699.67248  11223554.93546  22970692.6164   22970695.6704   22970691.2494
       177.0004        177.0004
   -591228.92446   -445045.06344  24862339.9274   24862347.4694   24862339.3744
       131.0004        131.0004
   1899137.83848   1838456.19146  23173182.2484   23173187.4724   23173181.4944
       175.0004        175.0004
  -7230471.03448  -5468592.32047  21198582.4574   21198585.3934   21198581.8144
       194.0004        196.0004
 -10985353.35149  -8350018.92747  20220200.2384   20220205.4154   20220199.6734
       205.0004        206.0004
 -11324086.32248  -8439783.30347  21416614.9464   21416622.3914   21416615.3644
       193.0004        193.0004
  -5836025.32747  -4383693.17545  23672149.9054   23672157.9904   23672149.2064
       152.0004        152.0004
 02  8  5  0 13  0.0010000  0  8G 3G25G31G20G 2G22G 1G13
  -7625943.39848  -5783522.38746  22282402.5974   22282409.5104   22282402.5634
       170.0004        171.0004
  13623087.63448  11291649.44446  22987318.8694   22987325.1184   22987318.2804
       181.0004        180.0004
   -667925.55846   -504808.44244  24847739.0164   24847749.8704   24847738.0614
       127.0004        128.0004
   2006521.94348   1922132.08346  23193617.1714   23193622.2274   23193616.7134
       176.0004        176.0004
  -7186085.03448  -5434005.85246  21207023.7374   21207031.6584   21207022.3994
       182.0004        184.0004
 -10911509.02049  -8292477.91847  20234254.9034   20234258.1234   20234253.0614
       195.0004        197.0004
 -11346868.40248  -8457535.56847  21412279.5344   21412286.2524   21412279.7824
       191.0004        191.0004
  -5895146.60147  -4429761.62645  23660900.1834   23660906.8524   23660899.0834
       151.0004        151.0004
 02  8  5  0 13 30.0010000  0  7G 3G25G20G 2G22G 1G13
  -7671840.09747  -5819286.06645  22273668.3394   22273675.8064   22273666.3814
       161.0004        162.0004
  13710638.04848  11359870.55346  23003975.7634   23003985.1904   23003975.7934
       183.0004        183.0004
   2114225.66248   2006057.03146  23214115.6454   23214117.7594   23214112.8654
       175.0004        175.0004
  -7141368.99449  -5399162.14247  21215538.3554   21215540.7494   21215537.4354
       195.0004        196.0004
 -10837212.11049  -8234584.17447  20248390.2554   20248395.7774   20248390.0744
       203.0004        204.0004
 -11369244.15748  -8474971.22146  21408019.3074   21408026.9864   21408020.0054
       187.0004        187.0004
  -5954069.78347  -4475675.71345  23649687.8914   23649694.2814   23649687.3684
       153.0004        153.0004
 02  8  5  0 14  0.0010000  0  7G 3G25G20G 2G22G 1G13
  -7717424.67148  -5854806.44346  22264995.8684   22264999.9324   22264994.2874
       172.0004        172.0004
  13798321.01448  11428194.95746  23020661.3624   23020670.7564   23020661.8164
       187.0004        186.0004
   2222216.57348   2090205.76246  23234666.6224   23234668.2444   23234663.8194
       177.0004        176.0004
  -7096355.16148  -5364086.42346  21224097.9084   21224106.7424   21224096.8844
       180.0004        183.0004
 -10762494.75149  -8176362.92347  20262610.9874   20262614.3314   20262608.8284
       198.0004        198.0004
 -11391244.79148  -8492114.56447  21403833.8374   21403841.6794   21403833.6584
       189.0004        189.0004
  -6012827.09147  -4521460.54045  23638506.0074   23638513.0374   23638505.5624
       153.0004        153.0004
 02  8  5  0 14 30.0010000  0  7G 3G25G20G 2G22G 1G13
  -7762664.06648  -5890057.76946  22256385.4454   22256391.3654   22256385.0874
       175.0004        175.0004
  13886167.45348  11496646.74146  23037378.6364   23037387.7694   23037379.3754
       187.0004        186.0004
   2330521.47548   2174599.14946  23255274.7784   23255277.1814   23255272.8794
       176.0004        176.0004
  -7051014.98649  -5328756.40547  21232732.1854   21232734.9714   21232731.4394
       196.0004        196.0004
 -10687329.30349  -8117792.36147  20276912.5494   20276917.7214   20276912.3524
       200.0004        201.0004
 -11412837.84148  -8508940.31447  21399723.5554   21399733.6574   21399723.4934
       188.0004        189.0004
  -6071386.02547  -4567090.77445  23627365.3624   23627369.1124   23627364.4084
       156.0004        156.0004
 02  8  5  0 15  0.0010000  0  8G 3G25G31G20G 2G22G 1G13
  -7807572.24348  -5925051.05946  22247838.3884   22247846.8574   22247838.7394
       169.0004        170.0004
  13974160.72448  11565212.94046  23054124.5234   23054132.2714   23054125.6434
       185.0004        185.0004
    -41508.82854    -16464.39643  24789267.6154
        74.0004         74.0004
   2439120.49148   2259221.72246  23275940.8014   23275941.7404   23275938.2714
       176.0004        175.0004
  -7005366.31948  -5293185.99346  21241413.1134   21241421.7094   21241411.9264
       180.0004        183.0004
 -10611734.30849  -8058887.25947  20291298.2954   20291303.2544   20291296.7954
       203.0004        202.0004
 -11434037.96048  -8525459.88446  21395687.6914   21395698.5344   21395687.9004
       186.0004        186.0004
  -6129761.02747  -4612577.67845  23616256.2814   23616260.5644   23616256.1214
       156.0004        156.0004
 02  8  5  0 15 30.0010000  0  8G 3G25G31G20G 2G22G 1G13
  -7852139.85848  -5959779.09446  22239359.6654   22239364.6564   22239358.0454
       165.0004        165.0004
  14062307.48848  11633898.74246  23070901.8004   23070905.5914   23070901.5494
       183.0004        182.0004
   -118446.62444    -76415.49444  24774628.6684
        74.0004         95.0004
   2548016.96448   2344076.08846  23296662.5254   23296664.6614   23296659.7454
       174.0004        174.0004
  -6959404.41649  -5257371.52847  21250164.5234   21250167.5044   21250163.9934
       196.0004        196.0004
 -10535705.90049  -7999644.25847  20305765.4224   20305770.9744   20305765.4274
       196.0004        199.0004
 -11454836.30848  -8541666.36446  21391731.6874   21391739.6594   21391730.9504
       185.0004        185.0004
  -6187943.32647  -4657914.42845  23605184.7484   23605188.8714   23605184.2024
       158.0004        158.0004
 02  8  5  0 16  0.0010000  0  8G 3G25G31G20G 2G22G 1G13
  -7896376.85348  -5994249.39646  22230941.4504   22230945.6784   22230940.4814
       174.0004        174.0004
  14150595.76048  11702694.79746  23087705.0814   23087706.3954   23087703.0594
       182.0004        182.0004
   -195437.47144   -136406.98943  24759979.2914
        74.0004         76.0004
   2657195.14348   2429149.95746  23317437.9084   23317441.7104   23317436.1604
       176.0004        175.0004
  -6913142.81248  -5221323.49846  21258962.1874   21258970.6514   21258960.8474
       178.0004        182.0004
 -10459258.44149  -7940074.89547  20320313.1484   20320318.3404   20320311.6434
       205.0004        205.0004
 -11475243.00148  -8557567.63946  21387849.1914   21387856.9094   21387848.2814
       187.0004        187.0004
  -6245942.70547  -4703108.63145  23594148.3714   23594152.4924   23594147.5594
       160.0004        159.0004
 02  8  5  0 16 30.0010000  0  8G 3G25G31G20G 2G22G 1G13
  -7940274.00548  -6028454.83846  22222587.6274   22222594.1014   22222587.3804
       178.0004        178.0004
  14239032.37748  11771606.45146  23104533.1564   23104535.4404   23104531.3034
       184.0004        183.0004
   -272472.14244    -12478.76443  24745308.1844
        74.0004         74.0004
   2766658.49348   2514446.04446  23338267.4474   23338270.8814   23338264.7214
       172.0004        172.0004
  -6866576.72449  -5185038.25847  21267829.4494   21267831.5824   21267828.4184
       195.0004        196.0004
 -10382387.55948  -7880175.44747  20334942.6514   20334946.5094   20334941.9274
       192.0004        196.0004
 -11495249.37048  -8573156.98847  21384042.3964   21384051.2184   21384041.1714
       189.0004        189.0004
  -6303750.22747  -4748153.34545  23583146.7744   23583151.0894   23583146.2364
       159.0004        159.0004
 02  8  5  0 17  0.0010000  0  7G 3G25G20G 2G22G 1G13
  -7983769.90148  -6062347.69646  22214307.9854   22214316.4514   22214308.9994
       166.0004        167.0004
  14327675.83448  11840679.27846  23121398.2034   23121403.7274   23121397.3474
       184.0004        184.0004
   2876461.73048   2600006.98446  23359162.1964   23359165.6234   23359159.9344
       171.0004        171.0004
  -6819649.21448  -5148471.33146  21276752.3964   21276761.7924   21276752.3614
       179.0004        182.0004
 -10305037.56149  -7819902.76547  20349659.9794   20349665.5164   20349658.8144
       206.0004        207.0004
 -11514795.09348  -8588387.38947  21380324.0514   21380331.0224   21380322.4354
       190.0004        190.0004
  -6361305.69647  -4793001.64845  23572193.9194   23572199.5614   23572194.0334
       159.0004        159.0004
 02  8  5  0 17 30.0010000  0  7G 3G25G20G 2G22G 1G13
  -8026963.04748  -6096004.70346  22206090.3024   22206095.7424   22206088.9104
       165.0004        165.0004
  14416425.51848  11909834.88046  23138283.9864   23138291.9364   23138283.8064
       184.0004        184.0004
   2986500.66048   2685751.56446  23380101.1704   23380106.0834   23380099.5524
       171.0004        171.0004
  -6772463.04749  -5111702.91847  21285738.5354   21285741.2284   21285737.5344
       195.0004        196.0004
 -10227311.56948  -7759337.04447  20364453.5584   20364456.7344   20364451.9634
       192.0004        196.0004
 -11533978.96348  -8603335.80147  21376674.8834   21376679.7624   21376672.9734
       190.0004        191.0004
  -6418707.56147  -4837730.26945  23561270.3484   23561277.0554   23561270.7914
       159.0004        159.0004
 02  8  5  0 18  0.0010000  0  8G 3G25G31G20G 2G22G 1G13
  -8069827.96948  -6129405.82546  22197934.5584   22197938.9604   22197933.6994
       177.0004        176.0004
  14505304.21648  11979091.01946  23155195.0134   23155205.1154   23155195.3834
       184.0004        184.0004
    -56593.52854    -28525.47943  24701304.3374
        74.0004         74.0004
   3096794.99148   2771695.14646  23401088.3284   23401094.5344   23401086.6484
       171.0004        171.0004
  -6724996.46748  -5074715.92246  21294765.3404   21294774.1514   21294764.5334
       179.0004        183.0004
 -10149188.92049  -7698462.24147  20379316.0364   20379322.3294   20379315.6974
       205.0004        206.0004
 -11552775.96248  -8617982.73547  21373097.3014   21373103.0444   21373095.2534
       191.0004        191.0004
  -6475930.51947  -4882319.49645  23550381.2604   23550386.5234   23550380.9654
       158.0004        159.0004
 02  8  5  0 18 30.0010000  0  8G 3G25G31G20G 2G22G 1G13
  -8112318.76348  -6162515.43446  22189847.8104   22189855.2274   22189847.9334
       178.0004        178.0004
  14594355.50248  12048481.63046  23172141.0594   23172150.3744   23172141.5734
       184.0004        184.0004
   -133760.75444    -88655.23744  24686625.6094
        74.0004        113.0004
   3207384.33748   2857868.63746  23422133.3214   23422138.4794   23422131.1634
       170.0004        170.0004
  -6677207.97249  -5037478.18147  21303865.1014   21303867.5964   21303863.8434
       195.0004        196.0004
 -10070628.73849  -7637246.55647  20394268.6234   20394272.1114   20394267.1034
       196.0004        197.0004
 -11571140.83948  -8632292.97447  21369603.1414   21369609.3454   21369601.6614
       194.0004        194.0004
  -6532928.95347  -4926733.74945  23539533.5424   23539538.4444   23539533.8764
       157.0004        157.0004
 02  8  5  0 19  0.0010000  0  8G 3G25G31G20G 2G22G 1G13
  -8154451.66947  -6195346.24146  22181828.6484   22181835.9714   22181828.6384
       163.0004        165.0004
  14683560.23548  12117991.80846  23189116.8724   23189126.3814   23189117.2694
       183.0004        183.0004
   -210955.41047   -148806.84245  24671936.1124   24671939.8164   24671933.3154
       138.0004        137.0004
   3318246.37848   2944254.61046  23443228.5804   23443235.4804   23443227.6084
       171.0004        171.0004
  -6629117.99748  -5000005.40446  21313010.0844   21313019.3294   21313009.7454
       179.0004        183.0004
  -9991652.62649  -7575706.66247  20409295.1004   20409300.2674   20409294.5964
       203.0004        204.0004
 -11589090.56749  -8646279.72447  21366188.2684   21366193.3244   21366186.4444
       195.0004        195.0004
  -6589719.90847  -4970986.36145  23528727.0104   23528731.9244   23528726.1764
       156.0004        156.0004
 02  8  5  0 19 30.0010000  0  8G 3G25G31G20G 2G22G 1G13
  -8196247.93548  -6227914.77546  22173878.5624   22173881.3374   22173876.7224
       171.0004        170.0004
  14772894.97548  12187603.28246  23206118.8344   23206126.3004   23206119.4394
       181.0004        181.0004
   -288198.88147   -208996.30245  24657231.3384   24657241.2354   24657230.1954
       135.0004        136.0004
   3429354.13248   3030832.03846  23464369.7014   23464378.6654   23464369.6834
       172.0004        171.0004
  -6580752.15049  -4962317.80147  21322219.5614   21322222.7284   21322218.4854
       195.0004        195.0004
  -9912286.47649  -7513862.98047  20424400.4444   20424403.4654   20424398.0054
       200.0004        199.0004
 -11606646.85848  -8659959.88047  21362846.9934   21362850.8774   21362845.4124
       193.0004        193.0004
  -6646324.60347  -5015093.84345  23517953.9514   23517959.8864   23517953.9254
       155.0004        155.0004
 02  8  5  0 20  0.0010000  0  8G 3G25G31G20G 2G22G 1G13
  -8237665.75448  -6260188.28046  22165994.2824   22166002.0214   22165994.7734
       181.0004        181.0004
  14862399.29748  12257346.90246  23223152.8524   23223157.5084   23223153.4424
       175.0004        176.0004
   -365449.24746   -269191.20044  24642526.0794   24642542.5774   24642525.4884
       129.0004        128.0004
   3540743.41848   3117628.85046  23485565.4854   23485575.3404   23485566.4304
       171.0004        171.0004
  -6532072.40448  -4924385.46146  21331477.0184   21331486.4004   21331476.5294
       178.0004        182.0004
  -9832493.56849  -7451686.59647  20439582.1144   20439587.6224   20439582.1114
       200.0004        201.0004
 -11623768.29849  -8673301.20147  21359590.8874   21359593.1524   21359589.2534
       196.0004        196.0004
  -6702701.54547  -5059023.88445  23507227.2964   23507232.9754   23507227.3984
       156.0004        156.0004
 02  8  5  0 20 30.0010000  0  8G 3G25G31G20G 2G22G 1G13
  -8278749.50448  -6292201.52246  22158176.7204   22158183.7404   22158176.9264
       177.0004        177.0004
  14952026.19248  12327186.03246  23240211.0544   23240213.6034   23240209.9764
       170.0004        171.0004
   -442751.19746   -329426.28244  24627823.5954   24627829.5314   24627818.4464
       127.0004        124.0004
   3652363.80948   3204605.75246  23506806.3714   23506815.5974   23506807.0114
       169.0004        169.0004
  -6483127.66448  -4886246.77747  21340796.7564   21340799.8744   21340795.6834
       194.0004        195.0004
  -9752323.01149  -7389216.11147  20454839.3404   20454843.6014   20454837.5464
       203.0004        203.0004
 -11640499.86749  -8686338.72847  21356406.5384   21356410.7054   21356404.9464
       198.0004        198.0004
  -6758895.39847  -5102811.25745  23496533.2014   23496539.7734   23496532.8024
       159.0004        158.0004
 02  8  5  0 21  0.0010000  0  8G 3G25G31G20G 2G22G 1G13
  -8319502.04047  -6323956.72646  22150422.8724   22150427.9934   22150421.4594
       164.0004        166.0004
  15041770.41448  12397116.57246  23257291.1834   23257291.7664   23257288.3464
       171.0004        171.0004
   -520107.81746   -389703.91044  24613110.0224   24613108.9744   24613104.9874
       131.0004        131.0004
   3764206.44248   3291755.83646  23528089.9774   23528099.0884   23528090.1624
       170.0004        170.0004
  -6433924.76848  -4847906.77846  21350155.2324   21350163.1574   21350154.0844
       178.0004        182.0004
  -9671783.07349  -7326457.64047  20470165.5644   20470169.7264   20470165.3054
       196.0004        198.0004
 -11656845.14149  -8699075.26047  21353295.1774   21353299.8084   21353293.9874
       198.0004        198.0004
  -6814909.18247  -5146458.32845  23485873.7154   23485880.0054   23485874.2524
       158.0004        158.0004
 02  8  5  0 21 30.0010000  0  8G 3G25G31G20G 2G22G 1G13
  -8359891.61248  -6355429.07246  22142736.2224   22142742.6514   22142735.7114
       176.0004        175.0004
  15131661.50948  12467161.53846  23274394.8164   23274397.1424   23274393.0984
       170.0004        171.0004
   -597487.16947   -449999.23445  24598382.3604   24598384.3234   24598379.2344
       135.0004        134.0004
   3876297.42548   3379099.42946  23549419.9784   23549429.0604   23549420.5374
       171.0004        170.0004
  -6384435.87948  -4809344.08147  21359577.2424   21359580.3274   21359575.9184
       194.0004        194.0004
  -9590846.35149  -7263390.12547  20485566.3634   20485571.0134   20485565.0814
       204.0004        204.0004
 -11672772.60449  -8711486.23247  21350265.2014   21350267.3794   21350263.8894
       196.0004        196.0004
  -6870711.22647  -5189940.39845  23475254.2384   23475262.5394   23475254.0434
       156.0004        156.0004
 02  8  5  0 22  0.0010000  0  8G 3G25G31G20G 2G22G 1G13
  -8399961.43448  -6386652.21346  22135110.6474   22135118.4394   22135110.6584
       183.0004        183.0004
  15221653.64448  12537285.25246  23291517.9174   23291521.9864   23291517.0284
       172.0004        172.0004
   -674932.73047   -510346.12645  24583641.9454   24583646.9034   24583641.1704
       135.0004        136.0004
   3988587.38548   3466598.08846  23570789.3004   23570797.2264   23570789.0484
       170.0004        170.0004
  -6334708.35548  -4770595.29446  21369032.9554   21369043.9024   21369033.1384
       177.0004        182.0004
  -9509561.36648  -7200051.11947  20501036.9274   20501039.6414   20501035.9504
       194.0004        197.0004
 -11688326.13849  -8723605.81647  21347305.5964   21347308.0374   21347304.2754
       198.0004        197.0004
  -6926345.28647  -5233291.58745  23464666.3964   23464674.0394   23464666.4714
       155.0004        156.0004
 02  8  5  0 22 30.0010000  0  8G 3G25G31G20G 2G22G 1G13
  -8439641.32948  -6417571.52346  22127558.3394   22127566.0414   22127558.8904
       171.0004        172.0004
  15311815.10748  12607540.91246  23308672.8314   23308679.2144   23308671.9294
       170.0004        170.0004
   -752374.19546   -570689.89245  24568898.4414   24568908.4514   24568901.5844
       133.0004        133.0004
   4101140.61248   3554301.88946  23592205.3914   23592215.2214   23592206.6144
       168.0004        168.0004
  -6284676.44148  -4731609.46347  21378560.7394   21378564.0474   21378559.5554
       194.0004        195.0004
  -9427862.83549  -7136389.95547  20516580.5484   20516586.0414   20516579.6314
       206.0004        206.0004
 -11703435.96849  -8735379.68647  21344429.2994   21344433.7644   21344428.6044
       198.0004        198.0004
  -6981741.13747  -5276457.14145  23454126.4234   23454132.3914   23454126.4604
       158.0004        158.0004
 02  8  5  0 23  0.0010000  0  8G 3G25G31G20G 2G22G 1G13
  -8478971.29448  -6448218.25946  22120075.4364   22120081.0524   22120075.0334
       165.0004        165.0004
  15402102.78348  12677894.92246  23325852.3934   23325860.3444   23325851.9004
       170.0004        171.0004
   -829852.12846   -631062.09644  24554152.0094   24554165.8074   24554153.2674
       129.0004        131.0004
   4213910.80048   3642174.74746  23613664.3544   23613675.0584   23613666.1334
       168.0004        168.0004
  -6234384.41048  -4692420.79146  21388125.6514   21388134.6144   21388124.8644
       178.0004        183.0004
  -9345795.78648  -7072441.60247  20532200.6634   20532203.2664   20532199.3254
       194.0004        197.0004
 -11718142.96849  -8746839.68347  21341631.5324   21341634.8534   21341630.2044
       199.0004        199.0004
  -7036939.35647  -5319468.70845  23443623.7584   23443629.1454   23443623.2324
       160.0004        160.0004
 02  8  5  0 23 30.0010000  0  8G 3G25G31G20G 2G22G 1G13
  -8517884.22848  -6478539.95546  22112672.2984   22112677.9084   22112671.0284
       181.0004        180.0004
  15492581.22048  12748397.57046  23343068.7354   23343078.7054   23343068.5124
       173.0004        173.0004
   -907299.29646   -691410.36245  24539416.8554   24539427.6074   24539416.4734
       133.0004        132.0004
   4326959.34048   3730264.50646  23635176.7674   23635186.9554   23635178.1074
       166.0004        166.0004
  -6183769.37848  -4652980.58247  21397762.7704   21397765.7674   21397761.5944
       194.0004        195.0004
  -9263298.23949  -7008157.78847  20547895.7694   20547901.4694   20547895.2114
       205.0004        205.0004
 -11732380.67949  -8757933.99147  21338922.2914   21338924.6014   21338921.2444
       197.0004        197.0004
  -7091872.88047  -5362274.02245  23433170.7194   23433174.9794   23433170.9394
       160.0004        160.0004
 02  8  5  0 24  0.0010000  0  8G 3G25G31G20G 2G22G 1G13
  -8556408.23148  -6508558.55046  22105338.7064   22105346.5904   22105339.2654
       182.0004        182.0004
  15583220.47648  12819025.53846  23360315.3744   23360326.6184   23360315.9464
       173.0004        173.0004
   -984743.72447   -751756.45445  24524687.6254   24524692.0994   24524683.6144
       141.0004        140.0004
   4440252.18648   3818544.62046  23656736.8034   23656746.5224   23656737.4724
       168.0004        167.0004
  -6132863.19948  -4613313.35946  21407443.3054   21407453.3214   21407443.0794
       178.0004        182.0004
  -9180402.66849  -6943563.87847  20563673.9534   20563676.3924   20563672.0324
       197.0004        198.0004
 -11746177.45049  -8768684.69447  21336296.3434   21336299.0134   21336295.5474
       197.0004        197.0004
  -7146570.03947  -5404895.13246  23422761.6374   23422768.3084   23422761.7444
       164.0004        163.0004
 02  8  5  0 24 30.0010000  0  8G 3G25G31G20G 2G22G 1G13
  -8594539.94948  -6538271.48346  22098082.8794   22098088.7474   22098083.3544
       169.0004        171.0004
  15674021.50448  12889779.53946  23377595.8634   23377605.3404   23377595.4634
       173.0004        173.0004
  -1062182.28547   -812097.93245  24509954.0954   24509954.8244   24509951.9144
       145.0004        145.0004
   4553786.55548   3907012.94546  23678342.3054   23678351.7834   23678342.7344
       168.0004        168.0004
  -6081667.14249  -4573420.39647  21417191.8864   21417195.3924   21417190.7974
       195.0004        196.0004
  -9097111.53849  -6878661.64647  20579520.1854   20579526.1304   20579519.9894
       204.0004        204.0004
 -11759530.89349  -8779089.96547  21333755.2124   21333758.9194   21333754.3044
       199.0004        198.0004
  -7201027.66448  -5447329.60146  23412399.4854   23412405.4964   23412399.7014
       167.0004        167.0004
 02  8  5  0 25  0.0010000  0  8G 3G25G31G20G 2G22G 1G13
  -8632348.68848  -6567732.84646  22090890.1014   22090895.5654   22090888.3464
       173.0004        172.0004
  15764912.41048  12960603.58346  23394890.9644   23394901.7194   23394891.0284
       173.0004        173.0004
  -1139684.30047   -872488.84645  24495200.6204   24495205.6594   24495201.1294
       142.0004        142.0004
   4667487.49148   3995611.04946  23699977.3114   23699988.1954   23699978.6204
       166.0004        166.0004
  -6030254.33448  -4533358.39446  21426970.4404   21426979.1584   21426969.3224
       178.0004        182.0004
  -9013498.42649  -6813508.64447  20595434.0424   20595437.3984   20595432.1774
       201.0004        201.0004
 -11772510.59749  -8789204.02847  21331286.0284   21331289.2124   21331285.1454
       200.0004        200.0004
  -7255315.28948  -5489631.61046  23402070.4324   23402074.4654   23402069.4394
       167.0004        167.0004
 02  8  5  0 25 30.0010000  0  8G 3G25G31G20G 2G22G 1G13
  -8669790.35848  -6596908.09546  22083763.4134   22083770.4664   22083763.3314
       183.0004        182.0004
  15855935.11348  13031530.33246  23412212.1044   23412222.8714   23412213.2054
       173.0004        173.0004
  -1217205.37347   -932894.65545  24480446.7224   24480454.7594   24480444.6864
       135.0004        135.0004
   4781393.35248   4084368.84346  23721653.8504   23721662.7044   23721655.1384
       165.0004        165.0004
  -5978584.78849  -4493096.47847  21436807.5844   21436811.5684   21436806.7474
       195.0004        196.0004
  -8929524.32949  -6748074.21147  20611411.6084   20611416.8414   20611411.5124
       201.0004        201.0004
 -11785072.78549  -8798992.74647  21328895.0644   21328897.9344   21328894.1864
       199.0004        198.0004
  -7309388.57448  -5531766.58846  23391780.5644   23391783.9294   23391779.6844
       165.0004        165.0004
 02  8  5  0 26  0.0010000  0  8G 3G25G31G20G 2G22G 1G13
  -8706862.49648  -6625795.33546  22076708.6924   22076714.2454   22076708.7864
       178.0004        178.0004
  15947089.84648  13102559.95446  23429560.0364   23429568.4794   23429560.9534
       174.0004        174.0004
  -1294742.97446   -993313.34344  24465683.9344   24465698.9494   24465686.1174
       129.0004        130.0004
   4895500.66748   4173283.61346  23743368.8814   23743376.7934   23743369.1264
       166.0004        166.0004
  -5926659.83048  -4452635.40046  21446683.9374   21446692.5534   21446682.5664
       176.0004        181.0004
  -8845191.39349  -6682360.31347  20627460.7994   20627464.7754   20627458.9514
       203.0004        203.0004
 -11797215.46549  -8808454.57247  21326583.8454   21326586.6044   21326582.9084
       197.0004        197.0004
  -7363245.67948  -5573733.08646  23381531.6964   23381534.7984   23381531.2474
       165.0004        165.0004
 02  8  5  0 26 30.0010000  0  8G 3G25G31G20G 2G22G 1G13
  -8743514.76948  -6654355.47246  22069733.7614   22069741.0444   22069733.7534
       166.0004        168.0004
  16038424.04348  13173729.40146  23446942.2004   23446949.1424   23446942.5964
       174.0004        174.0004
  -1372247.25346  -1053706.13244  24450936.6564   24450949.3414   24450934.6114
       128.0004        128.0004
   5009853.28648   4262389.53146  23765128.6364   23765137.6114   23765128.9664
       166.0004        166.0004
  -5874433.76949  -4411939.81347  21456627.1774   21456630.5424   21456626.1544
       196.0004        196.0004
  -8760454.78549  -6616331.72047  20643584.9434   20643589.8434   20643585.0514
       198.0004        199.0004
 -11808889.39049  -8817551.13347  21324363.0604   21324366.0774   21324362.4744
       200.0004        199.0004
  -7416836.40948  -5615492.02746  23371333.8184   23371336.9274   23371333.2134
       165.0004        164.0004
 02  8  5  0 27  0.0010000  0  8G 3G25G31G20G 2G22G 1G13
  -8779767.52148  -6682604.40446  22062837.0914   22062842.4604   22062835.9444
       177.0004        177.0004
  16129915.65248  13245021.52246  23464356.0504   23464359.3184   23464354.6734
       173.0004        173.0004
  -1449738.00746  -1114088.36945  24436194.4574   24436203.8014   24436194.9594
       133.0004        133.0004
   5124425.42148   4351666.48546  23786933.1924   23786939.8724   23786931.9974
       166.0004        166.0004
  -5821930.69148  -4371028.25646  21466613.4874   21466621.8304   21466611.9094
       176.0004        181.0004
  -8675339.41849  -6550008.12747  20659781.6524   20659786.2394   20659780.3314
       204.0004        204.0004
 -11820115.09849  -8826298.44547  21322227.0204   21322230.4664   21322225.8614
       200.0004        200.0004
  -7470180.73448  -5657058.95046  23361180.7124   23361186.2604   23361181.4754
       166.0004        165.0004
 02  8  5  0 27 30.0010000  0  8G 3G25G31G20G 2G22G 1G13
  -8815620.18348  -6710541.41546  22056013.1754   22056019.0694   22056012.1944
       183.0004        183.0004
  16221562.65548  13316434.73846  23481797.4484   23481799.2184   23481795.5024
       174.0004        173.0004
  -1527214.71247  -1174459.70345  24421457.4344   24421461.6514   24421456.9274
       142.0004        142.0004
   5239211.77948   4441110.35046  23808775.8454   23808782.7214   23808775.0844
       165.0004        165.0004
  -5769154.41649  -4329903.91447  21476661.0384   21476664.6874   21476660.1684
       196.0004        197.0004
  -8589849.64848  -6483392.67347  20676051.5814   20676054.3314   20676051.2764
       194.0004        196.0004
 -11830892.56149  -8834696.48447  21320174.9864   21320178.7284   21320174.3964
       199.0004        198.0004
  -7523278.42048  -5698433.70146  23351077.7514   23351081.8304   23351076.9224
       167.0004        167.0004
 02  8  5  0 28  0.0010000  0  8G 3G25G31G20G 2G22G 1G13
  -8851046.70548  -6738146.35146  22049270.8874   22049277.5284   22049270.9344
       177.0004        178.0004
  16313389.26948  13387987.92246  23499270.8914   23499273.1604   23499269.1974
       173.0004        174.0004
  -1604651.24047  -1234799.66545  24406722.2994   24406724.3764   24406722.2504
       146.0004        145.0004
   5354232.64047   4530736.96946  23830661.8524   23830670.9314   23830662.2064
       164.0004        165.0004
  -5716082.36748  -4288549.02946  21486755.4274   21486764.4944   21486754.1724
       177.0004        181.0004
  -8503964.13749  -6416468.93547  20692392.7194   20692397.6474   20692391.4664
       204.0004        204.0004
 -11841196.21349  -8842725.29147  21318215.9794   21318217.5654   21318215.0074
       200.0004        199.0004
  -7576103.32748  -5739595.88446  23341024.1984   23341029.5374   23341024.3424
       167.0004        167.0004
 02  8  5  0 28 30.0010000  0  8G 3G25G31G20G 2G22G 1G13
  -8886088.37148  -6765451.51546  22042604.2154   22042610.0114   22042602.7164
       167.0004        169.0004
  16405351.41948  13459646.72146  23516771.0544   23516772.9844   23516768.7144
       173.0004        173.0004
  -1682088.95447  -1295140.56745  24391980.7564   24391988.7464   24391981.6004
       143.0004        143.0004
   5469440.49348   4620509.29346  23852584.2464   23852594.1374   23852585.9604
       165.0004        164.0004
  -5662760.43949  -4246999.48447  21496907.0324   21496910.6954   21496906.0034
       197.0004        198.0004
  -8417729.26148  -6349272.91747  20708805.8544   20708808.4394   20708804.5284
       194.0004        196.0004
 -11851068.19449  -8850417.70747  21316337.3084   21316339.6814   21316336.2474
       201.0004        201.0004
  -7628697.07248  -5780577.94846  23331016.6474   23331020.7514   23331017.0774
       168.0004        168.0004
 02  8  5  0 29  0.0010000  0  8G 3G25G31G20G 2G22G 1G13
  -8920686.50748  -6792411.09446  22036020.1224   22036025.3654   22036018.8154
       179.0004        179.0004
  16497505.06848  13531454.73846  23534306.1714   23534309.4664   23534304.8164
       174.0004        174.0004
  -1759468.86747  -1355436.44745  24377257.1304   24377264.9964   24377252.1514
       139.0004        140.0004
   5584888.30348   4710468.58046  23874553.8614   23874564.1644   23874554.9344
       167.0004        167.0004
  -5609133.56548  -4205212.27546  21507108.2064   21507115.7724   21507106.4624
       178.0004        182.0004
  -8331091.33749  -6281762.84947  20725288.5534   20725294.8924   20725287.8844
       205.0004        205.0004
 -11860450.24949  -8857728.39047  21314550.8994   21314554.9134   21314549.8734
       200.0004        200.0004
  -7681001.22348  -5821334.32546  23321064.2984   23321066.2634   23321064.3914
       167.0004        166.0004
 02  8  5  0 29 30.0010000  0  8G 3G25G31G20G 2G22G 1G13
  -8954934.29648  -6819097.53446  22029501.7944   22029508.1204   22029501.9594
       184.0004        184.0004
  16589755.62548  13603338.27346  23551858.9924   23551863.6884   23551858.4804
       173.0004        173.0004
  -1836883.93046  -1415759.73345  24362517.3724   24362530.8144   24362518.0684
       134.0004        136.0004
   5700477.09348   4800537.74446  23896550.5764   23896559.9204   23896550.5154
       166.0004        165.0004
  -5555299.26349  -4163263.45247  21517355.8924   21517359.8624   21517355.0614
       196.0004        197.0004
  -8244147.88749  -6214014.73547  20741837.2664   20741840.1494   20741835.6134
       196.0004        198.0004
 -11869435.96549  -8864730.24047  21312841.4744   21312844.7974   21312840.5714
       201.0004        201.0004
  -7733108.56048  -5861937.35946  23311147.1824   23311150.2254   23311147.7024
       165.0004        165.0004
 02  8  5  0 30  0.0010000  0  8G 3G25G31G20G 2G22G 1G13
  -8988809.39548  -6845493.58746  22023055.2834   22023062.7714   22023055.5354
       176.0004        177.0004
  16682122.95248  13675312.80146  23569436.0844   23569440.7084   23569434.9624
       174.0004        174.0004
  -1914311.79947  -1476093.04545  24347789.0174   24347798.2484   24347787.0024
       136.0004        136.0004
   5816223.43048   4890729.66046  23918574.8864   23918585.4804   23918576.8734
       165.0004        165.0004
  -5501239.10248  -4121138.63146  21527639.4094   21527647.9744   21527638.2684
       179.0004        183.0004
  -8156882.04149  -6146015.34047  20758439.4784   20758445.9664   20758439.2294
       204.0004        204.0004
 -11878003.76249  -8871406.40347  21311211.0344   21311213.4244   21311209.9894
       200.0004        200.0004
  -7784996.94148  -5902369.77846  23301273.3064   23301277.2314   23301272.8174
       166.0004        165.0004
 02  8  5  0 30 30.0010000  0  8G 3G25G31G20G 2G22G 1G13
  -9022278.25648  -6871573.27646  22016689.4184   22016693.2104   22016686.6784
       169.0004        169.0004
  16774638.15148  13747402.57146  23587039.6784   23587046.3094   23587039.4644
       175.0004        175.0004
  -1991718.70847  -1536409.99845  24333064.2444   24333069.5984   24333062.8074
       141.0004        141.0004
   5932155.11647   4981066.02146  23940635.3314   23940646.4684   23940636.8954
       163.0004        163.0004
  -5446923.75049  -4078814.95247  21537979.1554   21537983.1044   21537978.3324
       198.0004        199.0004
  -8069264.58549  -6077742.06047  20775116.0294   20775118.9874   20775113.9594
       199.0004        199.0004
 -11886120.43749  -8877731.03647  21309665.5644   21309668.9664   21309664.4144
       198.0004        198.0004
  -7836632.75248  -5942605.38846  23291446.5424   23291452.3364   23291446.5864
       166.0004        166.0004
 02  8  5  0 31  0.0010000  0  8G 3G25G31G20G 2G22G 1G13
  -9055296.56548  -6897301.71746  22010404.6284   22010409.2264   22010403.5694
       182.0004        182.0004
  16867343.52348  13819640.53146  23604680.3494   23604687.6764   23604679.9724
       175.0004        175.0004
  -2069059.88347  -1596675.71845  24318346.3434   24318349.5694   24318346.3884
       144.0004        143.0004
   6048310.88847   5071577.00245  23962739.6264   23962749.8414   23962741.0314
       162.0004        161.0004
  -5392312.37748  -4036260.63146  21548368.9634   21548375.5364   21548366.8864
       183.0004        186.0004
  -7981256.13549  -6009163.99647  20791860.3074   20791866.1434   20791860.0074
       200.0004        201.0004
 -11893742.02349  -8883669.90247  21308215.6374   21308219.3724   21308214.6544
       200.0004        199.0004
  -7887971.31148  -5982609.36546  23281676.1274   23281682.2104   23281677.2344
       166.0004        166.0004
 02  8  5  0 31 30.0010000  0  8G 3G25G31G20G 2G22G 1G13
  -9087870.74048  -6922684.03246  22004204.7064   22004211.0724   22004204.4624
       183.0004        183.0004
  16960230.19148  13892019.74646  23622355.0334   23622362.9734   23622354.8504
       174.0004        174.0004
  -2146341.70547  -1656895.19345  24303635.6574   24303642.7754   24303638.8264
       143.0004        142.0004
   6164678.35347   5162252.93245  23984884.0344   23984893.6854   23984885.1224
       159.0004        159.0004
  -5337416.05949  -3993484.22847  21558817.0864   21558821.6514   21558816.5244
       197.0004        198.0004
  -7892867.79549  -5940290.04147  20808682.2374   20808685.9104   20808680.2604
       201.0004        200.0004
 -11900875.66049  -8889228.54547  21306858.2764   21306861.7864   21306857.3244
       200.0004        200.0004
  -7939019.57148  -6022387.15746  23271965.5284   23271968.7144   23271965.1134
       169.0004        168.0004
 02  8  5  0 32  0.0010000  0  8G 3G25G31G20G 2G22G 1G13
  -9120020.00348  -6947735.33346  21998086.9224   21998094.0034   21998086.8934
       172.0004        173.0004
  17053276.58248  13964523.40546  23640059.8854   23640069.0394   23640059.6094
       174.0004        174.0004
  -2223583.22847  -1717083.29645  24288933.2144   24288943.1324   24288935.3224
       139.0004        140.0004
   6281232.24147   5253074.11945  24007064.1494   24007073.2384   24007064.4034
       161.0004        160.0004
  -5282257.64148  -3950503.66646  21569312.2034   21569317.8094   21569310.0544
       184.0004        186.0004
  -7804124.06249  -5871139.00847  20825568.0584   20825573.7284   20825568.3754
       198.0004        199.0004
 -11907541.26749  -8894422.47247  21305588.8214   21305592.7994   21305587.9854
       198.0004        198.0004
  -7989796.71948  -6061953.67846  23262301.5684   23262304.6484   23262301.6904
       168.0004        168.0004
 02  8  5  0 32 30.0010000  0  8G 3G25G31G20G 2G22G 1G13
  -9151686.36548  -6972410.44446  21992062.7014   21992066.2744   21992060.9204
       171.0004        171.0004
  17146538.68348  14037195.18346  23657807.8644   23657816.8874   23657807.3784
       175.0004        175.0004
  -2300726.22946  -1777194.66645  24274251.5164   24274263.8034   24274252.3334
       134.0004        134.0004
   6398024.89947   5344081.36746  24029289.8874   24029298.2074   24029290.1284
       163.0004        163.0004
  -5226783.38749  -3907276.90347  21579869.6064   21579874.4464   21579869.3334
       197.0004        198.0004
  -7714971.39049  -5801669.46247  20842534.0334   20842538.6624   20842532.2694
       204.0004        204.0004
 -11913681.20049  -8899206.79247  21304420.8364   21304423.9964   21304419.2064
       196.0004        196.0004
  -8040244.72848  -6101263.74846  23252701.7094   23252705.3614   23252701.6744
       168.0004        167.0004
 02  8  5  0 33  0.0010000  0  8G 3G25G31G20G 2G22G 1G13
  -9182947.55148  -6996769.67846  21986112.2314   21986118.5184   21986111.7944
       185.0004        184.0004
  17239936.51848  14109972.71346  23675579.7644   23675589.6474   23675579.4784
       175.0004        175.0004
  -2377848.00547  -1837289.49245  24259580.2274   24259588.2664   24259577.8794
       137.0004        136.0004
   6514972.92647   5435209.66345  24051544.6854   24051552.5234   24051544.5534
       162.0004        162.0004
  -5171074.50248  -3863867.42147  21590469.8214   21590475.8144   21590467.6094
       186.0004        188.0004
  -7625492.44049  -5731945.55247  20859562.5424   20859566.1464   20859562.2834
       197.0004        199.0004
 -11919373.88049  -8903642.59947  21303337.7544   21303341.3064   21303336.5584
       197.0004        197.0004
  -8090441.03848  -6140377.66846  23243147.8884   23243151.7684   23243148.3784
       168.0004        168.0004
 02  8  5  0 33 30.0010000  0  8G 3G25G31G20G 2G22G 1G13
  -9213794.15148  -7020805.86646  21980242.6064   21980249.2704   21980242.7904
       185.0004        185.0004
  17333477.37648  14182861.67046  23693380.2084   23693389.0914   23693380.0514
       171.0004        171.0004
  -2454938.90147  -1897360.21545  24244917.3754   24244919.5174   24244914.5094
       143.0004        142.0004
   6632080.15547   5526462.00646  24073830.8424   24073837.7174   24073829.9004
       163.0004        163.0004
  -5115125.77249  -3820270.92447  21601116.8054   21601122.3164   21601116.6624
       196.0004        197.0004
  -7535682.27149  -5661963.65247  20876651.2304   20876656.3234   20876649.6614
       206.0004        206.0004
 -11924610.29149  -8907722.87147  21302340.8514   21302344.8454   21302339.2544
       196.0004        196.0004
  -8140375.92548  -6179287.88846  23233644.5394   23233650.3974   23233645.1654
       168.0004        167.0004
 02  8  5  0 34  0.0010000  0  8G 3G25G31G20G 2G22G 1G13
  -9244188.51648  -7044489.73546  21974456.7324   21974463.6704   21974456.9624
       166.0004        168.0004
  17427196.50348  14255889.52146  23711213.5364   23711223.2054   23711213.4924
       172.0004        172.0004
  -2531961.24647  -1957377.47645  24230259.7454   24230263.7794   24230258.7314
       151.0004        150.0004
   6749378.29948   5617863.11146  24096153.1254   24096158.5664   24096151.6134
       166.0004        166.0004
  -5058903.51348  -3776461.43947  21611815.7184   21611820.9384   21611813.5204
       188.0004        189.0004
  -7445508.47449  -5591698.33647  20893814.1974   20893815.9624   20893812.8964
       197.0004        199.0004
 -11929353.59948  -8911418.92347  21301435.7484   21301441.5424   21301434.6074
       193.0004        193.0004
  -8190012.11348  -6217965.36746  23224200.4174   23224205.9254   23224200.3974
       170.0004        170.0004
 02  8  5  0 34 30.0020000  0  8G 3G25G31G20G 2G22G 1G13
  -9274114.88148  -7067808.97946  21968766.0274   21968768.7204   21968763.9414
       178.0004        177.0004
  17521111.89848  14329070.30646  23729083.3064   23729095.7474   23729084.7754
       172.0004        172.0004
  -2608899.99747  -2017329.63345  24215616.7944   24215620.7994   24215615.1294
       150.0004        150.0004
   6866882.40648   5709424.72946  24118513.2624   24118519.5064   24118511.2074
       167.0004        166.0004
  -5002392.99349  -3732427.16847  21622569.5664   21622574.5274   21622569.1824
       195.0004        196.0004
  -7354955.47549  -5521137.57547  20911041.2114   20911047.4504   20911040.4654
       206.0004        206.0004
 -11933587.31948  -8914717.90247  21300630.3944   21300635.4654   21300628.6254
       190.0004        190.0004
  -8239333.98848  -6256397.93146  23214815.5434   23214820.7134   23214815.4264
       170.0004        169.0004
 02  8  5  0 35  0.0020000  0  8G 3G25G31G20G 2G22G 1G13
  -9303644.20648  -7090818.69746  21963143.7874   21963150.4984   21963143.3274
       186.0004        186.0004
  17615141.91748  14402340.44146  23746978.1894   23746988.6164   23746978.0914
       171.0004        171.0004
  -2685822.93047  -2077269.49245  24200976.5244   24200983.2384   24200976.0504
       144.0004        145.0004
   6984506.04048   5801079.45646  24140897.0334   24140902.3844   24140894.9964
       166.0004        166.0004
  -4945674.63848  -3688231.12347  21633362.8644   21633367.6814   21633360.5634
       191.0004        191.0004
  -7264107.20149  -5450346.71847  20928333.8404   20928334.9644   20928332.5664
       197.0004        198.0004
 -11937384.82348  -8917676.95647  21299908.2594   21299913.0504   21299906.3454
       192.0004        192.0004
  -8288411.29248  -6294639.93246  23205476.5164   23205480.9324   23205476.3184
       169.0004        168.0004
 02  8  5  0 35 30.0020000  0  8G 3G25G31G20G 2G22G 1G13
  -9332696.22948  -7113456.54146  21957614.8814   21957622.2594   21957615.0144
       179.0004        180.0004
  17709368.89848  14475764.02846  23764908.1684   23764918.7394   23764908.7784
       169.0004        168.0004
  -2762650.78847  -2137135.25045  24186353.3394   24186362.3534   24186351.0554
       139.0004        139.0004
   7102328.77247   5892889.33046  24163318.8214   24163323.5714   24163316.2974
       163.0004        163.0004
  -4888669.45948  -3643811.40047  21644209.1414   21644215.4794   21644209.4794
       194.0004        196.0004
  -7172884.07849  -5379263.75247  20945688.1424   20945694.0644   20945687.5414
       205.0004        205.0004
 -11940665.23548  -8920233.08347  21299282.8494   21299289.3774   21299281.5464
       191.0004        191.0004
  -8337164.21048  -6332629.14846  23196196.1434   23196203.3974   23196196.8644
       168.0004        168.0004
 02  8  5  0 36  0.0020000  0  8G 3G25G31G20G 2G22G 1G13
  -9361313.54248  -7135755.72246  21952172.4344   21952175.9784   21952170.8284
       170.0004        171.0004
  17803748.06248  14549306.20046  23782867.8834   23782878.4724   23782868.3904
       169.0004        169.0004
  -2839426.07747  -2196960.07745  24171744.8824   24171751.0964   24171742.8264
       141.0004        141.0004
   7220302.09947   5984816.53545  24185769.3544   24185771.6564   24185766.8214
       162.0004        162.0004
  -4831423.88548  -3599204.54447  21655104.5494   21655108.7044   21655102.2514
       193.0004        193.0004
  -7081333.44349  -5307925.62647  20963114.4164   20963115.1914   20963112.5524
       197.0004        198.0004
 -11943472.11848  -8922420.23747  21298747.7564   21298754.9024   21298746.1604
       189.0004        190.0004
  -8385635.71648  -6370399.09946  23186973.1204   23186979.1634   23186973.4544
       168.0004        167.0004
 02  8  5  0 36 30.0020000  0  8G 3G25G31G20G 2G22G 1G13
  -9389506.72048  -7157724.40546  21946804.9034   21946811.7694   21946803.1224
       180.0004        180.0004
  17898267.21748  14622957.46746  23800854.8044   23800865.3524   23800855.7394
       170.0004        170.0004
  -2916158.85547  -2256751.74645  24157148.6414   24157151.9484   24157145.6704
       150.0004        148.0004
   7338409.90347   6076848.54245  24208243.2554   24208248.1884   24208241.9304
       163.0004        162.0004
  -4773952.45948  -3554421.50847  21666039.6944   21666045.0394   21666039.7424
       193.0004        195.0004
  -6989470.75049  -5236344.26547  20980590.7524   20980596.3464   20980590.3584
       204.0004        203.0004
 -11945816.46948  -8924246.98547  21298300.9984   21298308.8284   21298299.8704
       188.0004        188.0004
  -8433835.29748  -6407957.15146  23177800.8234   23177805.8284   23177801.0324
       167.0004        167.0004
 02  8  5  0 37  0.0020000  0  8G 3G25G31G20G 2G22G 1G13
  -9417272.19448  -7179359.73246  21941520.8034   21941527.2774   21941521.0154
       186.0004        186.0004
  17992927.51648  14696718.72646  23818867.7984   23818878.7334   23818868.5334
       171.0004        171.0004
  -2992845.17147  -2316507.21145  24142556.0554   24142559.3494   24142554.4904
       149.0004        150.0004
   7456650.26447   6168983.83545  24230743.8934   24230748.8574   24230742.0314
       161.0004        161.0004
  -4716255.06049  -3509462.58647  21677019.5454   21677024.7594   21677017.9734
       195.0004        194.0004
  -6897296.79449  -5164520.46347  20998134.4154   20998136.7814   20998132.5274
       199.0004        199.0004
 -11947695.15948  -8925710.86647  21297942.3864   21297950.9424   21297942.1084
       187.0004        188.0004
  -8481759.74648  -6445300.83546  23168682.9734   23168686.9464   23168682.3654
       169.0004        169.0004
 02  8  5  0 37 30.0020000  0  8G 3G25G31G20G 2G22G 1G13
  -9444638.55148  -7200684.01446  21936313.2364   21936318.8544   21936313.4574
       177.0004        178.0004
  18087697.56848  14770565.51346  23836901.8594   23836912.4644   23836902.9864
       171.0004        171.0004
  -3069513.28047  -2376248.49545  24127962.0934   24127969.0334   24127963.0004
       149.0004        148.0004
   7574988.73647   6261195.60645  24253263.6244   24253267.2554   24253262.2744
       160.0004        160.0004
  -4658364.79248  -3464353.18647  21688035.2614   21688041.0394   21688034.9984
       192.0004        194.0004
  -6804845.17449  -5092480.18347  21015724.0004   21015729.4164   21015723.8144
       201.0004        202.0004
 -11949137.64748  -8926834.84847  21297668.3014   21297676.8684   21297667.4234
       187.0004        188.0004
  -8529437.63848  -6482452.38146  23159610.7494   23159614.7844   23159610.8424
       172.0004        172.0004
 02  8  5  0 38  0.0020000  0  8G 3G25G31G20G 2G22G 1G13
  -9471493.25448  -7221609.79546  21931204.4134   21931209.8834   21931202.1774
       170.0004        171.0004
  18182688.28748  14844584.22246  23854978.3884   23854989.3434   23854979.0574
       172.0004        171.0004
  -3146050.26447  -2435887.57745  24113400.6584   24113404.4954   24113398.0814
       145.0004        145.0004
   7693532.16647   6353567.08345  24275822.3574   24275825.0644   24275820.2964
       158.0004        158.0004
  -4600172.61049  -3419008.72747  21699110.0284   21699114.5224   21699108.4484
       196.0004        196.0004
  -6712007.91349  -5020139.52947  21033392.4884   21033395.7454   21033390.6814
       201.0004        200.0004
 -11950031.98448  -8927531.71647  21297497.0444   21297506.8764   21297497.6584
       188.0004        188.0004
  -8576756.20248  -6519323.94646  23150605.3344   23150611.1794   23150605.5714
       173.0004        173.0004
 02  8  5  0 38 30.0020000  0  8G 3G25G31G20G 2G22G 1G13
  -9497897.65648  -7242184.57846  21926180.2864   21926184.7454   21926178.9074
       186.0004        186.0004
  18277836.37848  14918725.55846  23873084.9604   23873095.5474   23873085.2254
       174.0004        174.0004
  -3222516.51047  -2495471.59445  24098839.5474   24098851.7254   24098840.5084
       141.0004        142.0004
   7812214.27047   6446046.61945  24298406.8734   24298410.0614   24298404.3674
       161.0004        161.0004
  -4541743.51848  -3373479.46247  21710227.1044   21710232.9574   21710226.7104
       190.0004        192.0004
  -6618850.65549  -4947549.39847  21051118.3234   21051123.0504   21051118.1074
       198.0004        199.0004
 -11950439.41048  -8927849.17747  21297420.8954   21297429.2874   21297421.0364
       189.0004        190.0004
  -8623776.12448  -6555962.81146  23141656.4774   23141663.3414   23141656.7744
       171.0004        171.0004
 02  8  5  0 39  0.0020000  0  8G 3G25G31G20G 2G22G 1G13
  -9523838.14148  -7262397.78946  21921241.1634   21921247.6514   21921241.5044
       184.0004        184.0004
  18373153.42648  14992998.54746  23891222.5634   23891233.5864   23891223.5074
       174.0004        174.0004
  -3298898.05147  -2554989.58045  24084308.8824   24084316.3484   24084308.0624
       142.0004        142.0004
   7931042.71147   6538640.20446  24321018.2804   24321023.2214   24321017.1454
       163.0004        163.0004
  -4483067.67349  -3327758.12647  21721394.3754   21721398.8074   21721392.7884
       197.0004        197.0004
  -6525364.38049  -4874703.02747  21068908.3124   21068913.2344   21068906.8194
       202.0004        202.0004
 -11950347.08148  -8927777.20047  21297439.9144   21297446.8354   21297439.7824
       190.0004        191.0004
  -8670483.75348  -6592358.33746  23132768.2294   23132775.1434   23132768.4124
       171.0004        170.0004
 02  8  5  0 39 30.0020000  0  8G 3G25G31G20G 2G22G 1G13
  -9549341.97548  -7282270.81146  21916388.1484   21916395.3594   21916388.7734
       175.0004        176.0004
  18468609.97948  15067380.26746  23909387.4074   23909398.3714   23909388.2334
       174.0004        174.0004
  -3375221.82347  -2614462.55645  24069790.6444   24069795.6374   24069788.0674
       148.0004        148.0004
   8049984.44947   6631322.05045  24343650.9464   24343656.2934   24343649.2904
       162.0004        162.0004
  -4424176.47648  -3281868.79147  21732599.3884   21732605.6994   21732599.1364
       189.0004        192.0004
  -6431581.33449  -4801625.27447  21086756.6794   21086759.3984   21086755.9244
       197.0004        199.0004
 -11949782.89048  -8927337.55147  21297547.6364   21297554.2274   21297547.8794
       192.0004        192.0004
  -8716906.07848  -6628531.52746  23123934.4414   23123940.2564   23123935.1874
       171.0004        171.0004
 02  8  5  0 40  0.0020000  0  8G 3G25G31G20G 2G22G 1G13
  -9574299.52448  -7301718.26246  21911641.6784   21911645.5404   21911639.3654
       175.0004        175.0004
  18564313.58648  15141954.47246  23927599.1234   23927610.2484   23927599.2994
       172.0004        173.0004
  -3451377.78647  -2673804.74245  24055299.8644   24055301.7414   24055297.7584
       150.0004        150.0004
   8169143.52247   6724173.26045  24366328.1044   24366331.3994   24366325.7474
       161.0004        161.0004
  -4364963.95149  -3235729.26047  21743868.9284   21743873.0214   21743867.3484
       198.0004        198.0004
  -6337396.46549  -4728234.53247  21104676.5534   21104682.2804   21104675.3334
       204.0004        204.0004
 -11948637.83248  -8926445.27047  21297766.5944   21297772.0084   21297766.2914
       192.0004        192.0004
  -8762933.51248  -6664397.01346  23115176.5324   23115181.1934   23115177.4144
       172.0004        172.0004
 02  8  5  0 40 30.0020000  0  8G 3G25G31G20G 2G22G 1G13
  -9598759.97848  -7320778.25446  21906984.6144   21906990.1664   21906983.9274
       185.0004        184.0004
  18660213.25748  15216681.43546  23945848.1454   23945859.5884   23945848.8414
       172.0004        172.0004
  -3527414.19547  -2733053.75245  24040830.5004   24040832.2664   24040829.5634
       153.0004        153.0004
   8288465.73547   6817151.57245  24389032.0694   24389037.7684   24389030.7534
       160.0004        159.0004
  -4305482.89248  -3189380.29647  21755185.4044   21755191.8634   21755185.1964
       185.0004        189.0004
  -6242863.16449  -4654572.18147  21122669.3484   21122671.5294   21122668.4794
       196.0004        198.0004
 -11946961.23049  -8925138.80447  21298085.9504   21298090.7454   21298086.1624
       195.0004        194.0004
  -8808614.17548  -6699992.28046  23106485.2494   23106488.4784   23106485.1544
       173.0004        173.0004
 02  8  5  0 41  0.0020000  0  8G 3G25G31G20G 2G22G 1G13
  -9622794.04648  -7339505.93946  21902411.2644   21902416.6214   21902411.1894
       185.0004        185.0004
  18756236.02648  15291504.31546  23964121.4114   23964131.8204   23964121.7764
       170.0004        170.0004
  -3603401.45947  -2792264.51445  24026365.2424   24026372.6234   24026365.3364
       149.0004        149.0004
   8407874.41147   6910197.23945  24411751.4764   24411761.0704   24411752.2574
       159.0004        158.0004
  -4245807.80949  -3142880.32347  21766543.5064   21766547.2074   21766542.1354
       198.0004        198.0004
  -6148056.85449  -4580697.17547  21140706.3584   21140712.0444   21140705.4494
       204.0004        204.0004
 -11944824.54549  -8923473.82847  21298494.0634   21298497.7464   21298493.7864
       196.0004        196.0004
  -8854019.29348  -6735372.85146  23097845.5504   23097848.6324   23097844.6444
       173.0004        173.0004
 02  8  5  0 41 30.0020000  0  8G 3G25G31G20G 2G22G 1G13
  -9646372.25448  -7357878.50246  21897923.9764   21897931.0534   21897923.2174
       170.0004        172.0004
  18852409.19448  15366444.39946  23982423.0284   23982432.8284   23982423.0664
       170.0004        170.0004
  -3679309.39347  -2851413.47545  24011916.0604   24011925.3184   24011916.2594
       144.0004        144.0004
   8527393.99447   7003329.31645  24434494.2764   24434505.7244   24434494.9814
       157.0004        157.0004
  -4185912.80748  -3096208.83646  21777939.3244   21777945.2594   21777938.3824
       183.0004        187.0004
  -6052952.60949  -4506589.94647  21158809.2234   21158810.3724   21158807.7954
       196.0004        197.0004
 -11942198.84049  -8921427.79847  21298993.9044   21298997.3584   21298993.6364
       198.0004        198.0004
  -8899118.66648  -6770515.18246  23089261.4314   23089267.6034   23089261.9254
       176.0004        176.0004
 02  8  5  0 42  0.0020000  0  8G 3G25G31G20G 2G22G 1G13
  -9669467.82448  -7375875.09646  21893531.9194   21893534.1624   21893529.8574
       180.0004        180.0004
  18948757.60848  15441521.03946  24000756.4324   24000766.9914   24000757.6134
       168.0004        168.0004
  -3755110.64247  -2910479.27845  23997494.0734   23997502.1964   23997493.1634
       144.0004        144.0004
   8647045.36747   7096564.09345  24457261.6744   24457273.3344   24457263.7974
       156.0004        156.0004
  -4125775.08449  -3049348.32747  21789384.9074   21789389.1954   21789383.7074
       199.0004        200.0004
  -5957528.20949  -4432233.28747  21176962.5584   21176968.8944   21176961.8674
       205.0004        205.0004
 -11939057.85549  -8918980.25447  21299591.5514   21299594.9814   21299591.0604
       197.0004        197.0004
  -8943885.62948  -6805398.49846  23080743.8714   23080748.2914   23080743.3294
       177.0004        176.0004
 02  8  5  0 42 30.0020000  0  8G 3G25G31G20G 2G22G 1G13
  -9692102.68848  -7393512.47546  21889221.7374   21889227.4954   21889221.5664
       188.0004        187.0004
  19045257.85148  15516716.00246  24019120.2904   24019131.4664   24019120.3124
       167.0004        167.0004
  -3830826.29947  -2969478.45345  23983088.9774   23983094.2784   23983088.1024
       150.0004        149.0004
   8766801.71047   7189880.65145  24480051.9094   24480062.0574   24480053.1674
       155.0004        155.0004
  -4065419.92148  -3002318.29747  21800868.9694   21800874.3204   21800867.8484
       184.0004        188.0004
  -5861809.68449  -4357647.43047  21195182.7104   21195184.1644   21195181.0784
       196.0004        198.0004
 -11935424.07449  -8916148.71747  21300283.3164   21300286.4154   21300282.6354
       198.0004        197.0004
  -8988340.58648  -6840038.69646  23072285.2804   23072288.7014   23072285.0744
       178.0004        177.0004
 02  8  5  0 43  0.0020000  0  8G 3G25G31G20G 2G22G 1G13
  -9714303.57448  -7410811.74946  21884995.4084   21885003.1374   21884996.0934
       180.0004        181.0004
  19141881.13948  15592006.81146  24037507.9524   24037517.8204   24037508.4134
       169.0004        168.0004
  -3906482.59147  -3028431.28045  23968695.5564   23968697.2574   23968693.9734
       155.0004        154.0004
   8886630.53147   7283253.68945  24502856.9414   24502864.8534   24502856.1914
       155.0004        155.0004
  -4004878.08849  -2955142.86147  21812390.7954   21812395.1184   21812389.6594
       200.0004        200.0004
  -5765828.66049  -4282857.01747  21213441.6694   21213448.1774   21213440.9304
       204.0004        204.0004
 -11931324.69049  -8912954.37547  21301063.9514   21301066.1034   21301062.9464
       198.0004        197.0004
  -9032510.74048  -6874456.94946  23063880.5724   23063881.7294   23063880.7114
       177.0004        176.0004
 02  8  5  0 43 30.0020000  0  8G 3G25G31G20G 2G22G 1G13
  -9736013.71548  -7427728.73946  21880869.1604   21880871.8254   21880867.4064
       174.0004        175.0004
  19238681.84948  15667435.90146  24055929.5594   24055938.7614   24055929.5354
       171.0004        171.0004
  -3982022.35947  -3087293.32345  23954318.8794   23954324.1464   23954317.9944
       154.0004        154.0004
   9006583.03247   7376723.08845  24525684.9504   24525690.4904   24525682.7754
       155.0004        155.0004
  -3944096.49948  -2907780.58747  21823956.3604   21823961.5494   21823954.7904
       185.0004        188.0004
  -5669532.79549  -4207821.30347  21231771.3404   21231772.6254   21231769.5184
       197.0004        198.0004
 -11926703.64749  -8909353.54447  21301944.0724   21301945.7194   21301942.8584
       199.0004        199.0004
  -9076339.38948  -6908609.09446  23055539.7384   23055541.1444   23055539.5044
       177.0004        176.0004
 02  8  5  0 44  0.0020000  0  8G 3G25G31G20G 2G22G 1G13
  -9757211.24948  -7444246.23646  21876832.2234   21876837.6274   21876830.7154
       182.0004        182.0004
  19335680.10048  15743018.92746  24074386.1944   24074396.9334   24074386.6384
       170.0004        169.0004
  -4057422.99347  -3146047.00045  23939968.4354   23939972.1524   23939967.4814
       150.0004        150.0004
   9126675.68447   7470301.69545  24548541.7464   24548544.0714   24548538.3214
       155.0004        155.0004
  -3883057.05449  -2860217.36347  21835571.8684   21835576.9374   21835571.0954
       199.0004        200.0004
  -5572904.96249  -4132526.85247  21250153.9634   21250160.1344   21250153.2564
       203.0004        203.0004
 -11921539.69849  -8905329.66647  21302926.5594   21302928.1134   21302925.4704
       198.0004        198.0004
  -9119804.19348  -6942477.72446  23047268.1514   23047270.0014   23047268.0784
       175.0004        175.0004
 02  8  5  0 44 30.0020000  0  8G 3G25G31G20G 2G22G 1G13
  -9777943.67748  -7460401.25947  21872886.1284   21872893.3274   21872886.4334
       191.0004        191.0004
  19432826.17648  15818717.12546  24092872.1884   24092882.9544   24092872.8564
       166.0004        167.0004
  -4132730.91447  -3204728.40545  23925633.6764   23925642.9344   23925634.2984
       146.0004        146.0004
   9246855.91547   7563948.57345  24571411.3304   24571413.4324   24571407.8564
       157.0004        157.0004
  -3821810.13048  -2812492.51647  21847226.7044   21847231.6394   21847224.9044
       187.0004        189.0004
  -5475996.46249  -4057013.78947  21268599.1304   21268601.4834   21268597.5114
       198.0004        198.0004
 -11915880.53149  -8900919.90947  21304002.6184   21304004.7404   21304001.4484
       197.0004        197.0004
  -9162951.91748  -6976099.29046  23039057.0424   23039060.2914   23039056.7914
       176.0004        176.0004
 02  8  5  0 45  0.0020000  0  8G 3G25G31G20G 2G22G 1G13
  -9798172.16948  -7476163.61846  21869036.6534   21869043.1184   21869037.5044
       180.0004        182.0004
  19530157.45748  15894559.64646  24111395.2904   24111404.6554   24111394.5944
       167.0004        166.0004
  -4207906.49247  -3263306.73245  23911329.7294   23911338.3594   23911327.1864
       146.0004        146.0004
   9367157.18647   7657689.79045  24594305.3334   24594306.0154   24594301.7464
       158.0004        157.0004
  -3760320.66749  -2764578.59347  21858926.8284   21858932.6104   21858926.7524
       198.0004        199.0004
  -5378773.01649  -3981255.20947  21287096.1494   21287102.6394   21287095.8544
       202.0004        202.0004
 -11909687.82249  -8896094.40547  21305180.6094   21305183.6384   21305179.0024
       195.0004        195.0004
  -9205742.92648  -7009442.88746  23030913.8534   23030918.0014   23030913.9764
       177.0004        176.0004
 02  8  5  0 45 30.0020000  0  8G 3G25G31G20G 2G22G 1G13
  -9817857.50648  -7491502.88346  21865293.4984   21865297.0444   21865291.5024
       174.0004        174.0004
  19627710.99848  15970575.35446  24129959.0564   24129968.5574   24129959.5864
       167.0004        167.0004
  -4282910.20747  -3321751.10745  23897060.4224   23897065.3234   23897057.8964
       151.0004        151.0004
   9487613.23447   7751551.59145  24617225.8704   24617228.1904   24617224.0234
       158.0004        158.0004
  -3698553.33148  -2716448.25147  21870682.5324   21870686.6874   21870680.2824
       190.0004        191.0004
  -5281199.92949  -3905224.29847  21305667.7344   21305669.9744   21305665.4004
       200.0004        199.0004
 -11902923.23748  -8890823.28047  21306467.9374   21306470.3924   21306465.7504
       193.0004        194.0004
  -9248138.19648  -7042478.12146  23022848.2194   23022850.1294   23022847.3774
       178.0004        178.0004
 02  8  5  0 46  0.0020000  0  8G 3G25G31G20G 2G22G 1G13
  -9837107.27948  -7506502.59847  21861628.6654   21861633.6774   21861627.9634
       190.0004        189.0004
  19725377.61148  16046679.18446  24148545.9284   24148553.9964   24148545.3314
       168.0004        168.0004
  -4357848.59747  -3380144.57945  23882799.1954   23882806.1394   23882798.6294
       155.0004        155.0004
   9608111.23547   7845446.10945  24640156.1784   24640158.4634   24640153.6484
       156.0004        156.0004
  -3636619.26549  -2668187.85647  21882466.6274   21882472.3414   21882466.5254
       197.0004        198.0004
  -5183389.07349  -3829007.98847  21324276.5204   21324283.0664   21324276.6774
       201.0004        201.0004
 -11895694.50448  -8885190.47947  21307841.8254   21307846.2104   21307839.8784
       192.0004        192.0004
  -9290244.34848  -7075288.04946  23014835.0954   23014837.5534   23014834.2524
       178.0004        178.0004
 02  8  5  0 46 30.0020000  0  8G 3G25G31G20G 2G22G 1G13
  -9855815.99948  -7521080.69847  21858066.6354   21858073.9914   21858067.0944
       189.0004        189.0004
  19823260.50848  16122951.53246  24167171.5294   24167180.4604   24167171.6994
       166.0004        166.0004
  -4432615.52747  -3438404.44545  23868574.4334   23868576.8734   23868573.5854
       158.0004        157.0004
   9728751.41747   7939451.38645  24663113.1244   24663116.1124   24663110.2234
       157.0004        157.0004
  -3574416.50948  -2619718.25047  21894304.6114   21894308.8704   21894302.5934
       192.0004        192.0004
  -5085239.33749  -3752527.74547  21342956.7084   21342960.3784   21342954.5704
       201.0004        201.0004
 -11887896.87248  -8879114.37247  21309323.8624   21309330.3074   21309322.3054
       190.0004        190.0004
  -9331955.94048  -7107790.52646  23006896.3964   23006899.2824   23006895.3004
       177.0004        176.0004
 02  8  5  0 47  0.0020000  0  8G 3G25G31G20G 2G22G 1G13
  -9874047.18548  -7535286.78846  21854599.6884   21854604.0194   21854599.7034
       176.0004        178.0004
  19921294.46647  16199341.59546  24185829.1884   24185835.7324   24185827.8714
       163.0004        163.0004
  -4507273.78047  -3496579.60945  23854363.2394   23854370.2614   23854363.4644
       155.0004        155.0004
   9849464.81547   8033513.72045  24686080.0594   24686086.8374   24686079.3954
       153.0004        154.0004
  -3512012.40349  -2571091.57347  21906178.4204   21906183.6264   21906178.0544
       195.0004        196.0004
  -4986818.78249  -3675836.34447  21361683.4794   21361688.9934   21361683.5254
       200.0004        200.0004
 -11879594.42848  -8872644.90347  21310902.1464   21310909.8764   21310900.8744
       188.0004        189.0004
  -9373336.08548  -7140034.74346  22999019.9914   22999024.6834   22999019.5934
       175.0004        175.0004
 02  8  5  0 47 30.0020000  0  8G 3G25G31G20G 2G22G 1G13
  -9891798.07348  -7549118.61446  21851222.5084   21851226.0474   21851220.6784
       183.0004        183.0004
  20019480.19147  16275849.92546  24204515.4504   24204519.8174   24204514.4244
       163.0004        163.0004
  -4581819.41447  -3554667.06145  23840174.3864   23840183.3484   23840173.8594
       150.0004        150.0004
   9970249.42847   8127631.55845  24709063.2374   24709072.9074   24709062.8244
       153.0004        153.0004
  -3449407.00348  -2522308.22547  21918093.0224   21918097.0734   21918091.0934
       194.0004        194.0004
  -4888128.48149  -3598934.87047  21380464.5244   21380469.0984   21380462.9034
       202.0004        201.0004
 -11870784.82648  -8865780.24747  21312577.3054   21312586.5984   21312577.2484
       188.0004        188.0004
  -9414380.83548  -7172017.61046  22991210.7114   22991214.1904   22991209.5444
       175.0004        175.0004
 02  8  5  0 48  0.0020000  0  8G 3G25G31G20G 2G22G 1G13
  -9909020.97748  -7562538.96547  21847942.6314   21847949.2724   21847941.9794
       191.0004        190.0004
  20117863.80747  16352512.44246  24223237.5564   24223242.0444   24223235.4844
       164.0004        164.0004
  -4656203.95347  -3612628.97045  23826018.3724   23826029.4284   23826018.4034
       150.0004        149.0004
  10091147.52247   8221837.80645  24732065.5364   24732076.4714   24732067.4474
       151.0004        151.0004
  -3386556.25548  -2473333.50247  21930052.4774   21930057.2704   21930052.2154
       193.0004        194.0004
  -4789125.15049  -3521789.35647  21399304.1514   21399308.6714   21399303.8834
       198.0004        198.0004
 -11861420.72148  -8858483.51947  21314359.5754   21314367.9674   21314359.8574
       188.0004        188.0004
  -9455042.36248  -7203701.84746  22983472.7804   22983476.9254   22983471.9044
       176.0004        176.0004
 02  8  5  0 48 30.0020000  0  8G 3G25G31G20G 2G22G 1G13
  -9925819.98248  -7575628.99746  21844746.8034   21844751.6984   21844746.6964
       187.0004        187.0004
  20216339.41847  16429246.62446  24241977.4264   24241981.0174   24241976.5854
       163.0004        163.0004
  -4730530.59547  -3670545.78845  23811880.4854   23811887.0034   23811878.1064
       155.0004        154.0004
  10212049.63647   8316047.18745  24755072.3014   24755085.1244   24755074.5814
       152.0004        151.0004
  -3323567.67349  -2424251.57447  21942039.9274   21942043.7424   21942038.0944
       197.0004        197.0004
  -4689917.13149  -3444484.47647  21418182.5674   21418187.5784   21418180.6674
       201.0004        201.0004
 -11851606.89748  -8850836.35647  21316229.3574   21316235.8634   21316229.4454
       190.0004        191.0004
  -9495424.25048  -7235168.17546  22975789.1164   22975793.5994   22975787.3174
       177.0004        177.0004
 02  8  5  0 49  0.0020000  0  8G 3G25G31G20G 2G22G 1G13
  -9942155.25048  -7588357.75346  21841639.7794   21841643.7284   21841638.6044
       174.0004        176.0004
  20314945.02147  16506082.13445  24260742.9074   24260744.5224   24260740.6614
       159.0004        159.0004
  -4804758.82147  -3728385.87545  23797756.8614   23797759.5434   23797756.6774
       160.0004        160.0004
  10332990.53847   8410286.79245  24778090.9524   24778098.4994   24778089.2734
       153.0004        152.0004
  -3260405.25648  -2375033.99047  21954057.8634   21954063.1984   21954057.6764
       191.0004        193.0004
  -4590469.00849  -3366992.37947  21437107.9744   21437111.6094   21437107.9224
       196.0004        197.0004
 -11841304.02948  -8842808.13247  21318192.1154   21318196.6364   21318191.7564
       194.0004        194.0004
  -9535486.05748  -7266385.09846  22968162.8114   22968170.2604   22968162.2374
       177.0004        177.0004
 02  8  5  0 49 30.0020000  0  8G 3G25G31G20G 2G22G 1G13
  -9957940.58948  -7600658.01547  21838634.1704   21838639.6364   21838633.3984
       188.0004        188.0004
  20413764.90147  16583084.59745  24279549.2594   24279549.6694   24279546.6984
       159.0004        159.0004
  -4878801.60347  -3786081.43045  23783665.1834   23783671.3424   23783665.5404
       160.0004        160.0004
  10454051.14547   8504619.68345  24801130.1874   24801135.9434   24801126.6404
       153.0004        152.0004
  -3196986.15649  -2325616.59247  21966126.8584   21966131.1904   21966125.3784
       199.0004        199.0004
  -4490698.83949  -3289249.44447  21456091.8124   21456097.2304   21456090.1844
       200.0004        200.0004
 -11830426.61449  -8834332.21847  21320262.9004   21320266.5964   21320262.8004
       197.0004        197.0004
  -9575141.58348  -7297285.45546  22960615.2874   22960623.5564   22960614.8584
       175.0004        175.0004
 02  8  5  0 50  0.0020000  0  8G 3G25G31G20G 2G22G 1G13
  -9973231.44048  -7612572.83347  21835723.4884   21835729.6244   21835723.7914
       191.0004        191.0004
  20512742.16747  16660209.68745  24298383.5924   24298383.9394   24298381.2864
       160.0004        159.0004
  -4952713.01547  -3843674.64445  23769601.9684   23769603.9964   23769600.3844
       156.0004        157.0004
  10575171.27647   8598998.96445  24824180.3364   24824183.9994   24824177.7734
       153.0004        153.0004
  -3133368.95548  -2276044.64747  21978232.4434   21978237.3964   21978231.9464
       187.0004        190.0004
  -4390665.97248  -3211301.69747  21475129.7304   21475133.0524   21475129.4254
       194.0004        195.0004
 -11819030.40949  -8825452.05247  21322432.3394   21322434.6714   21322431.8874
       199.0004        199.0004
  -9614445.26048  -7327911.63046  22953135.0914   22953143.4234   22953135.1654
       174.0004        174.0004
 02  8  5  0 50 30.0020000  0  8G 3G25G31G20G 2G22G 1G13
  -9988020.29348  -7624096.53246  21832908.5504   21832915.6234   21832909.1514
       177.0004        179.0004
  20611882.11647  16737461.54245  24317247.8104   24317250.4574   24317246.5964
       161.0004        160.0004
  -5026484.83347  -3901159.12845  23755556.9974   23755567.8024   23755556.8244
       152.0004        152.0004
  10696353.37847   8693426.54345  24847241.5844   24847244.6204   24847238.6594
       155.0004        154.0004
  -3069549.61049  -2226315.35947  21990377.4144   21990381.6574   21990375.9964
       200.0004        200.0004
  -4290366.99849  -3133146.69847  21494213.1974   21494218.9784   21494211.6424
       201.0004        201.0004
 -11807108.46049  -8816162.21447  21324701.1584   21324703.4704   21324700.8114
       200.0004        199.0004
  -9653388.37048  -7358256.85046  22945724.8964   22945731.4424   22945724.5864
       172.0004        173.0004
 02  8  5  0 51  0.0020000  0  8G 3G25G31G20G 2G22G 1G13
 -10002240.48648  -7635177.25746  21830206.7204   21830209.2454   21830205.1534
       182.0004        181.0004
  20711249.64647  16814890.75245  24336155.7704   24336159.8494   24336154.7744
       160.0004        160.0004
  -5100049.46447  -3958482.19745  23741561.3414   23741569.0784   23741559.2154
       154.0004        154.0004
  10817658.32847   8787949.84645  24870325.4124   24870328.6434   24870323.1464
       155.0004        155.0004
  -3005464.92148  -2176379.16347  22002571.8194   22002576.8174   22002571.1754
       185.0004        189.0004
  -4189739.89148  -3054735.91447  21513365.3374   21513368.2114   21513364.7724
       194.0004        195.0004
 -11794594.83449  -8806411.33147  21327082.2364   21327084.7484   21327081.7424
       200.0004        200.0004
  -9691904.45148  -7388269.30346  22938395.5724   22938402.2914   22938395.7334
       174.0004        173.0004
 02  8  5  0 51 30.0020000  0  8G 3G25G31G20G 2G22G 1G13
 -10015978.08048  -7645881.78347  21827589.1744   21827595.1694   21827588.5594
       189.0004        189.0004
  20810757.43247  16892429.25245  24355088.8714   24355094.4954   24355088.8604
       156.0004        156.0004
  -5173491.62947  -4015709.74745  23727587.1144   23727593.3374   23727585.2524
       159.0004        158.0004
  10938995.77747   8882498.47745  24893415.1784   24893418.1414   24893412.5814
       153.0004        152.0004
  -2941204.08349  -2126305.81847  22014799.7734   22014805.2024   22014798.7344
       200.0004        200.0004
  -4088874.42049  -2976139.47947  21532555.9364   21532561.8544   21532554.2554
       202.0004        201.0004
 -11781575.71749  -8796266.55647  21329560.0564   21329562.1834   21329559.2424
       199.0004        199.0004
  -9730078.60748  -7418015.33046  22931131.1774   22931138.6074   22931131.9154
       174.0004        174.0004
 02  8  5  0 52  0.0020000  0  8G 3G25G31G20G 2G22G 1G13
 -10029192.91948  -7656178.96247  21825074.2384   21825080.0314   21825074.4134
       188.0004        188.0004
  20910443.88047  16970106.94345  24374055.5594   24374064.9024   24374058.1564
       157.0004        157.0004
  -5246770.37347  -4072809.96646  23713647.3444   23713647.9604   23713645.2934
       163.0004        163.0004
  11060400.58147   8977099.58445  24916516.2274   24916520.2774   24916514.8224
       153.0004        152.0004
  -2876730.34648  -2076066.52047  22027069.0964   22027074.3514   22027067.9604
       184.0004        188.0004
  -3987734.42948  -2897329.05447  21551806.6334   21551808.5504   21551805.4934
       193.0004        195.0004
 -11768011.61249  -8785697.10647  21332140.5024   21332142.8764   21332139.6894
       198.0004        197.0004
  -9767870.30348  -7447463.34346  22923941.8454   22923948.2074   22923941.6274
       178.0004        178.0004
 02  8  5  0 52 30.0020000  0  8G 3G25G31G20G 2G22G 1G13
 -10041931.24748  -7666104.88946  21822652.8564   21822656.4044   21822652.1774
       178.0004        179.0004
  21010260.56947  17047886.12745  24393050.6084   24393060.2074   24393051.5554
       160.0004        160.0004
  -5319931.01347  -4129818.11245  23699722.8344   23699724.3204   23699722.0824
       160.0004        160.0004
  11181821.31347   9071713.09845  24939619.4544   24939626.1294   24939617.9044
       149.0004        150.0004
  -2812093.49849  -2025700.14047  22039368.7354   22039373.9974   22039367.7614
       200.0004        201.0004
  -3886370.56549  -2818344.25447  21571090.4674   21571097.2744   21571089.2944
       202.0004        202.0004
 -11753949.34549  -8774739.47247  21334816.1494   21334819.0004   21334814.3304
       195.0004        195.0004
  -9805325.32848  -7476649.03446  22916814.2324   22916821.0474   22916814.2434
       179.0004        178.0004
 02  8  5  0 53  0.0020000  0  8G 3G25G31G20G 2G22G 1G13
 -10054136.17148  -7675615.25146  21820327.6404   21820334.0894   21820327.0194
       185.0004        184.0004
  21110262.61447  17125809.76145  24412078.2374   24412089.8724   24412080.0974
       162.0004        162.0004
  -5392915.70247  -4186689.20245  23685831.3894   23685837.7244   23685830.8624
       160.0004        160.0004
  11303309.64047   9166379.27545  24962734.0124   24962744.0564   24962735.0164
       146.0004        146.0004
  -2747239.77248  -1975164.77847  22051711.2254   22051715.4934   22051709.4244
       187.0004        189.0004
  -3784730.07948  -2739143.85247  21590437.7994   21590438.7594   21590436.4194
       193.0004        195.0004
 -11739332.64448  -8763349.80747  21337595.4734   21337600.3434   21337593.9434
       191.0004        192.0004
  -9842386.06348  -7505527.49446  22909761.3374   22909767.7474   22909762.5264
       181.0004        181.0004
 02  8  5  0 53 30.0020000  0  8G 3G25G31G20G 2G22G 1G13
 -10065842.50148  -7684736.96847  21818100.1754   21818106.0234   21818099.9634
       193.0004        192.0004
  21210413.90947  17203849.68645  24431136.1594   24431147.2044   24431137.0244
       160.0004        160.0004
  -5465757.89847  -4243449.23345  23671965.1124   23671976.9234   23671964.7224
       155.0004        155.0004
  11424826.27647   9261067.50045  24985855.4704   24985868.5814   24985858.2124
       144.0004        144.0004
  -2682207.40249  -1924490.16147  22064084.6944   22064090.4124   22064084.0214
       199.0004        199.0004
  -3682851.70949  -2659758.12847  21609818.6534   21609825.3234   21609817.7904
       202.0004        202.0004
 -11724196.64548  -8751555.47847  21340473.1484   21340480.4204   21340471.9824
       187.0004        188.0004
  -9879086.36048  -7534125.09146  22902780.5034   22902784.1024   22902780.9084
       183.0004        183.0004
 02  8  5  0 54  0.0020000  0  8G 3G25G31G20G 2G22G 1G13
 -10077050.66748  -7693470.47746  21815967.4214   21815973.0124   21815967.6424
       186.0004        187.0004
  21310712.62247  17282004.47145  24450221.9564   24450233.1354   24450222.9444
       161.0004        161.0004
  -5538456.87847  -4300097.74445  23658131.7794   23658141.6724   23658131.5514
       154.0004        154.0004
  11546365.92547   9355773.64545  25008988.8364   25008997.7304   25008988.3864
       149.0004        148.0004
  -2616999.44448  -1873678.82747  22076495.2624   22076499.1584   22076493.1804
       190.0004        191.0004
  -3580739.46748  -2580190.13947  21629255.8534   21629256.9344   21629254.4394
       193.0004        195.0004
 -11708542.25448  -8739357.20146  21343449.9984   21343459.5784   21343450.2564
       186.0004        187.0004
  -9915425.77748  -7562441.47746  22895867.7504   22895867.5524   22895867.3204
       185.0004        185.0004
 02  8  5  0 54 30.0020000  0  8G 3G25G31G20G 2G22G 1G13
 -10087668.49148  -7701744.13146  21813949.2914   21813952.5724   21813947.8004
       176.0004        177.0004
  21411248.84647  17360344.31945  24469355.2084   24469365.6964   24469355.1874
       162.0004        162.0004
  -5610919.46247  -4356562.00045  23644348.4404   23644351.6834   23644346.3454
       159.0004        158.0004
  11668015.73447   9450565.64745  25032142.3054   25032145.9114   25032139.9854
       151.0004        150.0004
  -2551527.48549  -1822661.63847  22088952.2624   22088958.1354   22088951.7764
       197.0004        198.0004
  -3478305.53349  -2500371.50247  21648742.4754   21648749.4184   21648741.4344
       202.0004        202.0004
 -11692277.95648  -8726683.67446  21346546.1724   21346554.6964   21346546.2964
       187.0004        187.0004
  -9951311.81248  -7590404.57846  22889039.1384   22889038.6674   22889038.4124
       187.0004        186.0004
 02  8  5  0 55  0.0020000  0  9G 3G25G31G20G 2G27G22G 1G13
 -10097776.99248  -7709620.83947  21812023.7684   21812028.5534   21812023.4524
       190.0004        190.0004
  21511940.12047  17438804.99646  24488516.1544   24488526.5664   24488517.2044
       164.0004        164.0004
  -5683225.40747  -4412904.17546  23630590.2854   23630590.6694   23630589.3024
       163.0004        163.0004
  11789689.78947   9545376.57145  25055297.5784   25055299.8654   25055293.4694
       151.0004        151.0004
  -2485875.39648  -1771504.24647  22101447.1434   22101451.5044   22101445.0814
       194.0004        194.0004
   -214314.83056    -67297.26344  25951015.5654   25951026.7224   25951014.7404
       124.0004        127.0004
  -3375634.71748  -2420368.25847  21668286.4494   21668287.3244   21668284.6274
       193.0004        195.0004
 -11675485.21048  -8713598.38347  21349743.6214   21349750.5174   21349744.1554
       190.0004        190.0004
  -9986824.82148  -7618077.01446  22882279.5414   22882281.6274   22882279.2364
       186.0004        186.0004
 02  8  5  0 55 30.0030000  0  9G 3G25G31G20G 2G27G22G 1G13
 -10107394.18248  -7717114.65147  21810191.9834   21810199.0144   21810192.1124
       190.0004        190.0004
  21612770.74647  17517374.26846  24507705.9384   24507714.4954   24507704.8174
       164.0004        163.0004
  -5755393.46947  -4469138.87846  23616854.9054   23616858.9784   23616855.1814
       164.0004        163.0004
  11911369.81347   9640192.13845  25078451.2424   25078454.6884   25078449.1784
       153.0004        152.0004
  -2420062.00149  -1720220.98247  22113969.2744   22113974.8794   22113969.2724
       195.0004        196.0004
   -253906.57546    -98147.94144  25943484.0434   25943492.1504   25943485.2314
       127.0004        127.0004
  -3272745.15549  -2340194.58047  21687859.6554   21687866.3044   21687858.3924
       202.0004        202.0004
 -11658181.44948  -8700114.90847  21353038.1974   21353042.8774   21353038.2874
       192.0004        192.0004
 -10021982.32148  -7645472.44446  22875588.8254   22875591.8004   22875587.9884
       184.0004        184.0004
 02  8  5  0 56  0.0030000  0  9G 3G25G31G20G 2G27G22G 1G13
 -10116441.76748  -7724164.68846  21808471.5774   21808477.4524   21808472.0454
       181.0004        182.0004
  21713809.42347  17596105.66345  24526933.5134   24526940.7124   24526932.9794
       160.0004        160.0004
  -5827340.29647  -4525201.21946  23603161.5394   23603169.1754   23603161.3874
       162.0004        163.0004
  12033120.09047   9735062.47845  25101622.5014   25101623.7724   25101618.4834
       154.0004        154.0004
  -2354017.23549  -1668757.61547  22126538.4794   22126542.7934   22126536.7124
       196.0004        196.0004
   -293536.39746   -129028.16744  25935948.6124   25935950.1594   25935946.3004
       127.0004        130.0004
  -3169570.06648  -2259798.40147  21707499.1324   21707500.0514   21707497.4884
       194.0004        195.0004
 -11640291.07349  -8686174.33347  21356443.9284   21356447.2704   21356443.8494
       196.0004        195.0004
 -10056704.35248  -7672528.52646  22868980.4664   22868985.0454   22868979.6004
       184.0004        183.0004
 02  8  5  0 56 30.0030000  0  9G 3G25G31G20G 2G27G22G 1G13
 -10124945.82548  -7730791.25446  21806855.8094   21806859.0014   21806854.0224
       183.0004        182.0004
  21815032.49147  17674980.73645  24546197.9284   24546203.2474   24546197.4974
       156.0004        156.0004
  -5899092.73547  -4581112.14545  23589503.2104   23589514.6094   23589504.1764
       159.0004        159.0004
  12154914.60747   9829967.24645  25124795.0784   25124800.4434   25124793.0794
       150.0004        150.0004
  -2287767.74848  -1617134.54347  22139143.8024   22139149.9224   22139143.8944
       193.0004        194.0004
   -333232.91046   -159960.36544  25928386.2974   25928393.7354   25928386.0754
       129.0004        129.0004
  -3066135.77049  -2179200.24947  21727175.6904   21727182.4194   21727175.1274
       202.0004        202.0004
 -11621839.77449  -8671796.69147  21359956.5984   21359958.7494   21359955.9884
       198.0004        197.0004
 -10091016.70548  -7699265.37046  22862450.3954   22862455.0434   22862449.3214
       182.0004        182.0004
 02  8  5  0 57  0.0030000  0  9G 3G25G31G20G 2G27G22G 1G13
 -10132886.06148  -7736978.41147  21805341.7684   21805347.6974   21805341.4444
       191.0004        190.0004
  21916459.17547  17754014.46445  24565501.1954   24565503.0934   24565498.8454
       154.0004        154.0004
  -5970628.90947  -4636854.54445  23575895.2934   23575901.6694   23575893.5894
       160.0004        160.0004
  12276768.75047   9924918.48945  25147978.6724   25147987.4824   25147978.7754
       149.0004        149.0004
  -2221295.83649  -1565338.33047  22151795.0584   22151799.1354   22151792.8164
       199.0004        199.0004
   -372977.10046   -190929.79644  25920825.1644   25920831.6034   25920823.2824
       131.0004        131.0004
  -2962425.29848  -2098386.89147  21746917.5434   21746918.4534   21746915.8294
       194.0004        195.0004
 -11602807.47449  -8656966.32447  21363578.0354   21363580.5154   21363577.5904
       198.0004        198.0004
 -10124898.18148  -7725666.45846  22856002.7214   22856006.9534   22856001.0374
       181.0004        181.0004
 02  8  5  0 57 30.0030000  0  9G 3G25G31G20G 2G27G22G 1G13
 -10140259.54848  -7742723.89147  21803938.8224   21803944.4714   21803938.8534
       189.0004        189.0004
  22018090.41347  17833207.59445  24584842.0984   24584843.7924   24584839.7604
       156.0004        156.0004
  -6041944.95847  -4692425.35546  23562325.6554   23562329.8454   23562325.0334
       163.0004        163.0004
  12398680.47347  10019914.57145  25171175.6034   25171186.7554   25171177.5744
       143.0004        142.0004
  -2154602.13348  -1513369.12847  22164485.1174   22164490.3364   22164485.0354
       191.0004        193.0004
   -412767.51047   -221935.23045  25913257.3944   25913261.1164   25913257.0174
       137.0004        136.0004
  -2858440.01149  -2017359.38147  21766698.9734   21766705.8824   21766698.0914
       202.0004        202.0004
 -11583191.83949  -8641681.41147  21367310.8894   21367313.1154   21367310.0074
       196.0004        196.0004
 -10158345.14848  -7751728.95146  22849635.1854   22849641.2734   22849635.1374
       180.0004        180.0004
 02  8  5  0 58  0.0030000  0  9G 3G25G31G20G 2G27G22G 1G13
 -10147090.90048  -7748047.00346  21802641.0344   21802644.7204   21802640.2214
       177.0004        178.0004
  22119899.65647  17912539.44645  24604216.2824   24604217.3464   24604213.9134
       155.0004        155.0004
  -6113064.52448  -4747843.06846  23548793.8424   23548796.8424   23548792.6284
       166.0004        166.0004
  12520620.36147  10114932.62245  25194383.7674   25194389.2574   25194383.5874
       143.0004        142.0004
  -2087714.69849  -1461249.12147  22177213.6264   22177218.1914   22177212.1304
       199.0004        199.0004
   -452630.92947   -252997.54245  25905670.3494   25905674.7664   25905669.0374
       138.0004        138.0004
  -2754208.40048  -1936139.93047  21786540.1164   21786540.8034   21786538.5244
       194.0004        196.0004
 -11563018.34248  -8625961.79547  21371149.9714   21371151.6794   21371148.0654
       194.0004        194.0004
 -10191381.81648  -7777471.74146  22843347.0884   22843354.6614   22843347.2254
       179.0004        179.0004
 02  8  5  0 58 30.0030000  0  9G 3G25G31G20G 2G27G22G 1G13
 -10153431.31448  -7752987.62346  21801433.5614   21801437.7474   21801432.4954
       186.0004        186.0004
  22221834.26947  17991968.97445  24623608.7484   24623614.5784   24623608.9454
       153.0004        153.0004
  -6184037.27348  -4803146.38846  23535285.2924   23535291.0004   23535285.5874
       165.0004        165.0004
  12642532.60847  10209929.15145  25217587.2134   25217591.1314   25217584.4064
       146.0004        146.0004
  -2020687.37448  -1409019.97247  22189969.4214   22189973.5294   22189968.6864
       188.0004        191.0004
   -492619.51447   -284157.39845  25898050.5854   25898065.1904   25898054.3654
       137.0004        137.0004
  -2649785.39449  -1854771.34247  21806404.3154   21806411.4314   21806403.6994
       202.0004        201.0004
 -11542338.52448  -8609847.63547  21375082.6914   21375087.2144   21375080.7044
       190.0004        190.0004
 -10224058.47448  -7802933.99946  22837127.9944   22837135.6354   22837128.8954
       178.0004        178.0004
 02  8  5  0 59  0.0030000  0  9G 3G25G31G20G 2G27G22G 1G13
 -10159270.81848  -7757537.78047  21800320.1064   21800326.1764   21800320.1134
       191.0004        191.0004
  22323903.40447  18071503.27645  24643029.5564   24643037.3874   24643030.9494
       156.0004        156.0004
  -6254851.49047  -4858326.20646  23521807.6694   23521814.5414   23521807.9144
       163.0004        163.0004
  12764422.80847  10304908.44545  25240785.3484   25240785.1484   25240779.9964
       145.0004        145.0004
  -1953512.84149  -1356676.23447  22202750.8364   22202756.6974   22202749.9594
       201.0004        201.0004
   -532724.55647   -315407.99645  25890432.7824   25890433.3214   25890428.1394
       140.0004        140.0004
  -2545164.29348  -1773248.40747  21826319.6424   21826320.2914   21826317.9894
       192.0004        194.0004
 -11521142.55148  -8593331.26246  21379113.4304   21379120.6804   21379111.5304
       186.0004        186.0004
 -10256363.76848  -7828106.88046  22830980.9014   22830988.6664   22830981.9884
       178.0004        178.0004
 02  8  5  0 59 30.0030000  0  9G 3G25G31G20G 2G27G22G 1G13
 -10164558.48748  -7761657.96546  21799314.3184   21799320.2764   21799314.2784
       183.0004        184.0004
  22426155.99247  18151180.56045  24662485.1034   24662495.8264   24662486.9424
       159.0004        159.0004
  -6325454.93647  -4913341.82245  23508368.6354   23508379.1874   23508368.9794
       160.0004        160.0004
  12886337.19247  10399906.61745  25263981.2874   25263984.3824   25263980.3844
       147.0004        146.0004
  -1886143.16348  -1304180.34047  22215572.1394   22215577.0164   22215571.4594
       188.0004        192.0004
   -572896.48847   -346710.67745  25882784.2004   25882787.6794   25882783.9894
       139.0004        139.0004
  -2440298.21349  -1691534.57947  21846268.0194   21846275.5504   21846267.2464
       200.0004        200.0004
 -11499380.16048  -8576373.52846  21383251.8294   21383261.5194   21383251.3794
       183.0004        184.0004
 -10288245.91448  -7852950.04846  22824915.8864   22824922.5144   22824916.7494
       182.0004        182.0004
 02  8  5  1  0  0.0030000  0  9G 3G25G31G20G 2G27G22G 1G13
 -10169289.69848  -7765344.69746  21798418.5704   21798419.9044   21798416.6974
       178.0004        178.0004
  22528595.02647  18231003.11045  24681979.4474   24681989.5564   24681979.5754
       160.0004        160.0004
  -6395842.03247  -4968188.82145  23494980.4924   23494984.7754   23494978.3634
       163.0004        162.0004
  13008275.63447  10494923.54545  25287187.0214   25287189.1064   25287184.5484
       148.0004        147.0004
  -1818577.15949  -1251531.53747  22228428.4184   22228433.9104   22228427.3384
       201.0004        202.0004
   -613132.31347   -378063.21145  25875119.7294   25875133.8704   25875120.9244
       139.0004        138.0004
  -2335186.08848  -1609629.01547  21866277.1624   21866277.5324   21866275.5194
       190.0004        192.0004
 -11477047.45648  -8558971.38046  21387501.5994   21387511.3104   21387502.1094
       184.0004        184.0004
 -10319700.13848  -7877459.78246  22818933.6174   22818937.5144   22818933.7464
       186.0004        186.0004
 02  8  5  1  0 30.0030000  0  9G 3G25G31G20G 2G27G22G 1G13
 -10173443.28248  -7768581.21347  21797623.6094   21797629.8944   21797622.9614
       189.0004        189.0004
  22631240.87847  18310986.82945  24701511.1514   24701523.1024   24701511.6444
       159.0004        159.0004
  -6465989.75148  -5022849.22446  23481632.9304   23481637.2364   23481632.0744
       168.0004        168.0004
  13130255.13947  10589972.44745  25310393.7684   25310400.7954   25310394.4764
       148.0004        148.0004
  -1750795.88348  -1198714.95747  22241329.2344   22241332.4324   22241327.1524
       187.0004        190.0004
   -653411.92647   -409449.86045  25867463.2734   25867468.0814   25867461.6964
       142.0004        142.0004
  -2229810.41949  -1527518.09047  21886322.7444   21886329.6174   21886321.9024
       198.0004        198.0004
 -11454123.33448  -8541108.40646  21391866.4454   21391874.0724   21391866.8074
       187.0004        187.0004
 -10350703.70048  -7901618.36847  22813034.1134   22813038.1274   22813034.3934
       189.0004        188.0004
 02  8  5  1  1  0.0030000  0  9G 3G25G31G20G 2G27G22G 1G13
 -10177094.80448  -7771426.46547  21796927.7204   21796934.4024   21796927.7574
       189.0004        189.0004
  22734016.31047  18391071.51245  24721070.7864   24721079.1694   24721070.4464
       158.0004        158.0004
  -6535972.84948  -5077381.36546  23468315.7554   23468319.3074   23468315.6874
       171.0004        170.0004
  13252195.10847  10684990.53445  25333593.9204   25333606.7984   25333597.5094
       144.0004        144.0004
  -1682878.51949  -1145792.33347  22254250.1744   22254256.3094   22254249.8854
       200.0004        201.0004
   -693812.59247   -440930.82645  25859773.8434   25859779.6194   25859773.3944
       147.0004        146.0004
  -2124250.58748  -1445263.65147  21906416.8174   21906417.6744   21906415.1344
       190.0004        191.0004
 -11430684.50848  -8522844.37847  21396329.8014   21396334.3564   21396329.6934
       191.0004        191.0004
 -10381331.73148  -7925484.33747  22807205.9494   22807208.8354   22807206.3244
       189.0004        189.0004
 02  8  5  1  1 30.0030000  0  9G 3G25G31G20G 2G27G22G 1G13
 -10180125.63348  -7773788.12446  21796353.6644   21796358.2594   21796353.7054
       180.0004        181.0004
  22837038.40447  18471348.38445  24740677.2184   24740684.1604   24740676.7314
       157.0004        157.0004
  -6605670.96248  -5131691.45446  23455049.5784   23455055.4584   23455049.7814
       165.0004        165.0004
  13374209.62347  10780066.73745  25356818.6924   25356825.0294   25356815.5374
       149.0004        147.0004
  -1614708.82148  -1092673.11547  22267226.0694   22267229.0324   22267223.9024
       190.0004        192.0004
   -734216.71947   -472414.53245  25852081.4794   25852091.5894   25852080.6094
       145.0004        145.0004
  -2018391.62449  -1362776.15447  21926554.1194   21926561.5204   21926553.1284
       198.0004        198.0004
 -11406612.55048  -8504087.01847  21400912.5824   21400914.7844   21400912.0304
       194.0004        194.0004
 -10411464.82448  -7948964.64047  22801472.7394   22801473.9974   22801472.3204
       189.0004        189.0004
 02  8  5  1  2  0.0030000  0  9G 3G25G31G20G 2G27G22G 1G13
 -10182651.28448  -7775756.21946  21795874.7094   21795877.5354   21795872.3834
       182.0004        182.0004
  22940190.17047  18551726.31345  24760308.4704   24760313.9634   24760307.9094
       156.0004        156.0004
  -6675198.03847  -5185868.29145  23441815.0414   23441823.9254   23441815.2494
       160.0004        160.0004
  13496178.82847  10875107.61345  25380032.4814   25380034.9324   25380027.7124
       148.0004        148.0004
  -1546405.37149  -1039449.60747  22280220.7304   22280226.4434   22280220.3184
       201.0004        202.0004
   -774741.02447   -503991.87245  25844372.6114   25844378.0754   25844371.6014
       148.0004        147.0004
  -1912352.37848  -1280148.14847  21946740.3594   21946740.2434   21946738.5424
       188.0004        190.0004
 -11382023.47649  -8484926.71447  21405591.6664   21405593.8654   21405591.1924
       196.0004        196.0004
 -10441217.14548  -7972148.23047  22795810.4334   22795812.1244   22795810.0804
       188.0004        188.0004
 02  8  5  1  2 30.0030000  0  9G 3G25G31G20G 2G27G22G 1G13
 -10184638.70148  -7777304.78647  21795492.6624   21795499.3864   21795492.4254
       192.0004        192.0004
  23043503.51247  18632230.16045  24779972.2584   24779974.9644   24779969.8274
       153.0004        153.0004
  -6744519.66847  -5239885.06645  23428624.3984   23428634.0754   23428623.9034
       161.0004        161.0004
  13618131.08847  10970135.25245  25403235.2294   25403241.5324   25403235.2504
       147.0004        147.0004
  -1477937.55648   -986098.11347  22293252.0974   22293255.8574   22293250.0624
       194.0004        194.0004
   -815353.90147   -535638.19245  25836647.4504   25836650.7514   25836645.5604
       151.0004        151.0004
  -1806103.48449  -1197356.81347  21966951.2464   21966958.4054   21966950.2224
       197.0004        197.0004
 -11356884.77749  -8465338.12947  21410375.3744   21410377.6324   21410374.6704
       196.0004        196.0004
 -10470555.10348  -7995008.95246  22790227.9014   22790229.3464   22790226.9664
       187.0004        187.0004
 02  8  5  1  3  0.0030000  0  9G 3G25G31G20G 2G27G22G 1G13
 -10186090.65248  -7778436.06647  21795216.2724   21795222.8164   21795217.1184
       190.0004        190.0004
  23146973.80747  18712856.31545  24799662.9104   24799663.7374   24799660.6454
       154.0004        154.0004
  -6813637.11048  -5293742.71646  23415478.8594   23415481.4154   23415476.6164
       168.0004        167.0004
  13740059.65747  11065144.50145  25426437.0614   25426443.7444   25426437.3624
       145.0004        145.0004
  -1409311.49349   -932623.19347  22306308.9584   22306314.7604   22306308.6024
       201.0004        201.0004
   -856059.21447   -567356.57645  25828894.3974   25828904.7994   25828894.7264
       148.0004        149.0004
  -1699651.16448  -1114406.92547  21987215.2814   21987215.7884   21987213.8914
       187.0004        189.0004
 -11331199.74349  -8445323.82647  21415263.1204   21415265.5334   21415261.5844
       195.0004        195.0004
 -10499480.27748  -8017548.01546  22784721.9984   22784725.7384   22784720.8154
       185.0004        185.0004
 02  8  5  1  3 30.0030000  0  9G 3G25G31G20G 2G27G22G 1G13
 -10186970.49648  -7779121.66746  21795052.9964   21795055.7114   21795052.1074
       174.0004        177.0004
  23250636.98847  18793632.73445  24819386.1434   24819389.9044   24819385.3344
       154.0004        153.0004
  -6882512.11548  -5347411.44146  23402370.7684   23402374.0724   23402370.7434
       171.0004        171.0004
  13861996.59147  11160160.27545  25449644.4994   25449648.0884   25449641.7854
       148.0004        148.0004
  -1340492.77549   -878998.28947  22319406.6294   22319410.7414   22319404.8284
       197.0004        196.0004
   -896821.25147   -599119.18645  25821141.7984   25821147.7034   25821140.5024
       151.0004        151.0004
  -1592962.35149  -1031272.79547  22007510.7714   22007518.1034   22007509.6394
       197.0004        197.0004
 -11304932.14448  -8424855.56147  21420259.9664   21420264.2314   21420257.9414
       191.0004        192.0004
 -10527955.18148  -8039736.21546  22779300.6314   22779308.1924   22779300.2574
       184.0004        184.0004
 02  8  5  1  4  0.0030000  0  9G 3G25G31G20G 2G27G22G 1G13
 -10187292.65848  -7779372.76447  21794988.6674   21794993.9184   21794987.7134
       189.0004        189.0004
  23354477.10147  18874547.00545  24839141.1474   24839149.9474   24839143.3444
       154.0004        154.0004
  -6951157.48248  -5400901.16946  23389308.0114   23389310.9344   23389308.0794
       172.0004        172.0004
  13983923.05647  11255167.86745  25472845.1394   25472849.2954   25472841.6184
       147.0004        147.0004
  -1271498.85949   -825236.71747  22332533.7614   22332539.4544   22332533.6234
       199.0004        199.0004
   -937655.52847   -630938.05645  25813374.8154   25813378.4724   25813372.3584
       152.0004        152.0004
  -1486054.72048   -947968.11747  22027861.7424   22027861.7814   22027860.1984
       188.0004        189.0004
 -11278096.96848  -8403945.01447  21425363.2414   21425370.8214   21425361.8174
       188.0004        189.0004
 -10555993.03248  -8061583.85646  22773962.5194   22773972.7474   22773963.3654
       183.0004        183.0004
 02  8  5  1  4 30.0030000  0  9G 3G25G31G20G 2G27G22G 1G13
 -10187098.06648  -7779221.02347  21795024.3714   21795030.9564   21795024.4594
       193.0004        193.0004
  23458451.86347  18955566.21345  24858924.1714   24858936.3854   24858926.9714
       157.0004        157.0004
  -7019612.53947  -5454242.63646  23376278.0704   23376283.7384   23376277.8924
       164.0004        165.0004
  14105793.70247  11350131.95945  25496031.5374   25496042.1174   25496031.4494
       144.0004        145.0004
  -1202372.96549   -771372.46447  22345689.5774   22345693.6444   22345687.6284
       198.0004        198.0004
   -978604.07647   -662845.98645  25805575.1494   25805584.3564   25805575.1224
       148.0004        148.0004
  -1378972.60149   -864527.53847  22048232.1554   22048238.7434   22048230.7324
       196.0004        196.0004
 -11250735.50148  -8382624.35146  21430566.8814   21430577.3354   21430566.3304
       185.0004        186.0004
 -10583633.97748  -8083122.21046  22768703.4564   22768711.7614   22768703.7874
       182.0004        182.0004
 02  8  5  1  5  0.0030000  0  9G 3G25G31G20G 2G27G22G 1G13
 -10186338.83148  -7778629.33946  21795169.9834   21795175.7994   21795170.0654
       183.0004        185.0004
  23562607.78947  19036726.59645  24878744.5924   24878756.7284   24878743.3814
       156.0004        156.0004
  -7087827.77647  -5507397.28545  23363291.6094   23363303.8674   23363291.7124
       160.0004        161.0004
  14227652.37947  11445086.68245  25519214.9724   25519230.4504   25519220.4384
       145.0004        144.0004
  -1133070.18249   -717370.20647  22358876.1974   22358881.7064   22358875.8024
       196.0004        197.0004
  -1019620.17147   -694806.59845  25797773.3894   25797779.0394   25797772.1204
       150.0004        150.0004
  -1271671.52448   -780916.26447  22068657.1354   22068657.8864   22068655.9334
       188.0004        190.0004
 -11222800.44648  -8360856.73146  21435883.6214   21435893.2184   21435883.9734
       187.0004        187.0004
 -10610828.82348  -8104312.97446  22763529.4254   22763535.5304   22763530.3984
       182.0004        182.0004
 02  8  5  1  5 30.0030000  0  9G 3G25G31G20G 2G27G22G 1G13
 -10185015.41048  -7777598.20546  21795426.2794   21795427.6634   21795423.4304
       180.0004        180.0004
  23666943.34647  19118026.93945  24898600.4624   24898609.8454   24898600.0754
       156.0004        156.0004
  -7155802.22148  -5560364.32246  23350364.3484   23350368.6774   23350362.1704
       166.0004        165.0004
  14349494.13547  11540028.23945  25542414.1284   25542416.3584   25542409.1684
       144.0004        143.0004
  -1063593.57149   -663232.66547  22372098.2614   22372102.6744   22372096.1714
       200.0004        200.0004
  -1060705.24147   -726820.87345  25789959.4384   25789960.9644   25789957.6274
       151.0004        151.0004
  -1164155.52149   -697137.61547  22089109.7174   22089117.1044   22089108.5724
       196.0004        196.0004
 -11194292.77548  -8338642.92847  21441312.6614   21441317.8514   21441312.4504
       190.0004        191.0004
 -10637577.56448  -8125156.12746  22758443.0774   22758445.1794   22758443.1634
       185.0004        185.0004
 02  8  5  1  6  0.0030000  0  9G 3G25G31G20G 2G27G22G 1G13
 -10183146.40348  -7776141.77347  21795777.2414   21795782.8284   21795776.1634
       193.0004        193.0004
  23771438.64747  19199451.75745  24918486.4084   24918495.2884   24918486.3644
       154.0004        155.0004
  -7223552.67948  -5613156.72946  23337473.4374   23337475.1814   23337472.5094
       172.0004        171.0004
  14471296.19247  11634938.84445  25565593.6484   25565593.6614   25565588.8294
       142.0004        141.0004
   -993964.36648   -608976.05647  22385347.3964   22385352.8764   22385346.9344
       193.0004        195.0004
  -1101878.54747   -758903.91545  25782116.3564   25782127.5544   25782115.3994
       147.0004        148.0004
  -1056446.27548   -613208.29447  22109611.8444   22109613.8024   22109611.3484
       187.0004        189.0004
 -11165231.38549  -8315997.67547  21446845.0684   21446848.5784   21446844.7914
       196.0004        196.0004
 -10663896.98548  -8145664.74247  22753436.0514   22753437.3134   22753435.8604
       189.0004        189.0004
 02  8  5  1  6 30.0030000  0  9G 3G25G31G20G 2G27G22G 1G13
 -10180710.57248  -7774243.61547  21796240.3614   21796246.4834   21796240.4274
       191.0004        191.0004
  23876113.48447  19281016.49345  24938408.9814   24938415.3174   24938408.6794
       154.0004        154.0004
  -7291056.25848  -5665756.75746  23324625.6384   23324629.4584   23324626.1354
       172.0004        172.0004
  14593075.70047  11729831.87545  25588764.1594   25588768.0144   25588761.6644
       143.0004        143.0004
   -924163.75949   -554586.04447  22398629.2924   22398635.2514   22398628.1754
       200.0004        200.0004
  -1143120.22647   -791040.26845  25774270.9884   25774278.6634   25774270.3924
       147.0004        147.0004
   -948525.97449   -529114.60747  22130143.3064   22130150.1224   22130141.8664
       196.0004        195.0004
 -11135595.57249  -8292904.83947  21452485.5944   21452488.3014   21452485.2094
       199.0004        199.0004
 -10689765.20548  -8165821.77847  22748513.5074   22748514.8124   22748513.5814
       191.0004        190.0004
 02  8  5  1  7  0.0030000  0  9G 3G25G31G20G 2G27G22G 1G13
 -10177699.15548  -7771897.05246  21796816.7634   21796819.6664   21796816.2084
       178.0004        180.0004
  23980975.23347  19362726.87745  24958366.6094   24958369.0644   24958364.4524
       149.0004        150.0004
  -7358302.75848  -5718156.47546  23311827.8964   23311834.2504   23311828.3664
       172.0004        172.0004
  14714836.72347  11824710.51545  25611929.6344   25611938.7924   25611929.7844
       143.0004        143.0004
   -854185.95248   -500057.80947  22411946.9584   22411951.6014   22411946.7054
       191.0004        193.0004
  -1184422.64647   -823223.91845  25766416.1574   25766418.2314   25766414.3664
       150.0004        150.0004
   -840389.27248   -444852.19147  22150725.3574   22150728.4804   22150724.7804
       190.0004        191.0004
 -11105377.52349  -8269358.31147  21458236.1424   21458238.3674   21458235.4784
       201.0004        201.0004
 -10715172.61248  -8185619.72047  22743678.8634   22743680.7754   22743678.1754
       191.0004        191.0004
 02  8  5  1  7 30.0030000  0  9G 3G25G31G20G 2G27G22G 1G13
 -10174142.46848  -7769125.66046  21797492.5144   21797496.3934   21797490.3634
       188.0004        187.0004
  24085992.19947  19444558.26745  24978351.4384   24978354.1124   24978349.6334
       149.0004        149.0004
  -7425320.74648  -5770378.19246  23299069.9514   23299081.0334   23299071.2834
       167.0004        167.0004
  14836545.11547  11919548.12745  25635085.4914   25635099.0334   25635087.9264
       141.0004        141.0004
   -784063.65549   -445417.11047  22425289.6714   22425295.5474   22425288.2434
       201.0004        202.0004
  -1225816.82047   -855479.05645  25758533.9334   25758540.4794   25758532.8224
       145.0004        146.0004
   -732069.70649   -360447.41447  22171334.2464   22171341.0634   22171332.4924
       197.0004        197.0004
 -11074607.91249  -8245381.99147  21464091.4484   21464093.4074   21464090.1914
       199.0004        199.0004
 -10740148.44448  -8205081.37347  22738925.5194   22738927.7984   22738924.4754
       188.0004        188.0004
 02  8  5  1  8  0.0030000  0  9G 3G25G31G20G 2G27G22G 1G13
 -10169996.37948  -7765894.85047  21798278.2684   21798284.9044   21798278.3894
       194.0004        194.0004
  24191207.92047  19526544.43645  24998371.3114   24998375.4074   24998369.9964
       151.0004        150.0004
  -7492064.20148  -5822386.00446  23286372.7044   23286378.9884   23286370.3344
       166.0004        166.0004
  14958240.91147  12014375.97645  25658252.9214   25658258.8514   25658249.3134
       142.0004        141.0004
   -713755.01948   -390631.11747  22438670.6814   22438674.7984   22438669.8854
       189.0004        192.0004
  -1267259.21547   -887771.84045  25750646.2534   25750655.6544   25750647.0954
       149.0004        148.0004
   -623526.27248   -275868.06947  22191991.9344   22191996.3714   22191991.7224
       193.0004        195.0004
 -11043242.76249  -8220941.60147  21470057.8124   21470062.0674   21470056.4034
       196.0004        196.0004
 -10764647.54148  -8224171.53946  22734261.5194   22734265.7494   22734260.1354
       185.0004        185.0004
 02  8  5  1  8 30.0030000  0  9G 3G25G31G20G 2G27G22G 1G13
 -10165260.31748  -7762204.34547  21799181.1484   21799186.6304   21799181.9224
       190.0004        190.0004
  24296621.61647  19608684.90145  25018426.2034   25018435.9814   25018427.1794
       152.0004        152.0004
  -7558530.90548  -5874178.12446  23273728.3494   23273730.2284   23273727.1444
       173.0004        172.0004
  15079920.49947  12109191.17545  25681406.8114   25681411.1214   25681404.4074
       138.0004        139.0004
   -643262.18349   -335701.66547  22452082.7034   22452088.8194   22452081.5964
       201.0004        201.0004
  -1308750.62847   -920102.79945  25742757.5284   25742761.0114   25742755.0084
       151.0004        151.0004
   -514761.54249   -191116.40547  22212687.5684   22212693.3964   22212686.1064
       198.0004        198.0004
 -11011282.30548  -8196037.31347  21476137.3534   21476143.8794   21476135.6564
       192.0004        192.0004
 -10788668.07248  -8242888.76946  22729686.3344   22729694.9274   22729686.3914
       182.0004        182.0004
 02  8  5  1  9  0.0030000  0  9G 3G25G31G20G 2G27G22G 1G13
 -10160004.95648  -7758109.29546  21800184.4634   21800186.7524   21800183.1154
       182.0004        183.0004
  24402161.38647  19690923.61445  25038505.8094   25038519.5994   25038508.0094
       155.0004        155.0004
  -7624789.72448  -5925808.23246  23261120.2854   23261121.9244   23261119.3804
       175.0004        175.0004
  15201509.07447  12203935.42645  25704542.0604   25704550.3954   25704543.7794
       140.0004        140.0004
   -572658.15048   -280685.52247  22465521.3634   22465524.0104   22465519.8184
       188.0004        191.0004
  -1350362.08147   -952527.26645  25734831.5864   25734841.3374   25734831.9924
       147.0004        147.0004
   -405849.44149   -106249.77447  22233413.3264   22233418.4114   22233413.1884
       196.0004        197.0004
 -10978797.69248  -8170724.57747  21482314.9764   21482325.9934   21482315.3494
       190.0004        190.0004
 -10812279.59648  -8261287.28846  22725191.8934   22725200.7794   22725193.1344
       182.0004        182.0004
 02  8  5  1  9 30.0030000  0  9G 3G25G31G20G 2G27G22G 1G13
 -10154157.15548  -7753552.56647  21801293.3454   21801299.1464   21801292.4874
       192.0004        192.0004
  24507899.56147  19773316.94545  25058628.8114   25058639.4244   25058629.4474
       154.0004        154.0004
  -7690765.54948  -5977217.83546  23248562.4254   23248567.4064   23248562.7034
       172.0004        173.0004
  15323076.08847  12298662.87745  25727678.6284   25727682.7824   25727675.6134
       138.0004        138.0004
   -501872.11249   -225527.55847  22478988.0264   22478994.5744   22478987.3464
       200.0004        201.0004
  -1392021.12347   -984988.83545  25726906.0364   25726913.1594   25726905.2274
       146.0004        146.0004
   -296719.60849    -21213.61347  22254181.7614   22254185.4294   22254179.5444
       196.0004        196.0004
 -10945716.00348  -8144946.59347  21488612.4054   21488620.8764   21488613.0494
       192.0004        192.0004
 -10835407.59048  -8279309.04146  22720793.5414   22720799.7374   22720793.6284
       183.0004        183.0004
 02  8  5  1 10  0.0030000  0  9G 3G25G31G20G 2G27G22G 1G13
 -10147715.76449  -7748533.20047  21802518.8974   21802524.9514   21802519.2994
       195.0004        195.0004
  24613836.16247  19855864.85845  25078789.8914   25078799.3434   25078789.6864
       153.0004        154.0004
  -7756455.35748  -6028404.61546  23236057.5594   23236067.2404   23236058.1694
       168.0004        169.0004
  15444618.46747  12393371.16645  25750813.8854   25750810.9744   25750802.3104
       135.0004        135.0004
   -430905.19848   -170228.67547  22492496.8244   22492498.7754   22492494.9204
       190.0004        192.0004
  -1433727.25947  -1017487.11945  25718974.8934   25718978.1154   25718973.9984
       152.0004        152.0004
   -187374.32949     63990.55647  22274986.2264   22274992.7254   22274986.1844
       195.0004        196.0004
 -10912036.71649  -8118702.96547  21495025.6404   21495030.1394   21495025.2564
       197.0004        197.0004
 -10858049.96148  -8296952.38746  22716487.2104   22716491.0164   22716487.2184
       186.0004        186.0004
 02  8  5  1 10 30.0030000  0  9G 3G25G31G20G 2G27G22G 1G13
 -10140704.22248  -7743069.61746  21803855.8004   21803859.1974   21803855.5864
       183.0004        185.0004
  24719946.42047  19938548.08845  25098985.0544   25098992.1534   25098984.7024
       152.0004        152.0004
  -7821880.99548  -6079385.58246  23223608.2004   23223616.2794   23223606.9944
       166.0004        166.0004
                                  25773962.226

   -359783.71549   -114809.29747  22506026.8694   22506032.6514   22506026.1214
       200.0004        201.0004
  -1475505.16747  -1050041.27745  25711019.8284   25711027.4684   25711019.5134
       147.0004        147.0004
    -77839.98548    149341.92547  22295834.7944   22295836.1514   22295832.2604
       193.0004        192.0004
 -10877784.00449  -8092012.53747  21501545.0124   21501547.8884   21501545.1104
       201.0004        200.0004
 -10880229.17048  -8314234.85347  22712268.2114   22712270.0374   22712268.8094
       189.0004        189.0004
 02  8  5  1 11  0.0030000  0  9G 3G25G31G20G 2G27G22G 1G13
 -10133140.84448  -7737176.16047  21805294.2444   21805298.5994   21805292.8104
       188.0004        188.0004
  24826210.76547  20021351.39645  25119209.8534   25119213.4064   25119208.1194
       150.0004        150.0004
  -7887059.07048  -6130173.62046  23211211.2054   23211213.8054   23211208.6854
       173.0004        173.0004
    150473.87944     82688.10543  25797094.4044
        74.0004         76.0004
   -288527.95648    -59285.35547  22519589.5964   22519591.9734   22519587.9484
       192.0004        192.0004
  -1517373.52647  -1082665.96645  25703051.8514   25703060.8654   25703050.3944
       147.0004        146.0004
     31861.80149    234823.88747  22316703.5454   22316711.9924   22316704.0244
       195.0004        195.0004
 -10842976.69149  -8064889.95547  21508169.3704   21508171.3414   21508168.8224
       203.0004        202.0004
 -10901962.42548  -8331169.81947  22708133.9804   22708135.0714   22708133.6684
       192.0004        191.0004
 02  8  5  1 11 30.0030000  0  9G 3G25G31G20G 2G27G22G 1G13
 -10125026.02549  -7730852.84347  21806836.6454   21806842.7494   21806836.2794
       197.0004        197.0004
  24932628.08447  20104273.92545  25139462.2604   25139465.1174   25139460.4254
       150.0004        150.0004
  -7951987.71548  -6180767.27146  23198855.2764   23198858.6384   23198854.7114
       179.0004        178.0004
     61399.03654     25906.49043  25820136.6914
        74.0004         74.0004
   -217140.54049     -3658.73347  22533170.6714   22533176.6114   22533170.3014
       198.0004        198.0004
  -1559333.32147  -1115361.84945  25695074.0024   25695076.2504   25695071.8504
       150.0004        150.0004
    141728.19848    320434.01447  22337618.8344   22337619.2894   22337615.7574
       189.0004        190.0004
 -10807615.31249  -8037335.64247  21514898.4934   21514900.1994   21514897.6624
       202.0004        201.0004
 -10923248.62848  -8347756.43147  22704083.4194   22704084.9144   22704082.6874
       192.0004        191.0004
 02  8  5  1 12  0.0030000  0  9G 3G25G31G20G 2G27G22G 1G13
 -10116318.49048  -7724067.66947  21808494.3464   21808499.7174   21808494.2894
       191.0004        192.0004
  25039237.92747  20187346.48545  25159740.5144   25159750.5694   25159741.8284
       148.0004        148.0004
  -8016624.29448  -6231133.31746  23186554.5384   23186557.8924   23186554.8414
       177.0004        177.0004
    182694.96744    120423.35644  25843196.7964
        74.0004        101.0004
   -145582.86048     52100.44647  22546791.0344   22546793.8044   22546788.8244
       192.0004        192.0004
  -1601344.26547  -1148097.59145  25687072.5104   25687081.6404   25687072.0774
       148.0004        149.0004
    251796.81049    406201.79447  22358555.8904   22358564.2524   22358555.5134
       196.0004        196.0004
 -10771659.65949  -8009318.25047  21521739.4194   21521742.2264   21521738.4044
       199.0004        199.0004
 -10944045.47348  -8363961.74047  22700124.7614   22700127.5124   22700124.1374
       191.0004        190.0004
 02  8  5  1 12 30.0030000  0  9G 3G25G31G20G 2G27G22G 1G13
 -10106987.73148  -7716797.01046  21810273.4014   21810275.2804   21810271.9084
       182.0004        183.0004
  25146070.27147  20270592.35745  25180068.4644   25180081.0374   25180071.4294
       151.0004        152.0004
  -8080936.16448  -6281246.37446  23174314.0284   23174319.4704   23174313.2104
       172.0004        172.0004
    303976.16644    214928.05644  25866271.3864
        74.0004        126.0004
    -73826.76049    108014.37047  22560442.4164   22560448.3024   22560442.1504
       198.0004        198.0004
  -1643376.23947  -1180849.78245  25679074.3644   25679082.4364   25679073.0024
       148.0004        148.0004
    362095.62448    492148.89247  22379554.1464   22379553.4934   22379551.4214
       186.0004        188.0004
 -10735079.36649  -7980814.10947  21528698.8164   21528703.1434   21528697.0614
       195.0004        196.0004
 -10964321.78548  -8379761.41447  22696264.5224   22696268.8404   22696262.7584
       187.0004        188.0004
 02  8  5  1 13  0.0030000  0  9G 3G25G31G20G 2G27G22G 1G13
 -10097109.77649  -7709099.89147  21812149.7104   21812154.9314   21812148.8304
       196.0004        196.0004
  25253048.64647  20353952.04545  25200423.4954   25200437.7514   25200423.8714
       149.0004        150.0004
  -8144996.91748  -6331163.81546  23162119.6044   23162129.2354   23162119.0744
       168.0004        168.0004
    425163.49446    309359.62245  25889349.4004   25889347.6784   25889332.8494
       132.0004        132.0004
     -1949.66949    164022.43147  22574122.2314   22574126.1634   22574120.6384
       195.0004        194.0004
  -1685505.41947  -1213677.65945  25671064.6354   25671065.1674   25671062.2414
       153.0004        153.0004
    472545.83648    578214.00347  22400562.4784   22400571.2674   22400561.7564
       194.0004        194.0004
 -10697950.60948  -7951882.57547  21535760.3374   21535768.4904   21535759.7274
       191.0004        192.0004
 -10984151.51848  -8395213.09146  22692487.1814   22692494.7494   22692487.0974
       184.0004        184.0004
 02  8  5  1 13 30.0030000  0  9G 3G25G31G20G 2G27G22G 1G13
 -10086665.89849  -7700961.71547  21814135.7394   21814142.2764   21814136.0134
       198.0004        197.0004
  25360190.20747  20437438.90245  25220815.9994   25220826.8394   25220815.7734
       151.0004        151.0004
  -8208786.04148  -6380869.59946  23149986.8564   23149991.7004   23149985.0524
       174.0004        173.0004
     32286.35854      6998.40643  25912390.6614
        74.0004         74.0004
     70064.66549    220137.59347  22587824.1754   22587830.3714   22587824.2364
       196.0004        197.0004
  -1727713.58047  -1246567.06745  25663024.7984   25663034.9834   25663024.4644
       150.0004        151.0004
    583163.40848    664409.50246  22421622.0474   22421620.9964   22421619.5964
       183.0004        185.0004
 -10660255.28948  -7922509.55747  21542932.6924   21542941.5274   21542933.4754
       191.0004        191.0004
 -11003514.77648  -8410301.28546  22688802.2884   22688809.9644   22688802.7214
       184.0004        184.0004
 02  8  5  1 14  0.0030000  0  8G 3G25G31G 2G27G22G 1G13
 -10075664.02548  -7692388.80847  21816230.8614   21816236.0364   21816231.7774
       186.0004        188.0004
  25467485.90347  20521045.85945  25241237.0864   25241243.1284   25241235.7234
       147.0004        147.0004
  -8272309.64048  -6430368.41646  23137901.2614   23137901.9454   23137899.7874
       178.0004        177.0004
    142206.15849    276351.66447  22601554.3414   22601558.6674   22601552.1694
       198.0004        197.0004
  -1770009.52447  -1279524.94245  25654975.9824   25654984.6184   25654975.3984
       150.0004        150.0004
    693937.33948    750726.84047  22442692.4684   22442700.8014   22442691.4474
       192.0004        193.0004
 -10622002.06349  -7892701.82147  21550216.3044   21550220.9944   21550216.3664
       195.0004        195.0004
 -11022418.65148  -8425031.52546  22685208.0324   22685211.7974   22685208.5244
       186.0004        186.0004
 02  8  5  1 14 30.0030000  0  8G 3G25G31G 2G27G22G 1G13
 -10064077.01948  -7683360.03647  21818437.6904   21818440.9394   21818435.9234
       190.0004        190.0004
  25574962.06447  20604793.42745  25261694.2384   25261695.6094   25261692.3074
       146.0004        146.0004
  -8335538.79948  -6479637.79146  23125867.3294   23125870.0994   23125866.4944
       178.0004        178.0004
    214499.31249    332684.08447  22615309.2374   22615315.7004   22615309.5134
       195.0004        196.0004
  -1812366.47547  -1312530.31045  25646922.1134   25646925.1174   25646920.5644
       155.0004        154.0004
    804891.82648    837184.91146  22463814.3824   22463814.7554   22463813.0094
       183.0004        185.0004
 -10583164.37849  -7862438.68947  21557609.0504   21557611.3094   21557608.7334
       199.0004        198.0004
 -11040834.93748  -8439381.84347  22681705.9454   22681708.0204   22681706.0774
       189.0004        189.0004
 02  8  5  1 15  0.0030000  0  8G 3G25G31G 2G27G22G 1G13
 -10051913.48749  -7673881.89747  21820748.8974   21820755.5624   21820748.6944
       198.0004        197.0004
  25682609.06747  20688674.14445  25282177.3684   25282180.9164   25282176.3304
       145.0004        145.0004
  -8398479.77048  -6528682.63546  23113887.8274   23113892.8164   23113887.5084
       172.0004        173.0004
    286934.06049    389126.66447  22629094.4914   22629099.2514   22629092.5324
       200.0004        199.0004
  -1854793.44347  -1345590.21745  25638842.1844   25638851.0734   25638842.4904
       151.0004        151.0004
    916015.76748    923774.94047  22484953.6144   22484960.3704   22484952.0704
       190.0004        190.0004
 -10543751.04449  -7831727.01247  21565110.2084   21565111.4654   21565109.5044
       200.0004        200.0004
 -11058770.57748  -8453357.64347  22678293.3574   22678295.2314   22678293.3814
       191.0004        190.0004
 02  8  5  1 15 30.0030000  0  8G 3G25G31G 2G27G22G 1G13
 -10039157.83948  -7663942.36247  21823176.8364   21823182.8164   21823177.1564
       194.0004        194.0004
  25790441.56447  20772699.36645  25302695.6894   25302700.1024   25302693.8254
       143.0004        143.0004
  -8461115.00448  -6577489.28246  23101965.2204   23101974.9114   23101964.3834
       170.0004        170.0004
    359523.45348    445689.91847  22642908.2304   22642913.0324   22642907.2224
       193.0004        195.0004
  -1897275.09447  -1378692.80145  25630757.2404   25630767.2484   25630756.7574
       151.0004        151.0004
   1027321.61548   1010506.82146  22506138.9934   22506141.5674   22506138.0864
       185.0004        186.0004
 -10503747.01949  -7800555.05247  21572722.2264   21572724.2074   21572721.2944
       201.0004        200.0004
 -11076208.76648  -8466945.83347  22674975.0724   22674976.4214   22674974.4884
       191.0004        190.0004
 02  8  5  1 16  0.0030000  0  8G 3G25G31G 2G27G22G 1G13
 -10025842.06748  -7653566.45946  21825714.5114   21825716.6954   21825713.8164
       186.0004        187.0004
  25898426.65547  20856843.51445  25323237.3314   25323250.0454   25323239.1214
       149.0004        148.0004
  -8523474.63048  -6626081.19546  23090101.6734   23090106.7984   23090099.8734
       171.0004        171.0004
    432233.52249    502347.03747  22656743.1944   22656748.9194   22656741.4804
       202.0004        202.0004
  -1939843.91647  -1411863.24045  25622664.6864   25622666.6024   25622662.8004
       156.0004        156.0004
   1138774.90848   1097353.47247  22527345.3804   22527350.1994   22527343.0834
       190.0004        189.0004
 -10463184.94349  -7768948.24347  21580440.2734   21580442.9004   21580438.7754
       198.0004        198.0004
 -11093180.62948  -8480170.64947  22671744.7584   22671747.3044   22671743.4064
       189.0004        189.0004
 02  8  5  1 16 30.0030000  0  8G 3G25G31G 2G27G22G 1G13
 -10011902.56049  -7642704.51247  21828364.1904   21828369.3174   21828362.6854
       195.0004        195.0004
  26006627.31747  20941155.57545  25343828.6154   25343840.1604   25343828.1894
       148.0004        149.0004
  -8585492.88648  -6674407.02846  23078304.9544   23078304.8534   23078302.9374
       180.0004        179.0004
    505125.80648    559146.28847  22670616.3834   22670620.0234   22670615.6774
       193.0004        196.0004
  -1982436.73047  -1445052.36045  25614551.9484   25614561.7674   25614552.7834
       154.0004        154.0004
   1250436.43548   1184362.51747  22548593.6994   22548599.4734   22548593.4924
       189.0004        189.0004
 -10422001.83448  -7736857.49947  21588274.5934   21588279.6934   21588272.9714
       194.0004        194.0004
 -11109621.16548  -8492981.42146  22668614.7834   22668619.0344   22668612.5334
       186.0004        186.0004
 02  8  5  1 17  0.0040000  0  8G 3G25G31G 2G27G22G 1G13
  -9997426.67249  -7631424.53247  21831117.1384   21831124.0114   21831117.2754
       199.0004        199.0004
  26114958.50047  21025569.38445  25364443.5284   25364454.9344   25364443.2894
       147.0004        147.0004
  -8647257.37248  -6722535.11646  23066549.4164   23066551.6154   23066549.3224
       180.0004        180.0004
    578113.30949    616019.61347  22684503.0104   22684509.0154   22684501.5794
       204.0004        204.0004
  -2025142.55447  -1478329.60945  25606426.1724   25606433.9434   25606425.2084
       151.0004        151.0004
   1362219.81648   1271466.37147  22569867.4674   22569870.7524   22569865.3934
       189.0004        189.0004
 -10380284.41448  -7704350.38847  21596210.0214   21596218.7214   21596209.2024
       190.0004        191.0004
 -11125617.14348  -8505445.78046  22665565.9634   22665574.7744   22665565.8334
       183.0004        183.0004
 02  8  5  1 17 30.0040000  0  8G 3G25G31G 2G27G22G 1G13
  -9982345.80448  -7619673.17947  21833989.9704   21833993.8054   21833990.0084
       191.0004        192.0004
  26223481.83447  21110132.90845  25385100.6604   25385105.5334   25385099.5294
       144.0004        144.0004
  -8708692.03648  -6770406.22646  23054854.6934   23054861.8084   23054854.6054
       175.0004        176.0004
    651258.82948    673016.17647  22698424.8254   22698427.9984   22698424.2954
       194.0004        196.0004
  -2067889.38247  -1511638.71845  25598298.7524   25598299.3194   25598297.0294
       157.0004        157.0004
   1474184.48648   1358711.62647  22591168.9674   22591176.9044   22591169.1614
       194.0004        194.0004
 -10337966.18648  -7671375.10847  21604262.3544   21604271.7154   21604262.9284
       191.0004        191.0004
 -11141096.28848  -8517507.39546  22662621.3604   22662629.1764   22662622.0504
       184.0004        184.0004
 02  8  5  1 18  0.0040000  0  8G 3G25G31G 2G27G22G 1G13
  -9966643.37348  -7607437.56247  21836979.0164   21836981.6724   21836977.1384
       189.0004        189.0004
  26332215.91047  21194860.69045  25405799.1574   25405797.7024   25405795.8224
       147.0004        146.0004
  -8769781.01648  -6818008.00546  23043228.8424   23043235.9034   23043227.4954
       171.0004        171.0004
    724578.76649    730148.57047  22712374.6284   22712380.1854   22712372.9144
       204.0004        204.0004
  -2110662.83347  -1544968.58445  25590152.4354   25590160.1434   25590151.6624
       152.0004        153.0004
   1586347.78948   1446111.54447  22612520.9934   22612521.7544   22612518.0274
       190.0004        190.0004
 -10295030.28148  -7637918.53947  21612436.4384   21612442.0444   21612436.7414
       194.0004        194.0004
 -11156042.17648  -8529153.50146  22659781.7054   22659784.3664   22659781.5714
       187.0004        187.0004
 02  8  5  1 18 30.0040000  0  8G 3G25G31G 2G27G22G 1G13
  -9950318.98349  -7594717.20447  21840081.3074   21840088.2204   21840081.0144
       198.0004        198.0004
  26441160.40747  21279752.37545  25426524.8064   25426528.8114   25426522.9474
       146.0004        146.0004
  -8830521.60148  -6865338.28746  23031672.4524   23031677.9414   23031670.5024
       173.0004        173.0004
    798071.87648    787415.96947  22726362.4624   22726365.2414   22726361.8354
       192.0004        194.0004
  -2153462.59547  -1578319.00545  25582006.2524   25582016.3754   25582006.0364
       149.0004        149.0004
   1698707.35849   1533664.47447  22633893.1234   22633902.5644   22633892.7804
       196.0004        196.0004
 -10251476.61549  -7603980.61947  21620726.7044   21620730.0384   21620726.4324
       198.0004        198.0004
 -11170453.04548  -8540382.73347  22657041.6504   22657041.6774   22657041.1764
       190.0004        190.0004
 02  8  5  1 19  0.0040000  0  8G 3G25G31G 2G27G22G 1G13
  -9933404.52649  -7581537.04147  21843301.0394   21843307.0004   21843301.2554
       195.0004        196.0004
  26550282.66647  21364782.60145  25447285.0044   25447294.0984   25447284.9424
       146.0004        146.0004
  -8890943.50548  -6912420.22546  23020177.9084   23020180.1684   23020176.6504
       180.0004        179.0004
    871704.18949    844791.78947  22740370.5114   22740377.1734   22740369.5514
       203.0004        203.0004
  -2196320.61947  -1611714.76945  25573858.7984   25573859.9794   25573856.5094
       153.0004        153.0004
   1811229.10248   1621343.72547  22655315.0894   22655314.9254   22655312.9764
       188.0004        189.0004
 -10207337.77349  -7569586.73047  21629126.7334   21629129.3034   21629126.1464
       199.0004        199.0004
 -11184359.25848  -8551218.73547  22654394.8024   22654395.4854   22654394.8584
       191.0004        191.0004
 02  8  5  1 19 30.0040000  0  8G 3G25G31G 2G27G22G 1G13
  -9915868.24648  -7567872.42947  21846642.4314   21846644.0084   21846641.6354
       188.0004        189.0004
  26659613.32847  21449975.19745  25468085.3234   25468100.3094   25468086.2024
       145.0004        144.0004
  -8951013.01048  -6959227.56146  23008747.5574   23008749.1864   23008746.4434
       182.0004        182.0004
    945505.51448    902299.34047  22754419.1264   22754420.9704   22754417.7204
       191.0004        194.0004
  -2239205.67747  -1645131.60145  25565691.0034   25565699.9554   25565691.2414
       153.0004        153.0004
   1923941.73149   1709171.73447  22676754.8924   22676763.3084   22676753.7824
       196.0004        196.0004
 -10162582.85149  -7534712.77747  21637643.5264   21637645.6274   21637642.4124
       199.0004        199.0004
 -11197728.13348  -8561636.03147  22651851.1784   22651851.7344   22651850.1604
       191.0004        191.0004
 02  8  5  1 20  0.0040000  0  8G 3G25G31G 2G27G22G 1G13
  -9897762.86749  -7553764.34247  21850083.6694   21850088.9284   21850082.6644
       196.0004        196.0004
  26769099.12947  21535288.67445  25488919.1254   25488934.1794   25488920.3084
       143.0004        143.0004
  -9010780.67948  -7005799.69446  22997370.2074   22997375.0294   22997369.4904
       176.0004        176.0004
   1019421.28749    959896.05647  22768480.2794   22768486.3794   22768479.4274
       202.0004        202.0004
  -2282170.34047  -1678610.49145  25557513.1524   25557522.7934   25557513.2344
       152.0004        151.0004
   2036790.24148   1797105.66647  22698236.8024   22698237.6244   22698235.5304
       189.0004        190.0004
 -10117264.97749  -7499400.15847  21646266.6584   21646269.1844   21646264.9054
       196.0004        196.0004
 -11210610.96848  -8571674.58447  22649397.0814   22649400.2794   22649395.7564
       188.0004        188.0004
 02  8  5  1 20 30.0040000  0  8G 3G25G31G 2G27G22G 1G13
  -9879072.67249  -7539200.45847  21853638.7764   21853645.7264   21853639.1124
       199.0004        199.0004
  26878754.92747  21620734.66045  25509794.2434   25509802.5104   25509793.5224
       136.0004        137.0004
  -9070228.15948  -7052122.40046  22986053.7004   22986062.6274   22986053.6454
       171.0004        172.0004
   1093465.74948   1017593.04847  22782574.9894   22782576.7344   22782573.5734
       192.0004        194.0004
  -2325198.86047  -1712139.09445  25549333.1694   25549334.8224   25549331.3724
       155.0004        155.0004
   2149788.05948   1885155.87147  22719733.3404   22719740.4004   22719731.9584
       194.0004        194.0004
 -10071368.79048  -7463636.88747  21654997.5454   21655003.0354   21654995.6354
       191.0004        192.0004
 -11222990.58348  -8581320.98946  22647037.6354   22647045.0614   22647037.3424
       186.0004        186.0004
 02  8  5  1 21  0.0040000  0  8G 3G25G31G 2G27G22G 1G13
  -9859781.05448  -7524167.99147  21857312.9004   21857317.1614   21857313.0884
       189.0004        191.0004
  26988596.99047  21706325.83345  25530701.5134   25530701.9764   25530699.1394
       136.0004        135.0004
  -9129336.46048  -7098180.79346  22974811.1114   22974815.3874   22974809.1524
       176.0004        176.0004
   1167653.72249   1075401.87847  22796687.8834   22796694.1674   22796686.9584
       202.0004        202.0004
  -2368274.60447  -1745704.50345  25541129.2234   25541138.7394   25541128.9964
       153.0004        153.0004
   2262949.78748   1973333.89147  22741268.8524   22741274.3314   22741268.9554
       189.0004        190.0004
 -10024877.84448  -7427410.14247  21663840.8764   21663849.7884   21663840.2184
       188.0004        189.0004
 -11234848.69648  -8590561.02346  22644780.6634   22644789.1204   22644781.0394
       186.0004        186.0004
 02  8  5  1 21 30.0040000  0  8G 3G25G31G 2G27G22G 1G13
  -9839917.13948  -7508689.68347  21861094.0694   21861097.1104   21861092.0244
       192.0004        192.0004
  27098595.65247  21792038.94345  25551630.4194   25551635.2794   25551630.8724
       139.0004        139.0004
  -9188132.77548  -7143996.04046  22963622.5564   22963626.0854   22963621.7844
       180.0004        179.0004
   1241954.45048   1133298.53847  22810830.7994   22810832.9924   22810829.4274
       190.0004        192.0004
  -2411426.63147  -1779329.40645  25532917.5904   25532927.1644   25532916.9294
       153.0004        153.0004
   2376243.68748   2061614.77147  22762829.1424   22762833.2484   22762827.4084
       189.0004        189.0004
  -9977822.07448  -7390743.27947  21672796.1124   21672804.6294   21672796.3194
       190.0004        190.0004
 -11246213.34948  -8599416.54147  22642621.2944   22642626.2624   22642621.3134
       189.0004        189.0004
 02  8  5  1 22  0.0040000  0  8G 3G25G31G 2G27G22G 1G13
  -9819451.71149  -7492742.53447  21864984.4944   21864991.2844   21864984.1024
       200.0004        200.0004
  27208778.81647  21877895.85645  25572592.3334   25572601.8194   25572593.3774
       141.0004        140.0004
  -9246585.48248  -7189543.51746  22952500.3394   22952502.6284   22952500.2284
       181.0004        181.0004
   1316395.22949   1191304.38947  22824991.6314   22824998.5254   22824991.3054
       199.0004        199.0004
  -2454625.72147  -1812990.91945  25524703.4814   25524704.3954   25524702.4434
       154.0004        154.0004
   2489696.49848   2150019.61647  22784414.1624   22784422.9684   22784414.3734
       190.0004        190.0004
  -9930172.54748  -7353613.76247  21681868.1574   21681871.6614   21681867.6394
       194.0004        194.0004
 -11257053.70648  -8607863.54047  22640561.0764   22640562.7854   22640561.4144
       191.0004        191.0004
 02  8  5  1 22 30.0040000  0  8G 3G25G31G 2G27G22G 1G13
  -9798428.26549  -7476360.55047  21868985.7754   21868991.9424   21868986.3294
       195.0004        195.0004
  27319102.83947  21963862.49645  25593584.2384   25593597.0164   25593585.4774
       149.0004        148.0004
  -9304735.69648  -7234855.28246  22941433.5094   22941437.8714   22941432.7444
       178.0004        178.0004
   1390931.31648   1249384.42547  22839180.3494   22839182.7434   22839178.1944
       190.0004        191.0004
  -2497915.27347  -1846722.91645  25516460.5774   25516468.4364   25516459.5154
       151.0004        151.0004
   2603262.78448   2238512.76846  22806034.1324   22806033.1224   22806031.0144
       183.0004        183.0004
  -9881973.33549  -7316055.94447  21691041.6524   21691043.9224   21691041.0644
       199.0004        199.0004
 -11267411.80448  -8615934.75947  22638591.0474   22638591.5724   22638590.5284
       194.0004        193.0004
 02  8  5  1 23  0.0040000  0  8G 3G25G31G 2G27G22G 1G13
  -9776790.78548  -7459500.20346  21873108.5794   21873109.2624   21873107.2184
       185.0004        186.0004
  27429622.88947  22049981.89745  25614616.5604   25614627.8974   25614617.0014
       147.0004        147.0004
  -9362524.96648  -7279885.86046  22930427.7164   22930440.7364   22930428.3524
       171.0004        171.0004
   1465616.78249   1307580.95847  22853387.1164   22853395.0094   22853387.1764
       198.0004        199.0004
  -2541239.11247  -1880481.70445  25508213.6624   25508224.5214   25508214.0314
       150.0004        150.0004
   2716996.04548   2327136.10847  22827666.3554   22827676.2124   22827665.9164
       189.0004        189.0004
  -9833168.91749  -7278026.54247  21700329.1154   21700331.2324   21700328.3654
       200.0004        200.0004
 -11277230.42848  -8623585.61447  22636720.7734   22636722.2564   22636720.2404
       191.0004        191.0004
 02  8  5  1 23 30.0040000  0  8G 3G25G31G 2G27G22G 1G13
  -9754530.67549  -7442154.65747  21877339.6074   21877345.1594   21877338.6224
       198.0004        198.0004
  27540346.81847  22136260.16545  25635694.5154   25635698.5944   25635692.1404
       143.0004        144.0004
  -9419942.54048  -7324626.77546  22919511.7964   22919513.6534   22919508.8254
       176.0004        176.0004
   1540459.21748   1365899.67347  22867633.5514   22867636.9824   22867631.6024
       193.0004        193.0004
  -2584588.57247  -1914260.39345  25499972.6584   25499974.1114   25499970.0644
       156.0004        156.0004
   2830902.81848   2415894.61746  22849353.8664   22849352.0724   22849351.0144
       180.0004        181.0004
  -9783751.20449  -7239519.24547  21709732.8674   21709734.8824   21709731.5294
       199.0004        199.0004
 -11286499.43448  -8630808.18347  22634955.7124   22634958.7414   22634953.9024
       188.0004        188.0004
 02  8  5  1 24  0.0040000  0  8G 3G25G31G 2G27G22G 1G13
  -9731659.66549  -7424333.01147  21881690.0634   21881697.1324   21881690.6024
       200.0004        199.0004
  27651262.53747  22222687.93545  25656803.3714   25656805.6114   25656802.0294
       138.0004        138.0004
  -9476997.63848  -7369085.17146  22908654.8304   22908656.9724   22908653.5834
       182.0004        182.0004
   1615444.76849   1424330.04847  22881899.5254   22881906.4634   22881899.0794
       199.0004        200.0004
  -2627974.80947  -1948067.73545  25491711.4364   25491717.8634   25491710.4634
       154.0004        154.0004
   2944969.21248   2504777.48847  22871048.7674   22871057.8014   22871048.2784
       189.0004        189.0004
  -9733732.34649  -7200543.51347  21719249.9534   21719253.1934   21719247.7434
       195.0004        196.0004
 -11295229.22848  -8637610.55846  22633289.6464   22633297.3414   22633289.6694
       184.0004        185.0004
 02  8  5  1 24 30.0040000  0  8G 3G25G31G 2G27G22G 1G13
  -9708220.66448  -7406068.83047  21886153.2364   21886157.5414   21886154.0714
       187.0004        189.0004
  27762326.62447  22309231.27445  25677930.6864   25677939.7684   25677932.9734
       143.0004        143.0004
  -9533730.75248  -7413292.68546  22897856.7124   22897861.2954   22897856.6204
       183.0004        183.0004
   1690529.19549   1482837.33247  22896190.7744   22896194.4614   22896188.8514
       198.0004        198.0004
  -2671440.83447  -1981937.33545  25483437.9194   25483445.6784   25483437.8124
       156.0004        156.0004
   3059150.18648   2593749.71546  22892783.7124   22892785.8424   22892783.3074
       182.0004        184.0004
  -9683155.76748  -7161133.16647  21728869.7104   21728877.6534   21728868.3534
       192.0004        193.0004
 -11303461.25448  -8644025.05446  22631722.2414   22631731.1274   22631723.9494
       186.0004        185.0004
 02  8  5  1 25  0.0040000  0  8G 3G25G31G 2G27G22G 1G13
  -9684196.13548  -7387348.48947  21890726.5714   21890729.0934   21890724.5524
       190.0004        190.0004
  27873555.66547  22395903.12345  25699094.2534   25699106.9094   25699093.7464
       147.0004        147.0004
  -9590122.06548  -7457233.89646  22887124.3524   22887130.1214   22887123.7794
       178.0004        178.0004
   1765728.33049   1541434.13447  22910497.6114   22910504.7314   22910497.5504
       201.0004        201.0004
  -2714968.71447  -2015855.08045  25475162.1594   25475162.9404   25475159.7714
       159.0004        159.0004
   3173461.11848   2682823.08646  22914532.5014   22914538.9354   22914531.0234
       188.0004        187.0004
  -9632004.61448  -7121275.08447  21738602.2324   21738611.2034   21738602.2734
       190.0004        191.0004
 -11311176.35648  -8650036.76747  22630260.1784   22630262.8534   22630260.1734
       190.0004        190.0004
 02  8  5  1 25 30.0040000  0  8G 3G25G31G 2G27G22G 1G13
  -9659578.50949  -7368165.83747  21895407.2924   21895414.0164   21895407.0954
       200.0004        199.0004
  27984957.04547  22482709.25345  25720294.2874   25720305.0904   25720293.3184
       145.0004        145.0004
  -9646161.10248  -7500900.62146  22876457.3734   22876465.4014   22876456.0754
       172.0004        172.0004
   1841048.99749   1600125.49847  22924834.1224   22924837.8324   22924831.9864
       201.0004        200.0004
  -2758550.45147  -2049814.79545  25466859.7774   25466871.7374   25466860.8144
       155.0004        155.0004
   3287907.80548   2772002.38346  22936309.8364   22936317.2364   22936310.6114
       187.0004        187.0004
  -9580271.22248  -7080963.32247  21748450.0744   21748455.5684   21748450.0944
       194.0004        193.0004
 -11318365.47848  -8655638.64647  22628894.4094   22628894.7904   22628894.5534
       194.0004        194.0004
 02  8  5  1 26  0.0040000  0  8G 3G25G31G 2G27G22G 1G13
  -9634414.66549  -7348557.57947  21900196.7194   21900202.4564   21900196.9624
       195.0004        195.0004
  28096483.86547  22569613.08445  25741517.2994   25741527.8304   25741517.1524
       137.0004        138.0004
  -9701892.38748  -7544327.56946  22865858.5794   22865860.4624   22865855.9704
       179.0004        178.0004
   1916442.43349   1658873.70147  22939177.9844   22939184.3574   22939178.1524
       201.0004        202.0004
  -2802232.39047  -2083852.67945  25458553.9124   25458557.3614   25458551.3484
       157.0004        157.0004
   3402441.46248   2861249.31746  22958111.6154   22958112.0194   22958108.4544
       184.0004        184.0004
  -9528003.02549  -7040234.85047  21758399.6784   21758401.9104   21758399.3134
       199.0004        198.0004
 -11325073.92149  -8660865.98847  22627618.7184   22627618.4874   22627618.1874
       196.0004        195.0004
 02  8  5  1 26 30.0040000  0  8G 3G25G31G 2G27G22G 1G13
  -9608700.31648  -7328520.47746  21905095.2384   21905095.7214   21905093.1414
       184.0004        186.0004
  28208139.00846  22656616.99944  25762772.6224   25762776.4034   25762769.9104
       129.0004        130.0004
  -9757309.66948  -7587509.77546  22855313.3524   22855315.0464   22855312.4954
       183.0004        182.0004
   1991911.32549   1717680.56847  22953542.0134   22953545.8494   22953539.7654
       201.0004        201.0004
  -2846010.31147  -2117965.28645  25450224.0894   25450226.7854   25450222.9844
       157.0004        157.0004
   3517063.68648   2950565.37347  22979914.9234   22979924.2974   22979914.9914
       189.0004        189.0004
  -9475196.98549  -6999087.30047  21768449.1984   21768450.4494   21768448.6324
       201.0004        201.0004
 -11331296.53748  -8665714.74947  22626432.2384   22626433.7954   22626431.5424
       192.0004        192.0004
 02  8  5  1 27  0.0040000  0  8G 3G25G31G 2G27G22G 1G13
  -9582382.40349  -7308013.02947  21910098.1344   21910103.6944   21910096.7954
       196.0004        196.0004
  28319975.58246  22743762.24344  25784054.1104   25784057.4884   25784050.6374
       128.0004        129.0004
  -9812356.95148  -7630403.64846  22844835.0534   22844838.7404   22844834.8144
       179.0004        179.0004
   2067507.43749   1776586.70547  22967924.6674   22967931.1434   22967925.0074
       201.0004        202.0004
  -2889830.49047  -2152110.82445  25441876.7304   25441888.0464   25441877.3464
       151.0004        152.0004
   3631826.29948   3039990.77046  23001764.5304   23001762.2974   23001761.4154
       182.0004        183.0004
  -9421799.99249  -6957479.26747  21778610.2664   21778611.3214   21778609.2734
       201.0004        201.0004
 -11336978.06148  -8670141.86147  22625347.0004   22625353.0834   22625346.3694
       188.0004        188.0004
 02  8  5  1 27 30.0040000  0  8G 3G25G31G 2G27G22G 1G13
  -9555466.57149  -7287039.57347  21915219.1504   21915225.6124   21915219.3034
       197.0004        197.0004
  28431987.48547  22831044.22545  25805358.5884   25805373.3494   25805361.1924
       137.0004        136.0004
  -9867037.24948  -7673011.59046  22834428.4474   22834434.3014   22834427.3374
       175.0004        175.0004
   2143224.43849   1835586.90347  22982335.7764   22982339.5274   22982333.5844
       201.0004        200.0004
  -2933698.00047  -2186293.29845  25433535.7814   25433539.6804   25433532.9484
       152.0004        152.0004
   3746721.46848   3129519.45147  23023618.4674   23023626.9604   23023617.6414
       191.0004        191.0004
  -9367818.07249  -6915415.43447  21788880.3264   21788883.3054   21788879.1584
       196.0004        197.0004
 -11342122.77948  -8674150.66546  22624364.9684   22624373.8764   22624365.9814
       186.0004        186.0004
 02  8  5  1 28  0.0040000  0  8G 3G25G31G 2G27G22G 1G13
  -9527942.98648  -7265592.59147  21920460.9384   21920463.4144   21920460.5194
       187.0004        189.0004
  28544184.02947  22918469.92945  25826711.5334   25826723.7104   25826710.9454
       142.0004        142.0004
  -9921338.27648  -7715324.04446  22824092.2284   22824101.5644   22824091.6634
       175.0004        175.0004
   2219070.81049   1894688.04547  22996767.1434   22996772.0304   22996766.8874
       199.0004        200.0004
  -2977602.62847  -2220504.63745  25425182.2294   25425186.1874   25425181.8864
       158.0004        158.0004
   3861757.22048   3219157.74146  23045513.7554   23045517.0844   23045513.3774
       186.0004        187.0004
  -9313241.88248  -6872888.50247  21799263.0394   21799269.2524   21799261.2804
       192.0004        192.0004
 -11346719.42748  -8677732.41247  22623493.3754   22623498.9944   22623494.4264
       189.0004        189.0004
 02  8  5  1 28 30.0040000  0  8G 3G25G31G 2G27G22G 1G13
  -9499803.67548  -7243665.91947  21925815.1184   21925817.8004   21925812.8814
       191.0004        191.0004
  28656572.51347  23006045.24645  25848101.0824   25848110.0864   25848099.7994
       142.0004        142.0004
  -9975249.73448  -7757332.91646  22813839.7134   22813841.6734   22813837.9354
       181.0004        181.0004
   2295053.11849   1953894.97647  23011226.9274   23011230.7124   23011225.2304
       199.0004        198.0004
  -3021536.03547  -2254738.43945  25416815.9934   25416826.3364   25416815.2374
       154.0004        155.0004
   3976939.56348   3308910.15146  23067431.0544   23067435.8124   23067429.4084
       187.0004        187.0004
  -9258064.09548  -6829892.77847  21809760.7704   21809769.0304   21809760.9824
       191.0004        191.0004
 -11350758.73448  -8680879.89347  22622728.6024   22622730.3404   22622728.7824
       193.0004        193.0004
 02  8  5  1 29  0.0040000  0  8G 3G25G31G 2G27G22G 1G13
  -9471055.82849  -7221264.94047  21931281.6774   21931288.3904   21931281.3674
       199.0004        199.0004
  28769145.40847  23093764.25045  25869530.4174   25869531.9774   25869527.8974
       142.0004        142.0004
 -10028776.31948  -7799041.79146  22803655.3254   22803655.6294   22803654.2364
       185.0004        185.0004
   2371162.81648   2013201.31747  23025708.7474   23025714.2024   23025708.9414
       194.0004        195.0004
  -3065504.50947  -2288999.63145  25408450.1124   25408458.1694   25408450.4054
       154.0004        154.0004
   4092259.27948   3398769.72247  23089371.7264   23089380.0174   23089371.7354
       188.0004        188.0004
  -9202292.29449  -6786434.20947  21820377.6904   21820382.1684   21820377.7914
       195.0004        194.0004
 -11354246.39349  -8683597.53747  22622066.1604   22622066.3964   22622065.8764
       195.0004        194.0004
 02  8  5  1 29 30.0040000  0  8G 3G25G31G 2G27G22G 1G13
  -9441707.31048  -7198395.91147  21936867.6304   21936873.2164   21936867.9764
       194.0004        195.0004
  28881894.46146  23181620.54445  25890986.9994   25890988.7724   25890981.5074
       134.0004        134.0004
 -10081923.06448  -7840454.71846  22793536.9574   22793543.3314   22793536.2974
       179.0004        180.0004
   2447390.97649   2072599.81147  23040215.4224   23040219.6394   23040213.5854
       197.0004        197.0004
  -3109515.72547  -2323294.03445  25400082.9774   25400083.3514   25400081.1614
       160.0004        160.0004
   4207707.14248   3488729.05446  23111350.1744   23111349.3634   23111347.0174
       181.0004        181.0004
  -9145934.73549  -6742519.23647  21831104.3164   21831106.4234   21831104.1784
       199.0004        199.0004
 -11357188.59148  -8685890.14547  22621505.6894   22621506.2314   22621504.6674
       193.0004        193.0004
 02  8  5  1 30  0.0040000  0  8G 3G25G31G 2G27G22G 1G13
  -9411773.30148  -7175070.76346  21942568.5724   21942569.5524   21942566.7914
       186.0004        187.0004
  28994804.21446  23269602.09945  25912463.3864   25912474.8494   25912463.6084
       133.0004        134.0004
 -10134702.41048  -7881581.45946  22783489.8984   22783498.7834   22783489.8284
       175.0004        175.0004
   2523721.25548   2132078.02947  23054739.9934   23054745.2044   23054740.1254
       193.0004        194.0004
  -3153583.91847  -2357632.84945  25391687.5114   25391697.3334   25391687.0054
       156.0004        156.0004
   4323266.11448   3578775.01747  23133329.6884   23133339.0674   23133329.0864
       188.0004        188.0004
  -9089006.99049  -6698159.96947  21841938.0314   21841939.3414   21841937.4444
       201.0004        200.0004
 -11359598.70248  -8687768.12047  22621043.9074   22621048.0684   22621042.5204
       190.0004        190.0004
 02  8  5  1 30 30.0040000  0  8G 3G25G31G 2G27G22G 1G13
  -9381230.53249  -7151271.19247  21948376.1654   21948381.4044   21948374.9644
       196.0004        196.0004
  29107897.84147  23357726.85845  25933981.2364   25933995.0774   25933980.5174
       138.0004        137.0004
 -10187088.53948  -7922401.75046  22773525.4174   22773529.3104   22773523.3134
       177.0004        177.0004
   2600175.79249   2191652.93147  23069289.1234   23069293.9414   23069287.3704
       198.0004        198.0004
  -3197684.93447  -2391997.27545  25383299.5154   25383305.9554   25383297.8534
       159.0004        159.0004
   4438957.77248   3668924.37646  23155354.2364   23155354.9884   23155353.0194
       181.0004        182.0004
  -9031486.44849  -6653338.77847  21852883.0044   21852885.4434   21852882.3074
       200.0004        200.0004
 -11361452.03448  -8689212.21147  22620687.9584   22620695.4594   22620688.4044
       188.0004        188.0004
 02  8  5  1 31  0.0040000  0  8G 3G25G31G 2G27G22G 1G13
  -9350085.01749  -7127001.86947  21954301.7384   21954308.2784   21954301.8514
       196.0004        196.0004
  29221168.49947  23445989.54145  25955538.6584   25955550.7264   25955536.7224
       137.0004        137.0004
 -10239085.14548  -7962918.49746  22763633.5124   22763636.0834   22763632.5594
       186.0004        185.0004
   2676747.31348   2251319.13247  23083860.1794   23083864.8604   23083860.0494
       193.0004        194.0004
  -3241824.66447  -2426391.80945  25374903.6904   25374905.7664   25374902.3324
       158.0004        158.0004
   4554774.26848   3759170.92946  23177386.9124   23177393.7254   23177385.4904
       186.0004        186.0004
  -8973379.92649  -6608060.96847  21863939.4294   21863943.0144   21863938.0994
       197.0004        197.0004
 -11362753.39748  -8690226.20747  22620443.4864   22620447.6064   22620444.0584
       191.0004        191.0004
 02  8  5  1 31 30.0040000  0  8G 3G25G31G 2G27G22G 1G13
  -9318349.67448  -7102273.01046  21960344.8934   21960347.5854   21960344.8124
       185.0004        187.0004
  29334602.97047  23534379.90745  25977133.1524   25977135.5174   25977131.3824
       137.0004        137.0004
 -10290702.49848  -8003139.69846  22753811.0074   22753812.9304   22753810.3624
       186.0004        186.0004
   2753421.96449   2311065.56647  23098450.6654   23098455.8404   23098449.1244
       200.0004        199.0004
  -3286014.94747  -2460825.75145  25366484.2084   25366495.7104   25366485.8514
       153.0004        153.0004
   4670701.03048   3849503.52946  23199446.1224   23199454.2204   23199447.1674
       185.0004        185.0004
  -8914700.67648  -6562336.85747  21875103.3314   21875109.0404   21875101.9894
       194.0004        194.0004
 -11363513.94149  -8690818.81147  22620302.1034   22620302.9104   22620302.3384
       196.0004        195.0004
 02  8  5  1 32  0.0040000  0  8G 3G25G31G 2G27G22G 1G13
  -9286028.27548  -7077087.57747  21966494.5794   21966497.6364   21966492.4434
       194.0004        193.0004
  29448197.47947  23622894.96145  25998750.9744   25998751.8904   25998748.2564
       136.0004        136.0004
 -10341941.39648  -8043066.03046  22744054.6014   22744060.8984   22744054.7844
       176.0004        176.0004
   2830194.93849   2370888.73047  23113061.1834   23113065.3804   23113060.9454
       197.0004        198.0004
  -3330258.91647  -2495301.56245  25358071.5744   25358077.7574   25358069.2624
       155.0004        155.0004
   4786732.85348   3939917.87646  23221533.5624   23221534.1154   23221530.2624
       182.0004        182.0004
  -8855452.81448  -6516169.65847  21886375.3994   21886383.4684   21886375.2504
       192.0004        192.0004
 -11363735.95949  -8690991.80647  22620260.3294   22620261.1334   22620259.9314
       197.0004        197.0004
 02  8  5  1 32 30.0040000  0  8G 3G25G31G 2G27G22G 1G13
  -9253109.45149  -7051436.48447  21972754.5964   21972762.1674   21972754.8324
       202.0004        201.0004
  29561963.11647  23711543.35645  26020390.2954   26020401.0394   26020391.8424
       138.0004        137.0004
 -10392787.61148  -8082686.46546  22734380.0274   22734386.6544   22734378.4054
       176.0004        175.0004
   2907076.88249   2430796.68347  23127690.6044   23127695.6804   23127689.2084
       202.0004        201.0004
  -3374543.94747  -2529809.29645  25349647.0764   25349649.9544   25349645.6744
       158.0004        158.0004
   4902879.61248   4030421.87647  23243626.8234   23243636.3954   23243626.2904
       188.0004        188.0004
  -8795625.13748  -6469550.66147  21897763.2664   21897767.9744   21897763.2154
       194.0004        194.0004
 -11363406.23948  -8690734.87547  22620321.4404   22620323.4834   22620320.5154
       194.0004        194.0004
 02  8  5  1 33  0.0040000  0  8G 3G25G31G 2G27G22G 1G13
  -9219623.53149  -7025343.50147  21979128.5074   21979134.2814   21979128.9654
       195.0004        196.0004
  29675868.85347  23800300.87945  26042060.7144   26042077.0034   26042064.0984
       137.0004        138.0004
 -10443269.06148  -8122022.62946  22724776.7834   22724779.8584   22724774.9714
       182.0004        181.0004
   2984036.32949   2490765.14747  23142335.7274   23142340.6564   23142335.7794
       199.0004        200.0004
  -3418899.82947  -2564372.28245  25341198.9124   25341208.4644   25341198.9344
       155.0004        155.0004
   5019109.49648   4120990.61346  23265754.3144   23265754.1924   23265752.7184
       180.0004        181.0004
  -8735248.66649  -6422504.06347  21909255.4964   21909257.6944   21909255.4754
       200.0004        200.0004
 -11362553.74648  -8690070.56447  22620478.9024   22620485.8144   22620478.7054
       190.0004        190.0004
 02  8  5  1 33 30.0040000  0  7G 3G31G 2G27G22G 1G13
  -9185517.24048  -6998767.23146  21985624.5174   21985624.6774   21985622.3874
       185.0004        186.0004
 -10493330.08348  -8161031.15446  22715251.7534   22715252.4984   22715250.9194
       185.0004        184.0004
   3061125.37449   2550834.47447  23157005.1874   23157010.2604   23157003.5174
       203.0004        202.0004
  -3463272.69747  -2598948.52945  25332761.5514   25332765.5584   25332759.1884
       159.0004        159.0004
   5135473.79848   4211664.05846  23287890.4404   23287897.2144   23287889.0564
       186.0004        186.0004
  -8674270.93649  -6374988.96547  21920860.2704   21920861.3274   21920859.6064
       202.0004        202.0004
 -11361123.96648  -8688956.40747  22620748.8374   22620757.7444   22620749.9954
       188.0004        188.0004
 02  8  5  1 34  0.0040000  0  7G 3G31G 2G27G22G 1G13
  -9150837.23449  -6971743.83647  21992217.6054   21992223.7694   21992216.6744
       197.0004        197.0004
 -10543013.88648  -8199745.73746  22705796.1354   22705799.2054   22705795.9224
       184.0004        184.0004
   3138297.09349   2610968.34447  23171690.6384   23171695.7114   23171690.5744
       199.0004        199.0004
  -3507707.75447  -2633573.11745  25324306.3154   25324309.0304   25324305.0744
       161.0004        161.0004
   5251925.06348   4302405.36046  23310050.6274   23310057.0604   23310051.4204
       183.0004        184.0004
  -8612738.40949  -6327041.55647  21932569.2054   21932570.3034   21932567.9014
       201.0004        200.0004
 -11359160.99248  -8687426.77647  22621126.5644   22621131.6284   22621127.1904
       191.0004        191.0004
 02  8  5  1 34 30.0040000  0  7G 3G31G 2G27G22G 1G13
  -9115565.76149  -6944259.48247  21998928.3604   21998935.6554   21998929.1364
       197.0004        197.0004
 -10592300.04348  -8238150.57046  22696410.1614   22696420.5624   22696409.8814
       175.0004        176.0004
   3215568.33349   2671179.63947  23186395.2014   23186399.4204   23186393.1814
       202.0004        201.0004
  -3552186.22847  -2668231.58845  25315834.4474   25315845.6844   25315834.2884
       156.0004        157.0004
   5368479.51248   4393226.96146  23332235.9674   23332237.0824   23332233.4264
       182.0004        182.0004
  -8550634.05049  -6278648.54747  21944385.0674   21944388.5104   21944383.3144
       197.0004        197.0004
 -11356646.26749  -8685467.24047  22621608.8344   22621609.9584   22621608.6064
       196.0004        195.0004
 02  8  5  1 35  0.0040000  0  7G 3G31G 2G27G22G 1G13
  -9079680.98748  -6916297.31947  22005762.8444   22005764.4514   22005762.5004
       187.0004        189.0004
 -10641164.39948  -8276226.75046  22687118.2474   22687121.0774   22687116.6814
       181.0004        181.0004
   3292959.68149   2731484.64847  23201121.7184   23201126.5134   23201121.5714
       196.0004        197.0004
  -3596685.84447  -2702906.58945  25307373.3034   25307378.0884   25307371.4414
       158.0004        158.0004
   5485156.99348   4484144.50646  23354430.7864   23354439.4454   23354430.8104
       187.0004        187.0004
  -8487936.76848  -6229793.49947  21956312.3454   21956319.5984   21956311.7094
       194.0004        194.0004
 -11353556.35349  -8683059.51847  22622198.0854   22622197.4554   22622197.3374
       196.0004        196.0004
 02  8  5  1 35 30.0040000  0  7G 3G31G 2G27G22G 1G13
  -9043166.57249  -6887844.56947  22012708.9784   22012712.9384   22012707.1154
       197.0004        197.0004
 -10689587.61648  -8313959.06046  22677905.4534   22677907.2904   22677904.2554
       188.0004        187.0004
   3370487.03849   2791895.50747  23215874.5264   23215879.3064   23215872.8354
       199.0004        198.0004
  -3641188.92147  -2737584.22345  25298904.3854   25298907.5894   25298904.4594
       158.0004        157.0004
   5601973.05248   4575170.00946  23376669.9644   23376669.1964   23376668.0084
       180.0004        181.0004
  -8424630.27748  -6180463.74247  21968359.1314   21968367.0214   21968358.9934
       194.0004        194.0004
 -11349873.10148  -8680189.44247  22622897.0194   22622898.6824   22622895.7334
       194.0004        194.0004
 02  8  5  1 36  0.0040000  0  7G 3G31G 2G27G22G 1G13
  -9006103.48549  -6858964.16847  22019758.5784   22019765.8214   22019758.5474
       204.0004        203.0004
 -10737647.74848  -8351408.48447  22668757.7084   22668762.5074   22668757.8864
       188.0004        188.0004
   3448068.62948   2852348.75547  23230637.1674   23230642.5244   23230637.3734
       193.0004        194.0004
  -3685775.36347  -2772326.84145  25290414.8584   25290424.9574   25290414.1434
       155.0004        155.0004
   5718845.37948   4666239.31646  23398901.9534   23398909.1494   23398901.4894
       183.0004        183.0004
  -8360796.03249  -6130722.75347  21980508.4764   21980514.1494   21980508.3974
       197.0004        196.0004
 -11345675.53948  -8676918.57847  22623691.8834   22623697.5914   22623691.0354
       190.0004        191.0004
 02  8  5  1 36 30.0040000  0  7G 3G31G 2G27G22G 1G13
  -8968448.24948  -6829622.38247  22026926.0794   22026931.2024   22026926.7944
       193.0004        195.0004
 -10785298.49648  -8388538.91946  22659686.9444   22659692.8764   22659687.1634
       180.0004        181.0004
   3525747.19149   2912877.44347  23245418.6324   23245424.0794   23245417.4124
       197.0004        197.0004
  -3730400.53347  -2807099.64645  25281927.5984   25281931.5454   25281926.4374
       160.0004        160.0004
   5835815.88148   4757385.21746  23421161.2594   23421167.8434   23421161.1714
       183.0004        183.0004
  -8296391.24149  -6080537.19847  21992767.0074   21992769.9684   21992766.7444
       200.0004        200.0004
 -11340919.05448  -8673212.17347  22624596.1234   22624602.4744   22624596.9544
       191.0004        191.0004
 02  8  5  1 37  0.0040000  0  7G 3G31G 2G27G22G 1G13
  -8930162.32248  -6799789.29347  22034216.3234   22034216.7914   22034213.6874
       188.0004        189.0004
 -10832498.60148  -8425318.25846  22650706.4824   22650712.0724   22650704.1544
       180.0004        180.0004
   3603560.42748   2973511.19647  23260226.9094   23260231.1964   23260226.8414
       194.0004        194.0004
  -3775024.94847  -2841871.79045  25273436.5144   25273440.3404   25273435.9724
       161.0004        161.0004
   5952922.05648   4848636.72346  23443453.3244   23443453.0604   23443450.3434
       179.0004        179.0004
  -8231377.76149  -6029877.36247  22005139.9804   22005141.2114   22005139.1814
       202.0004        202.0004
 -11335563.40649  -8669038.91747  22625619.7754   22625621.9474   22625619.8304
       195.0004        194.0004
 02  8  5  1 37 30.0040000  0  7G 3G31G 2G27G22G 1G13
  -8891244.26049  -6769463.47947  22041615.0844   22041622.4614   22041615.1394
       200.0004        199.0004
 -10879243.61348  -8461742.93947  22641815.8874   22641817.3904   22641814.2434
       188.0004        188.0004
   3681509.57849   3034250.74547  23275060.4154   23275064.5694   23275058.6374
       196.0004        196.0004
  -3819645.77447  -2876641.21045  25264937.0774   25264949.9914   25264937.9014
       156.0004        156.0004
   6070164.28548   4939994.30646  23465753.1314   23465763.1354   23465753.1954
       184.0004        184.0004
  -8165754.37649  -5978742.27847  22017627.5574   22017628.9174   22017626.4064
       201.0004        200.0004
 -11329605.10849  -8664396.08247  22626756.0264   22626755.2604   22626755.8444
       197.0004        197.0004
 02  8  5  1 38  0.0050000  0  7G 3G31G 2G27G22G 1G13
  -8851799.50049  -6738727.22647  22049122.1894   22049128.5694   22049122.9624
       198.0004        198.0004
 -10925639.18748  -8497895.28747  22632985.6974   22632987.8614   22632984.8364
       189.0004        188.0004
   3759489.42648   3095014.33747  23289898.5804   23289903.9054   23289898.8424
       194.0004        194.0004
  -3864370.09247  -2911491.29045  25256435.8744   25256436.4034   25256433.8764
       160.0004        160.0004
   6187438.32748   5031376.68446  23488076.7354   23488080.0434   23488076.3754
       177.0004        178.0004
  -8099626.30749  -5927213.91547  22030209.7104   22030212.8634   22030207.8534
       198.0004        198.0004
 -11323149.59049  -8659365.80847  22627983.4024   22627984.0264   22627982.4344
       197.0004        197.0004
 02  8  5  1 38 30.0050000  0  7G 3G31G 2G27G22G 1G13
  -8811788.32248  -6707549.70147  22056742.8124   22056742.4504   22056741.4344
       188.0004        190.0004
 -10971636.81048  -8533737.56846  22624229.2464   22624234.8964   22624229.5454
       184.0004        184.0004
   3837536.62849   3155830.28247  23304751.4594   23304755.4704   23304749.8154
       197.0004        197.0004
  -3909151.60247  -2946385.86445  25247911.9834   25247916.2454   25247911.9824
       160.0004        160.0004
   6304777.54248   5122809.76746  23510403.6004   23510408.4124   23510402.1394
       179.0004        179.0004
  -8032956.01848  -5875263.02447  22042893.0604   22042899.7454   22042891.4084
       194.0004        194.0004
 -11316153.04648  -8653913.93647  22629312.7444   22629315.4284   22629311.3614
       194.0004        194.0004
 02  8  5  1 39  0.0050000  0  7G 3G31G 2G27G22G 1G13
  -8771197.56349  -6675920.54647  22064460.9554   22064466.5904   22064460.1714
       199.0004        198.0004
 -11017223.33848  -8569259.57546  22615551.7324   22615560.7124   22615550.5874
       180.0004        180.0004
   3915664.93949   3216709.56747  23319617.6044   23319623.0534   23319617.9064
       196.0004        196.0004
  -3953978.19747  -2981315.65445  25239374.7184   25239384.9394   25239375.7214
       155.0004        155.0004
   6422196.59048   5214305.16346  23532742.9694   23532752.2864   23532743.3564
       181.0004        181.0004
  -7965729.97348  -5822879.06147  22055683.9044   22055692.3124   22055683.9404
       192.0004        192.0004
 -11308602.03148  -8648029.97347  22630743.9394   22630752.1594   22630744.5834
       190.0004        190.0004
 02  8  5  1 39 30.0050000  0  7G 3G31G 2G27G22G 1G13
  -8729984.18349  -6643806.13547  22072301.6944   22072309.1744   22072302.1524
       202.0004        202.0004
 -11062352.96848  -8604425.53646  22606969.5654   22606971.1474   22606968.1654
       186.0004        186.0004
   3993917.06149   3277685.20347  23334510.2834   23334513.7824   23334508.5954
       198.0004        197.0004
  -3998805.81947  -3016246.25845  25230854.3114   25230855.3984   25230851.8794
       162.0004        161.0004
   6539737.72448   5305895.59246  23555121.7904   23555120.7474   23555118.8074
       175.0004        176.0004
  -7897905.58249  -5770028.87147  22068593.8284   22068599.0454   22068593.9434
       196.0004        195.0004
 -11300451.73248  -8641679.04547  22632298.1414   22632303.4134   22632298.3124
       191.0004        191.0004
 02  8  5  1 40  0.0050000  0  7G 3G31G 2G27G22G 1G13
  -8688195.04848  -6611243.14347  22080258.2224   22080261.4824   22080258.6164
       191.0004        193.0004
 -11107069.71148  -8639269.66847  22598460.7384   22598462.8434   22598460.3864
       191.0004        190.0004
   4072245.47949   3338720.40447  23349413.4354   23349419.4584   23349413.9284
       197.0004        197.0004
  -4043680.27147  -3051213.28345  25222311.0494   25222315.1114   25222311.4844
       158.0004        159.0004
   6657352.55348   5397543.45946  23577491.8054   23577501.2804   23577490.8764
       182.0004        182.0004
  -7829530.32749  -5716749.46447  22081608.2604   22081610.3794   22081607.7024
       200.0004        199.0004
 -11291747.36849  -8634896.39847  22633958.2334   22633959.4394   22633957.9934
       195.0004        194.0004
 02  8  5  1 40 30.0050000  0  7G 3G31G 2G27G22G 1G13
  -8645762.48548  -6578178.89847  22088334.0484   22088335.8864   22088331.4944
       194.0004        194.0004
 -11151303.01948  -8673737.14746  22590039.2684   22590046.5484   22590039.8864
       187.0004        187.0004
   4150717.37249   3399867.29147  23364348.3334   23364352.2854   23364346.9154
       198.0004        197.0004
  -4088532.20847  -3086162.83145  25213771.1074   25213780.6664   25213771.3704
       158.0004        158.0004
   6775107.81148   5489300.83346  23599904.4064   23599909.8524   23599904.7574
       180.0004        181.0004
  -7760537.22949  -5662988.63047  22094737.3874   22094739.5554   22094736.7344
       201.0004        201.0004
 -11282419.90949  -8627628.24547  22635733.9314   22635734.5714   22635733.1834
       196.0004        196.0004
 02  8  5  1 41  0.0050000  0  7G 3G31G 2G27G22G 1G13
  -8602697.76249  -6544621.92247  22096523.7234   22096530.9574   22096523.8764
       204.0004        203.0004
 -11195060.84748  -8707834.17846  22581711.2284   22581718.5144   22581710.5584
       182.0004        182.0004
   4229321.32149   3461117.18947  23379303.9304   23379310.0714   23379303.8684
       198.0004        198.0004
  -4133371.32547  -3121102.37846  25205246.0984   25205249.6744   25205244.6854
       164.0004        164.0004
   6892991.61548   5581158.24446  23622340.1494   23622342.2644   23622337.5854
       179.0004        179.0004
  -7690937.48349  -5608755.07847  22107982.1334   22107983.3594   22107980.5404
       200.0004        199.0004
 -11272478.77348  -8619881.88947  22637622.8584   22637626.0364   22637621.8994
       193.0004        193.0004
 02  8  5  1 41 30.0050000  0  7G 3G31G 2G27G22G 1G13
  -8559095.42949  -6510646.02547  22104823.0394   22104828.2404   22104823.6674
       199.0004        199.0004
 -11238434.80348  -8741632.02846  22573461.1414   22573464.8344   22573459.6034
       188.0004        187.0004
   4307962.55049   3522396.02647  23394272.6254   23394274.7714   23394270.2524
       197.0004        196.0004
  -4178290.73247  -3156104.42745  25196695.9754   25196700.5194   25196695.6644
       160.0004        161.0004
   7010908.42448   5673041.49646  23644770.8254   23644780.6904   23644771.1724
       184.0004        184.0004
  -7620826.12549  -5554122.86647  22121321.7544   22121325.0864   22121319.9464
       196.0004        196.0004
 -11262016.68148  -8611729.56747  22639609.5654   22639617.1514   22639609.2504
       190.0004        190.0004
 02  8  5  1 42  0.0050000  0  7G 3G31G 2G27G22G 1G13
  -8514945.24248  -6476243.33347  22113229.9034   22113229.5964   22113228.0694
       193.0004        194.0004
 -11281412.14649  -8775120.81047  22565284.4794   22565287.0824   22565284.2604
       195.0004        194.0004
   4386650.28549   3583711.20947  23409241.3984   23409248.6724   23409241.8284
       198.0004        199.0004
  -4223278.87847  -3191160.10045  25188127.8904   25188139.4584   25188128.5674
       156.0004        156.0004
   7128867.47648   5764957.61046  23667227.0584   23667227.7354   23667225.7324
       177.0004        178.0004
  -7550193.70448  -5499084.60047  22134758.2824   22134766.0674   22134757.2504
       192.0004        192.0004
 -11251022.04248  -8603162.25247  22641699.1344   22641708.9784   22641701.0214
       189.0004        189.0004
 02  8  5  1 42 30.0050000  0  7G 3G31G 2G27G22G 1G13
  -8470217.71149  -6441390.69647  22121735.0344   22121741.0694   22121734.3414
       202.0004        201.0004
 -11323959.96248  -8808274.87147  22557185.4824   22557188.8714   22557185.3544
       188.0004        188.0004
   4465414.21248   3645085.64447  23424233.8034   23424236.9004   23424232.1104
       194.0004        194.0004
  -4268304.72047  -3226245.15845  25179570.2854   25179570.6584   25179568.2344
       162.0004        162.0004
   7246897.48648   5856928.99746  23689682.6224   23689687.5844   23689681.1824
       181.0004        180.0004
  -7479010.81648  -5443617.38347  22148303.2644   22148311.5214   22148303.5644
       191.0004        191.0004
 -11239463.29148  -8594155.39447  22643905.2244   22643908.8044   22643905.0604
       193.0004        192.0004
 02  8  5  1 43  0.0050000  0  7G 3G31G 2G27G22G 1G13
  -8424835.59549  -6406027.93147  22130370.7724   22130377.1194   22130371.0314
       201.0004        200.0004
 -11365997.96148  -8841031.73346  22549181.6004   22549190.6324   22549181.6234
       183.0004        183.0004
   4544331.15049   3706579.42547  23439247.1504   23439254.6194   23439247.2254
       198.0004        198.0004
  -4313289.04147  -3261297.78146  25171006.8224   25171011.5454   25171006.0214
       163.0004        163.0004
   7365074.83748   5949015.27746  23712168.5434   23712177.1624   23712168.7484
       183.0004        183.0004
  -7407200.69548  -5387661.43947  22161972.6014   22161976.1974   22161972.1124
       194.0004        194.0004
 -11227261.64349  -8584647.60347  22646230.0454   22646230.0944   22646229.5874
       196.0004        195.0004
 02  8  5  1 43 30.0050000  0  7G 3G31G 2G27G22G 1G13
  -8378839.01948  -6370186.43247  22139128.9494   22139129.9804   22139128.2494
       190.0004        191.0004
 -11407563.56548  -8873420.52447  22541277.2164   22541281.2994   22541275.5804
       189.0004        189.0004
   4623360.82349   3768160.94147  23454291.5494   23454293.3214   23454289.0864
       195.0004        195.0004
  -4358270.81547  -3296348.50245  25162441.3644   25162452.1214   25162440.8464
       159.0004        159.0004
   7483358.56148   6041184.36946  23734686.5314   23734685.2514   23734683.6634
       177.0004        178.0004
  -7334804.06749  -5331248.50047  22175750.9084   22175753.4194   22175750.2724
       198.0004        198.0004
 -11214455.64048  -8574668.89447  22648665.6404   22648667.1694   22648664.9314
       194.0004        194.0004
 02  8  5  1 44  0.0050000  0  7G 3G31G 2G27G22G 1G13
  -8332236.01249  -6333872.45147  22147993.8954   22147997.8154   22147992.8814
       195.0004        195.0004
 -11448661.89848  -8905445.12947  22533456.9694   22533458.4114   22533456.3864
       191.0004        191.0004
   4702494.61949   3829823.70547  23469344.7654   23469351.9994   23469344.6854
       199.0004        199.0004
  -4403256.52248  -3331402.25046  25153888.7304   25153889.9514   25153887.7074
       165.0004        164.0004
   7601739.67348   6133429.36246  23757204.1084   23757211.9004   23757203.3244
       180.0004        180.0004
  -7261829.54349  -5274385.24747  22189638.3504   22189640.0494   22189637.5954
       200.0004        200.0004
 -11201051.79448  -8564224.30347  22651212.9894   22651217.2054   22651211.0784
       188.0004        189.0004
 02  8  5  1 44 30.0050000  0  7G 3G31G 2G27G22G 1G13
  -8285035.58349  -6297092.82647  22156973.2034   22156980.0204   22156973.0864
       201.0004        201.0004
 -11489298.68148  -8937110.07447  22525723.4144   22525727.2484   22525723.2764
       192.0004        191.0004
   4781723.90748   3891560.78347  23484427.3124   23484428.5914   23484425.4624
       194.0004        194.0004
  -4448253.20147  -3366464.49646  25145324.0494   25145328.0534   25145324.0664
       163.0004        163.0004
   7720208.86648   6225743.07646  23779749.3664   23779757.0044   23779749.7094
       178.0004        178.0004
  -7188286.26749  -5217078.81947  22203633.2114   22203634.8074   22203631.8164
       200.0004        200.0004
 -11187057.21148  -8553319.37246  22653870.6494   22653880.1324   22653872.3924
       186.0004        186.0004
 02  8  5  1 45  0.0050000  0  7G 3G31G 2G27G22G 1G13
  -8237250.86048  -6259857.93847  22166068.9194   22166073.3444   22166069.8144
       194.0004        196.0004
 -11529484.18948  -8968423.45546  22518071.1074   22518079.2464   22518070.6784
       183.0004        184.0004
   4861034.65649   3953361.42147  23499514.1914   23499520.8174   23499513.6724
       201.0004        200.0004
  -4493272.51747  -3401544.46445  25136751.5914   25136760.9474   25136751.8394
       158.0004        158.0004
   7838751.97748   6318114.27546  23802315.2114   23802314.0694   23802312.1814
       174.0004        174.0004
  -7114188.22049  -5159340.09347  22217731.5534   22217735.1074   22217729.5744
       196.0004        196.0004
 -11172483.91948  -8541963.51647  22656649.7934   22656653.8694   22656650.0364
       191.0004        191.0004
 02  8  5  1 45 30.0050000  0  7G 3G31G 2G27G22G 1G13
  -8188840.17048  -6222135.39547  22175284.8364   22175285.3794   22175282.7794
       194.0004        194.0004
 -11569173.45548  -8999350.14947  22510523.6374   22510526.0714   22510522.5314
       189.0004        188.0004
   4940468.94348   4015258.27347  23514635.4134   23514636.8384   23514633.9234
       193.0004        193.0004
  -4538270.89948  -3436608.10446  25128197.1584   25128199.0504   25128195.0254
       165.0004        165.0004
   7957410.29848   6410575.30346  23824884.9984   23824894.5294   23824884.5754
       180.0004        180.0004
  -7039493.79248  -5101136.62147  22231941.1734   22231949.0994   22231940.2594
       192.0004        193.0004
 -11157288.29349  -8530122.76247  22659545.5384   22659545.0944   22659545.4044
       196.0004        196.0004
 02  8  5  1 46  0.0050000  0  7G 3G31G 2G27G22G 1G13
  -8139824.99549  -6183941.72347  22184606.1244   22184612.8144   22184605.6294
       204.0004        204.0004
 -11608385.02049  -9029904.54247  22503062.9084   22503065.9994   22503062.1734
       195.0004        194.0004
   5020005.10749   4077234.53847  23529765.1124   23529771.9574   23529764.4904
       199.0004        199.0004
  -4583268.02047  -3471670.68045  25119629.8944   25119634.3444   25119629.4344
       160.0004        160.0004
   8076161.56948   6503108.77646  23847487.7084   23847491.8124   23847487.5764
       173.0004        173.0004
  -6964225.03948  -5042485.61547  22246264.3894   22246272.2024   22246264.5414
       193.0004        192.0004
 -11141489.59749  -8517812.08647  22662551.3464   22662551.9014   22662550.8414
       196.0004        196.0004
 02  8  5  1 46 30.0050000  0  7G 3G31G 2G27G22G 1G13
  -8090253.51149  -6145314.53647  22194039.6044   22194045.9144   22194040.3584
       203.0004        203.0004
 -11647164.00448  -9060121.88047  22495682.2414   22495685.8724   22495682.1464
       193.0004        193.0004
   5099595.07348   4139252.70547  23544916.8554   23544917.6564   23544915.4344
       191.0004        192.0004
  -4628310.17947  -3506768.42945  25111054.6444   25111064.6364   25111055.4854
       160.0004        160.0004
   8194957.17448   6595676.70946  23870097.1504   23870098.4054   23870094.1034
       170.0004        171.0004
  -6888430.51149  -4983424.93247  22260690.4734   22260695.5294   22260690.3534
       196.0004        196.0004
 -11125134.77948  -8505068.04747  22665661.1134   22665663.9044   22665659.5404
       193.0004        193.0004
 02  8  5  1 47  0.0050000  0  7G 3G31G 2G27G22G 1G13
  -8040077.17449  -6106216.12547  22203593.6844   22203594.2384   22203592.5824
       195.0004        197.0004
 -11685458.67748  -9089961.84046  22488391.2484   22488397.4644   22488390.4334
       184.0004        184.0004
   5179287.03949   4201350.35547  23560075.2474   23560082.3774   23560074.3304
       198.0004        198.0004
  -4673347.00747  -3541861.98746  25102492.3014   25102493.8664   25102490.3434
       163.0004        163.0004
   8313844.94248   6688316.56046  23892709.0264   23892721.5744   23892710.0264
       175.0004        175.0004
  -6812062.09449  -4923917.08247  22275226.1144   22275227.8374   22275225.4374
       200.0004        200.0004
 -11108173.66848  -8491851.54447  22668882.8354   22668891.3704   22668883.8464
       189.0004        189.0004
 02  8  5  1 47 30.0050000  0  7G 3G31G 2G27G22G 1G13
  -7989397.23249  -6066725.27047  22213232.8414   22213237.9644   22213231.8174
       204.0004        204.0004
 -11723367.53848  -9119501.22747  22481181.0854   22481185.6924   22481179.7894
       192.0004        191.0004
   5258979.89748   4263448.71347  23575246.1854   23575247.2224   23575245.4334
       189.0004        190.0004
  -4718478.43947  -3577029.23045  25093900.2614   25093905.4304   25093899.8754
       159.0004        160.0004
   8432723.03348   6780948.86446  23915342.1814   23915343.2154   23915340.9204
       169.0004        170.0004
  -6735221.61849  -4864041.41247  22289848.6684   22289850.5234   22289847.9524
       203.0004        202.0004
 -11090705.94848  -8478240.28647  22672211.2994   22672215.1094   22672211.6324
       191.0004        191.0004
 02  8  5  1 48  0.0050000  0  7G 3G31G 2G27G22G 1G13
  -7938111.75449  -6026762.48747  22222991.0804   22222997.1604   22222990.9404
       206.0004        206.0004
 -11760785.29049  -9148657.84547  22474062.0574   22474063.6684   22474061.5234
       195.0004        194.0004
   5338775.78549   4325627.31147  23590424.6874   23590432.1224   23590423.7424
       196.0004        196.0004
  -4763599.96447  -3612188.82245  25085310.5454   25085318.4994   25085310.1754
       160.0004        159.0004
   8551693.18848   6873652.78646  23937978.9434   23937983.6794   23937976.4744
       173.0004        173.0004
  -6657807.41949  -4803718.67147  22304579.3724   22304581.3524   22304578.1384
       200.0004        199.0004
 -11072627.71749  -8464153.34547  22675655.7844   22675655.3294   22675655.7934
       195.0004        195.0004
 02  8  5  1 48 30.0050000  0  7G 3G31G 2G27G22G 1G13
  -7886225.48649  -5986331.60047  22232868.3004   22232870.8244   22232868.1914
       198.0004        199.0004
 -11797713.77248  -9177433.19247  22467032.1874   22467036.5244   22467032.2654
       191.0004        191.0004
   5418669.73448   4387882.37647  23605633.0734   23605635.2564   23605632.9124
       188.0004        190.0004
  -4808714.78948  -3647343.15746  25076731.7044   25076733.4334   25076730.9844
       166.0004        166.0004
   8670749.79048   6966424.19246  23960628.0994   23960638.1404   23960628.5024
       177.0004        177.0004
  -6579824.96849  -4742953.12847  22319417.4674   22319420.9184   22319415.8514
       197.0004        197.0004
 -11053942.37149  -8449593.34447  22679212.0904   22679211.1394   22679211.2254
       196.0004        196.0004
 02  8  5  1 49  0.0050000  0  7G 3G31G 2G27G22G 1G13
  -7833770.30949  -5945457.47847  22242851.3774   22242852.9684   22242849.0914
       198.0004        198.0004
 -11834181.72748  -9205849.77847  22460090.7214   22460097.9274   22460089.6694
       187.0004        188.0004
   5498629.87449   4450188.93747  23620845.0624   23620851.4824   23620843.1824
       197.0004        197.0004
  -4853852.72948  -3682515.45446  25068140.4954   25068144.5694   25068139.4314
       165.0004        165.0004
   8789860.70548   7059237.85446  23983305.7524   23983304.5414   23983303.1234
       169.0004        170.0004
  -6501306.55648  -4681769.93747  22334354.9774   22334362.5604   22334354.4174
       194.0004        195.0004
 -11034680.28048  -8434583.90147  22682874.5174   22682876.7294   22682872.9744
       193.0004        193.0004
 02  8  5  1 49 30.0050000  0  7G 3G31G 2G27G22G 1G13
  -7780728.32849  -5904126.01447  22252939.4554   22252946.5374   22252939.1514
       204.0004        204.0004
 -11870167.94248  -9233890.99547  22453246.3474   22453248.3524   22453244.7524
       190.0004        190.0004
   5578674.71248   4512561.58747  23636079.4974   23636083.4894   23636079.5344
       190.0004        192.0004
  -4898993.75247  -3717690.24545  25059544.9594   25059553.7344   25059545.3024
       162.0004        162.0004
   8909043.48248   7152107.50646  24005978.7194   24005983.7724   24005976.9734
       173.0004        174.0004
  -6422234.53748  -4620155.33947  22349401.3124   22349409.8514   22349401.7164
       194.0004        194.0004
 -11014821.54748  -8419109.50847  22686648.0544   22686655.9774   22686648.3044
       190.0004        190.0004
 02  8  5  1 50  0.0050000  0  7G 3G31G 2G27G22G 1G13
  -7727097.47249  -5862335.67247  22263146.3234   22263151.9244   22263146.5594
       198.0004        198.0004
 -11905667.52249  -9261552.90047  22446492.2894   22446493.8254   22446491.6184
       196.0004        196.0004
   5658806.27949   4575001.70547  23651326.6314   23651331.9954   23651324.4804
       197.0004        197.0004
  -4944133.64848  -3752864.11246  25050962.1924   25050964.5204   25050961.0624
       166.0004        166.0004
   9028299.87148   7245034.60346  24028668.4514   24028679.0244   24028668.3854
       177.0004        176.0004
  -6342607.37549  -4558108.19947  22364557.7414   22364561.5494   22364557.3424
       196.0004        196.0004
 -10994362.29448  -8403167.18247  22690544.8044   22690548.8914   22690545.6744
       193.0004        193.0004
 02  8  5  1 50 30.0050000  0  7G 3G31G 2G27G22G 1G13
  -7672855.24448  -5820069.03347  22273474.3874   22273473.6164   22273472.5394
       188.0004        189.0004
 -11940654.63548  -9288815.52647  22439830.1634   22439836.5524   22439830.6314
       191.0004        192.0004
   5739047.06748   4637527.05147  23666596.3364   23666601.4804   23666596.3664
       194.0004        195.0004
  -4989248.26848  -3788018.24946  25042373.6404   25042379.0434   25042374.0984
       166.0004        166.0004
   9147652.09448   7338036.31346  24051391.7884   24051389.7444   24051388.9984
       172.0004        173.0004
  -6262402.95249  -4495611.25447  22379821.1614   22379824.3154   22379820.9874
       199.0004        198.0004
 -10973278.61149  -8386738.33247  22694560.9234   22694561.2634   22694561.0084
       198.0004        197.0004
 02  8  5  1 51  0.0050000  0  7G 3G31G 2G27G22G 1G13
  -7618036.81249  -5777353.37147  22283898.8934   22283904.9824   22283898.0664
       195.0004        195.0004
 -11975160.96348  -9315703.56146  22433263.2204   22433268.9994   22433262.0704
       185.0004        185.0004
   5819362.41449   4700110.38047  23681880.6964   23681884.5444   23681878.5944
       198.0004        197.0004
  -5034370.02147  -3823178.01745  25033785.3424   25033792.9554   25033784.1674
       162.0004        162.0004
   9267064.98248   7431085.26746  24074107.5924   24074113.9414   24074106.5994
       176.0004        176.0004
  -6181656.71149  -4432692.11047  22395188.1264   22395190.3104   22395187.5574
       201.0004        201.0004
 -10951603.57349  -8369848.68847  22698685.5714   22698685.5994   22698685.0144
       197.0004        197.0004
 02  8  5  1 51 30.0050000  0  7G 3G31G 2G27G22G 1G13
  -7562691.24349  -5734226.86447  22294429.8014   22294436.9584   22294430.0524
       195.0004        195.0004
 -12009232.72548  -9342252.97547  22426783.0624   22426787.3734   22426781.6294
       194.0004        193.0004
   5899703.22549   4762713.67347  23697167.0044   23697172.8164   23697167.1084
       197.0004        197.0004
  -5079546.19448  -3858380.16546  25025193.8804   25025195.6414   25025193.2764
       168.0004        168.0004
   9386488.79348   7524142.80046  24096829.8084   24096838.3554   24096829.9964
       177.0004        177.0004
  -6100418.25749  -4369389.43547  22410647.0664   22410649.2594   22410646.1364
       201.0004        200.0004
 -10929385.33948  -8352535.76147  22702910.9734   22702913.7394   22702909.5714
       193.0004        194.0004
 02  8  5  1 52  0.0050000  0  7G 3G31G 2G27G22G 1G13
  -7506738.45848  -5690627.28146  22305084.3154   22305084.6374   22305083.7274
       183.0004        185.0004
 -12042787.03549  -9368399.12747  22420399.4344   22420400.8044   22420398.5624
       198.0004        198.0004
   5980149.78349   4825399.24647  23712479.0904   23712481.8364   23712476.8784
       196.0004        196.0004
  -5124694.69948  -3893560.68446  25016599.9534   25016603.4154   25016599.3704
       165.0004        165.0004
   9506003.33248   7617270.97346  24119583.2964   24119582.6054   24119580.6164
       173.0004        174.0004
  -6018608.21849  -4305641.35847  22426212.7414   22426217.0014   22426211.1914
       197.0004        197.0004
 -10906542.32348  -8334735.95447  22707251.9604   22707260.5504   22707253.1494
       191.0004        191.0004
 02  8  5  1 52 30.0050000  0  7G 3G31G 2G27G22G 1G13
  -7450213.64348  -5646582.03347  22315837.2634   22315840.8954   22315835.3094
       189.0004        189.0004
 -12075855.82848  -9394166.93847  22414101.5184   22414107.3864   22414101.8534
       189.0004        189.0004
   6060667.13049   4888140.09647  23727796.5204   23727803.5024   23727796.1784
       198.0004        199.0004
  -5169848.42047  -3928745.37246  25008003.7604   25008012.8554   25008002.5194
       163.0004        163.0004
   9625573.12548   7710442.16646  24142327.8294   24142335.3664   24142326.8334
       175.0004        176.0004
  -5936262.22549  -4241475.62647  22441880.0214   22441887.4684   22441879.3474
       195.0004        195.0004
 -10883107.21348  -8316474.78447  22711715.1394   22711720.1554   22711716.0264
       194.0004        193.0004
 02  8  5  1 53  0.0050000  0  7G 3G31G 2G27G22G 1G13
  -7393104.20649  -5602081.09347  22326700.8214   22326708.4754   22326700.8914
       195.0004        195.0004
 -12108423.00348  -9419544.00547  22407904.4674   22407910.9544   22407903.4084
       188.0004        188.0004
   6141268.56848   4950946.36847  23743139.9604   23743141.1294   23743138.0834
       192.0004        192.0004
  -5214992.47948  -3963922.47646  24999420.5194   24999420.8034   24999419.6234
       169.0004        169.0004
   9745210.85848   7803666.39146  24165091.5204   24165101.2334   24165091.6334
       175.0004        176.0004
  -5853367.82648  -4176882.56547  22457653.4934   22457661.5284   22457653.3364
       194.0004        194.0004
 -10859066.06249  -8297741.40747  22716294.4224   22716295.1484   22716294.2694
       197.0004        197.0004
 02  8  5  1 53 30.0050000  0  7G 3G31G 2G27G22G 1G13
  -7335418.49748  -5557131.13046  22337681.0324   22337685.7954   22337682.1154
       185.0004        187.0004
 -12140494.09348  -9444534.43147  22401806.3354   22401806.8004   22401804.7574
       194.0004        194.0004
   6221945.73549   5013811.73147  23758486.2854   23758493.4704   23758485.5484
       197.0004        197.0004
  -5260133.20048  -3999096.93446  24990825.6944   24990831.7724   24990825.3804
       166.0004        167.0004
   9864907.97748   7896936.82446  24187881.2044   24187879.8774   24187878.0804
       170.0004        171.0004
  -5769934.05149  -4111869.21947  22473532.1784   22473537.9804   22473532.2814
       195.0004        195.0004
 -10834426.24049  -8278541.54447  22720982.8994   22720983.7274   22720982.3384
       197.0004        197.0004
 02  8  5  1 54  0.0050000  0  7G 3G31G 2G27G22G 1G13
  -7277176.93348  -5511748.17946  22348769.3254   22348768.8474   22348765.8524
       182.0004        182.0004
 -12172086.24949  -9469151.59847  22395793.7624   22395795.6884   22395793.2564
       197.0004        196.0004
   6302678.81548   5076720.60847  23773857.2794   23773856.5824   23773854.9304
       188.0004        189.0004
  -5305288.40147  -4034282.77945  24982228.8214   24982237.7694   24982228.7764
       163.0004        162.0004
   9984643.79848   7990237.38846  24210659.1684   24210663.9954   24210657.0384
       171.0004        172.0004
  -5685981.54049  -4046451.68747  22489511.1444   22489513.7164   22489510.7784
       199.0004        199.0004
 -10809205.72448  -8258889.17347  22725778.5814   22725783.0694   22725777.4674
       193.0004        194.0004
 02  8  5  1 54 30.0050000  0  7G 3G31G 2G27G22G 1G13
  -7218380.41249  -5465932.65047  22359949.2004   22359957.3344   22359948.7514
       195.0004        195.0004
 -12203196.91548  -9493393.64747  22389867.8134   22389876.3224   22389867.5264
       186.0004        188.0004
   6383467.40649   5139672.76047  23789222.1274   23789229.7884   23789221.5004
       195.0004        195.0004
  -5350456.66848  -4069478.74146  24973642.2614   24973641.9624   24973640.9844
       169.0004        169.0004
  10104417.72748   8083567.74946  24233446.2394   24233456.7664   24233446.5504
       175.0004        175.0004
  -5601511.49849  -3980630.88747  22505585.6924   22505588.4384   22505585.2464
       201.0004        200.0004
 -10783403.67248  -8238783.63047  22730684.0354   22730692.6324   22730685.4574
       191.0004        191.0004
 02  8  5  1 55  0.0050000  0  7G 3G31G 2G27G22G 1G13
  -7159017.93648  -5419676.08447  22371247.0484   22371253.7824   22371247.3534
       190.0004        191.0004
 -12233812.01848  -9517249.61147  22384046.6944   22384048.7284   22384044.6804
       189.0004        189.0004
   6464323.02148   5202677.15446  23804616.0364   23804616.2104   23804614.9204
       184.0004        186.0004
  -5395624.52848  -4104674.36146  24965042.9914   24965048.1724   24965041.9834
       167.0004        167.0004
  10224240.60048   8176936.19446  24256259.3304   24256257.9224   24256256.7954
       168.0004        168.0004
  -5516513.56549  -3914398.73947  22521760.5314   22521762.6844   22521759.3054
       202.0004        201.0004
 -10757007.77148  -8218215.35547  22735711.1954   22735716.0604   22735711.8564
       194.0004        194.0004
 02  8  5  1 55 30.0050000  0  7G 3G31G 2G27G22G 1G13
  -7099068.13748  -5372962.01246  22382662.5684   22382661.9494   22382660.9004
       178.0004        180.0004
 -12263907.44249  -9540700.49447  22378321.2504   22378323.4524   22378320.0034
       197.0004        196.0004
   6545266.87948   5265750.26747  23820012.6854   23820019.2754   23820010.9594
       193.0004        193.0004
  -5440768.64247  -4139851.56246  24956449.2554   24956457.3034   24956448.6534
       164.0004        164.0004
  10344133.38848   8270359.07346  24279068.5364   24279073.1964   24279066.3034
       168.0004        167.0004
  -5430967.28749  -3847739.32047  22538038.5294   22538041.1234   22538037.1094
       199.0004        198.0004
 -10729995.47449  -8197166.80647  22740856.2704   22740855.9354   22740855.7674
       197.0004        197.0004
 02  8  5  1 56  0.0050000  0  7G 3G31G 2G27G22G 1G13
  -7038503.83548  -5325769.06247  22394179.8454   22394186.2684   22394178.7344
       194.0004        194.0004
 -12293452.33048  -9563722.42347  22372696.5744   22372700.1684   22372696.1494
       192.0004        192.0004
   6626327.48748   5328914.42246  23835441.8494   23835444.7674   23835441.8224
       185.0004        187.0004
  -5485859.04148  -4174986.86846  24947873.9304   24947877.2164   24947873.3074
       171.0004        171.0004
  10464123.96248   8363858.23146  24301895.9194   24301905.3444   24301896.1474
       168.0004        168.0004
  -5344845.28249  -3780631.25847  22554423.4374   22554430.0584   22554422.3994
       195.0004        195.0004
 -10702337.30049  -8175614.98947  22746118.3254   22746119.2434   22746117.5174
       197.0004        197.0004
 02  8  5  1 56 30.0050000  0  7G 3G31G 2G27G22G 1G13
  -6977347.53749  -5278114.71647  22405817.2474   22405824.5804   22405817.4154
       196.0004        196.0004
 -12322465.75048  -9586330.25046  22367170.7244   22367179.5714   22367170.2594
       184.0004        185.0004
   6707482.91349   5392152.37047  23850883.1034   23850888.3124   23850880.6834
       195.0004        195.0004
  -5530915.25748  -4210095.49246  24939297.5634   24939302.5324   24939297.1534
       167.0004        167.0004
  10584189.92347   8457416.11846  24324754.1284   24324753.1394   24324752.4714
       162.0004        163.0004
  -5258170.31249  -3713092.28847  22570915.9034   22570923.7674   22570915.9994
       195.0004        195.0004
 -10674054.32748  -8153576.29347  22751496.4284   22751501.5034   22751495.5684
       193.0004        194.0004
 02  8  5  1 57  0.0050000  0  7G 3G31G 2G27G22G 1G13
  -6915678.98148  -5230061.29446  22417559.8654   22417559.3334   22417559.1754
       182.0004        185.0004
 -12351024.89449  -9608584.16647  22361743.8414   22361745.1024   22361741.5854
       195.0004        195.0004
   6788653.39148   5455402.16547  23866328.8384   23866335.1184   23866329.1244
       193.0004        194.0004
  -5576015.56848  -4245238.57946  24930711.8534   24930719.6584   24930712.1014
       166.0004        166.0004
  10704250.98947   8550970.11946  24347596.8424   24347600.4954   24347594.7194
       164.0004        164.0004
  -5171023.05549  -3645185.32347  22587501.3094   22587507.0474   22587500.8554
       195.0004        195.0004
 -10645225.56848  -8131112.28047  22756979.0254   22756987.3794   22756980.4774
       192.0004        192.0004
 02  8  5  1 57 30.0050000  0  7G 3G31G 2G27G22G 1G13
  -6853398.87548  -5181531.40347  22429406.7774   22429410.2134   22429404.8464
       189.0004        189.0004
 -12379026.94949  -9630403.85147  22356414.0984   22356414.9174   22356413.3744
       195.0004        195.0004
   6869939.20348   5518741.69147  23881798.9684   23881802.7274   23881796.9704
       194.0004        194.0004
  -5621057.49048  -4280336.14346  24922147.9214   24922148.0314   24922146.5374
       170.0004        171.0004
  10824406.90348   8644598.13246  24370455.1584   24370465.7324   24370455.4994
       168.0004        168.0004
  -5083304.56749  -3576833.25247  22604195.0634   22604198.7514   22604195.1524
       196.0004        195.0004
 -10615748.44649  -8108143.06147  22762594.5944   22762596.9714   22762594.4424
       195.0004        195.0004
 02  8  5  1 58  0.0050000  0  7G 3G31G 2G27G22G 1G13
  -6790564.32749  -5132569.32947  22441359.8824   22441367.5044   22441359.9324
       196.0004        195.0004
 -12406525.64648  -9651831.34247  22351177.7164   22351182.9304   22351177.3344
       188.0004        189.0004
   6951283.84649   5582127.19247  23897275.0394   23897282.3854   23897275.0164
       196.0004        196.0004
  -5666095.40448  -4315430.48946  24913572.2274   24913578.8714   24913572.4294
       166.0004        167.0004
  10944600.94448   8738255.84046  24393335.9564   24393338.8934   24393334.9924
       165.0004        165.0004
  -4995072.19349  -3508080.75547  22620988.5494   22620989.5684   22620987.6264
       200.0004        199.0004
 -10585678.68849  -8084712.08647  22768319.6364   22768318.9234   22768319.0604
       199.0004        199.0004
 02  8  5  1 58 30.0060000  0  7G 3G31G 2G27G22G 1G13
  -6727189.40848  -5083186.22546  22453423.5064   22453427.7694   22453424.3154
       186.0004        187.0004
 -12433534.90948  -9672877.54746  22346037.1064   22346043.4794   22346035.6024
       186.0004        186.0004
   7032674.61648   5645548.51947  23912768.4214   23912770.4874   23912766.7404
       193.0004        193.0004
  -5711144.84947  -4350533.94946  24904997.6294   24905006.2594   24904996.7354
       163.0004        163.0004
  11064820.89748   8831933.64646  24416213.7604   24416215.2494   24416211.7084
       166.0004        166.0004
  -4906339.66249  -3438938.54547  22637872.7024   22637874.4384   22637871.8354
       200.0004        199.0004
 -10555030.54449  -8060830.43047  22774150.5614   22774150.9154   22774149.4514
       198.0004        198.0004
 02  8  5  1 59  0.0060000  0  7G 3G31G 2G27G22G 1G13
  -6663275.11448  -5033382.96446  22465591.1504   22465590.2584   22465587.9034
       183.0004        183.0004
 -12460046.89349  -9693536.18947  22340997.4064   22340997.9534   22340996.1654
       196.0004        195.0004
   7114109.45249   5709004.27447  23928258.3074   23928266.9044   23928258.1734
       198.0004        198.0004
  -5756197.15548  -4385639.58346  24896430.8254   24896432.1294   24896429.5314
       171.0004        170.0004
  11185061.86348   8925627.91046  24439086.7524   24439096.2364   24439086.4034
       173.0004        173.0004
  -4817110.33949  -3369409.21747  22654851.3884   22654853.6114   22654849.8114
       196.0004        196.0004
 -10523802.07748  -8036496.53947  22780088.5564   22780093.4684   22780087.7764
       194.0004        194.0004
 02  8  5  1 59 30.0060000  0  7G 3G31G 2G27G22G 1G13
  -6598813.16649  -4983152.83147  22477849.1594   22477856.7514   22477848.9924
       195.0004        194.0004
 -12486052.72949  -9713800.38147  22336046.3044   22336050.1704   22336046.0834
       195.0004        195.0004
   7195598.56748   5772502.27247  23943774.0784   23943773.6534   23943772.1914
       189.0004        190.0004
  -5801244.53748  -4420741.31846  24887857.3114   24887859.6294   24887856.7174
       169.0004        170.0004
  11305334.69448   9019347.01046  24461977.2114   24461984.2354   24461978.0484
       172.0004        172.0004
  -4727375.18149  -3299485.72547  22671925.9204   22671930.9274   22671924.3744
       195.0004        194.0004
 -10491982.99148  -8011702.39747  22786141.7764   22786148.2774   22786142.5764
       193.0004        193.0004
 02  8  5  2  0  0.0060000  0  7G 3G31G 2G27G22G 1G13
  -6533836.53648  -4932521.61147  22490214.9654   22490221.0464   22490215.5924
       190.0004        191.0004
 -12511582.23048  -9733693.48846  22331184.5324   22331190.8534   22331183.8214
       185.0004        186.0004
   7277109.50149   5836017.27947  23959276.3054   23959284.5344   23959275.3154
       195.0004        196.0004
  -5846317.20347  -4455862.84546  24879272.0794   24879284.0094   24879272.4884
       164.0004        164.0004
  11425606.69748   9113065.39946  24484871.7474   24484870.3604   24484868.7534
       169.0004        169.0004
  -4637167.80648  -3229194.24847  22689087.5404   22689096.6004   22689087.3924
       192.0004        192.0004
 -10459605.06749  -7986472.82047  22792307.8654   22792310.0184   22792308.1194
       197.0004        197.0004
 02  8  5  2  0 30.0060000  0  7G 3G31G 2G27G22G 1G13
  -6468297.74848  -4881452.46846  22502694.6304   22502693.1174   22502693.4204
       178.0004        179.0004
 -12536584.84148  -9753176.02647  22326430.8824   22326433.4294   22326428.5444
       191.0004        190.0004
   7358690.65748   5899587.03446  23974807.9234   23974808.5684   23974807.6174
       185.0004        187.0004
  -5891365.19448  -4490965.14946  24870709.6624   24870709.6894   24870708.1164
       171.0004        171.0004
  11545925.41248   9206820.21746  24507758.5894   24507766.3294   24507757.7294
       173.0004        173.0004
  -4546441.15348  -3158498.13347  22706352.8724   22706360.9754   22706353.3274
       191.0004        191.0004
 -10426619.78249  -7960770.00647  22798587.3024   22798586.5854   22798587.0254
       200.0004        199.0004
 02  8  5  2  1  0.0060000  0  7G 3G31G 2G27G22G 1G13
  -6402194.23848  -4829943.26047  22515265.9124   22515272.3074   22515264.7334
       189.0004        189.0004
 -12561054.51749  -9772243.25247  22321775.5074   22321777.6054   22321774.6634
       197.0004        197.0004
   7440345.49948   5963214.14047  23990341.2324   23990347.2344   23990339.1104
       193.0004        193.0004
  -5936383.12548  -4526043.96246  24862141.6674   24862144.4084   24862141.3354
       172.0004        172.0004
  11666293.99148   9300613.92946  24530663.2534   24530671.6924   24530663.6614
       172.0004        172.0004
  -4455192.96448  -3087395.65247  22723720.0204   22723725.0814   22723719.9974
       193.0004        193.0004
 -10393022.17849  -7934590.05747  22804979.2934   22804979.4524   22804977.9534
       197.0004        197.0004
 02  8  5  2  1 30.0060000  0  7G 3G31G 2G27G22G 1G13
  -6335588.02048  -4778042.22147  22527939.1964   22527946.5754   22527939.6614
       193.0004        193.0004
 -12585049.97748  -9790940.92047  22317205.2684   22317209.9804   22317205.2374
       188.0004        189.0004
   7522012.81548   6026851.07047  24005882.8974   24005888.0284   24005883.5704
       189.0004        190.0004
  -5981429.77747  -4561145.20546  24853560.8344   24853570.8934   24853561.5154
       164.0004        165.0004
  11786651.03948   9394398.61946  24553576.6284   24553575.1134   24553573.7914
       168.0004        168.0004
  -4363485.47949  -3015935.27347  22741173.9704   22741176.7984   22741173.3974
       197.0004        197.0004
 -10358872.88248  -7907980.17847  22811471.9454   22811477.7954   22811471.2594
       193.0004        193.0004
 02  8  5  2  2  0.0060000  0  7G 3G31G 2G27G22G 1G13
  -6268372.57648  -4725666.53446  22540735.8034   22540737.6544   22540735.9664
       182.0004        184.0004
 -12608461.85248  -9809183.98146  22312749.5544   22312756.5844   22312748.3304
       187.0004        187.0004
   7603799.57248   6090580.95147  24021447.8134   24021451.1284   24021445.9644
       191.0004        191.0004
  -6026396.61548  -4596184.28646  24845014.4974   24845014.7664   24845011.8174
       172.0004        171.0004
  11907102.79948   9488257.07646  24576490.7064   24576496.2744   24576489.3314
       169.0004        168.0004
  -4271213.12549  -2944034.75047  22758734.1934   22758735.3474   22758733.5274
       200.0004        199.0004
 -10324064.59848  -7880856.78847  22818094.7204   22818101.8474   22818095.8014
       192.0004        192.0004
 02  8  5  2  2 30.0060000  0  7G 3G31G 2G27G22G 1G13
  -6200605.14248  -4672860.82146  22553631.6554   22553633.0074   22553629.3564
       185.0004        185.0004
 -12631343.99448  -9827014.17747  22308399.1914   22308401.1154   22308397.8824
       194.0004        194.0004
   7685649.59748   6154360.26747  24037019.7094   24037027.0794   24037020.0614
       193.0004        192.0004
  -6071337.55848  -4631203.08846  24836460.6874   24836463.1574   24836460.3354
       174.0004        174.0004
  12027592.85548   9582145.43946  24599414.2214   24599424.9794   24599414.6274
       171.0004        171.0004
  -4178433.36749  -2871738.86947  22776388.9884   22776390.3244   22776387.8664
       198.0004        197.0004
 -10288652.16949  -7853262.65947  22824839.0034   22824840.9574   22824839.0594
       196.0004        196.0004
 02  8  5  2  3  0.0060000  0  7G 3G31G 2G27G22G 1G13
  -6132264.46749  -4619608.28447  22566630.2684   22566638.2304   22566630.3284
       195.0004        194.0004
 -12653671.94849  -9844412.48947  22304149.4074   22304152.6864   22304149.4454
       196.0004        196.0004
   7767585.37648   6218206.27647  24052617.8434   24052618.9234   24052615.8564
       188.0004        188.0004
  -6116228.58947  -4666183.07646  24827907.1734   24827919.5674   24827908.6444
       163.0004        164.0004
  12148142.91448   9676080.53846  24622361.0234   24622364.5844   24622361.3914
       167.0004        167.0004
  -4085125.32249  -2799031.30947  22794143.5154   22794146.7554   22794141.8614
       195.0004        195.0004
 -10252613.54849  -7825180.61747  22831699.2994   22831698.7634   22831698.2684
       198.0004        198.0004
 02  8  5  2  3 30.0060000  0  7G 3G31G 2G27G22G 1G13
  -6063388.34648  -4565938.52747  22579739.0784   22579745.2984   22579739.8874
       190.0004        191.0004
 -12675480.35548  -9861406.03447  22299994.6074   22300002.6064   22299994.2424
       186.0004        188.0004
   7849569.57949   6282090.12047  24068211.9394   24068219.7614   24068211.6504
       195.0004        195.0004
  -6161104.57948  -4701151.34646  24819380.1644   24819380.3564   24819378.1214
       173.0004        172.0004
  12268715.45048   9770033.07946  24645307.8834   24645309.2794   24645305.1804
       165.0004        165.0004
  -3991327.36248  -2725941.98447  22811990.8404   22811996.3484   22811989.2214
       193.0004        193.0004
 -10215983.94549  -7796638.06247  22838666.8524   22838669.1904   22838665.3234
       196.0004        196.0004
 02  8  5  2  4  0.0060000  0  7G 3G31G 2G27G22G 1G13
  -5993955.51248  -4511835.07746  22592958.3374   22592957.5634   22592956.4844
       186.0004        186.0004
 -12696744.73748  -9877975.68847  22295954.5544   22295955.4374   22295952.1674
       194.0004        194.0004
   7931624.80648   6346029.26247  24083834.3224   24083834.4784   24083832.8374
       188.0004        189.0004
  -6205941.70848  -4736089.23446  24810846.8814   24810849.5624   24810846.8614
       176.0004        176.0004
  12389332.30348   9864020.23446  24668251.7124   24668261.9204   24668251.4694
       171.0004        171.0004
  -3897018.54748  -2652454.58247  22829933.8334   22829942.0024   22829933.2714
       190.0004        190.0004
 -10178740.86748  -7767617.43847  22845748.7604   22845756.2604   22845749.1544
       193.0004        194.0004
 02  8  5  2  4 30.0060000  0  7G 3G31G 2G27G22G 1G13
  -5924002.79149  -4457326.45947  22606262.6764   22606269.0814   22606261.8064
       196.0004        196.0004
 -12717498.46949  -9894147.34647  22292003.7554   22292007.3174   22292003.3444
       198.0004        198.0004
   8013715.41349   6409995.95947  24099448.4904   24099455.9534   24099447.5414
       196.0004        196.0004
  -6250773.12648  -4771022.76746  24802304.4734   24802317.5244   24802306.0504
       166.0004        167.0004
  12509957.44548   9958013.87846  24691206.5444   24691216.0634   24691207.9484
       170.0004        170.0004
  -3802235.95048  -2578597.99547  22847971.1654   22847978.8304   22847971.3864
       191.0004        191.0004
 -10140920.32449  -7738146.83947  22852949.1004   22852953.4274   22852949.4364
       195.0004        195.0004
 02  8  5  2  5  0.0060000  0  7G 3G31G 2G27G22G 1G13
  -5853488.46249  -4402380.15847  22619680.5654   22619687.1014   22619681.0794
       198.0004        197.0004
 -12737696.69148  -9909886.16947  22288158.1024   22288162.4134   22288158.0414
       191.0004        191.0004
   8095883.92748   6474023.43247  24115088.2984   24115092.0884   24115088.5584
       189.0004        190.0004
  -6295554.35848  -4805917.21846  24793794.2334   24793794.7154   24793792.0804
       172.0004        171.0004
  12630633.09448  10052046.81846  24714181.8394   24714179.5914   24714178.6854
       166.0004        166.0004
  -3706938.32149  -2504340.10647  22866110.3944   22866114.0564   22866109.5584
       195.0004        195.0004
 -10102478.71349  -7708192.32347  22860268.9724   22860268.7374   22860268.6174
       200.0004        200.0004
 02  8  5  2  5 30.0060000  0  7G 3G31G 2G27G22G 1G13
  -5782380.82748  -4346971.61247  22633217.8064   22633218.2694   22633217.5414
       191.0004        192.0004
 -12757304.56248  -9925165.04947  22284426.5754   22284432.0474   22284424.6004
       188.0004        188.0004
   8178163.03048   6538136.96447  24130744.7834   24130749.3994   24130743.0154
       193.0004        192.0004
  -6340251.17448  -4840745.77746  24785289.6594   24785289.9324   24785288.9114
       175.0004        175.0004
  12751391.34548  10146144.10446  24737152.9994   24737159.0844   24737152.5164
       168.0004        167.0004
  -3611094.49049  -2429656.61847  22884348.9864   22884352.1144   22884348.6164
       197.0004        196.0004
 -10063383.29849  -7677728.37747  22867708.8494   22867708.0534   22867708.1584
       201.0004        200.0004
 02  8  5  2  6  0.0060000  0  7G 3G31G 2G27G22G 1G13
  -5710744.22949  -4291150.91847  22646847.1084   22646850.2644   22646845.5184
       197.0004        197.0004
 -12776383.06049  -9940031.36447  22280800.5014   22280801.2684   22280799.1164
       199.0004        198.0004
   8260489.47748   6602287.50747  24146407.9444   24146415.5204   24146408.2644
       191.0004        191.0004
  -6384924.10048  -4875555.78246  24776774.5914   24776789.4774   24776777.2684
       165.0004        166.0004
  12872168.85848  10240256.46946  24760132.5734   24760141.8304   24760132.6394
       170.0004        170.0004
  -3514768.88049  -2354597.72547  22902680.5594   22902681.4914   22902679.6104
       197.0004        196.0004
 -10023695.67549  -7646802.94947  22875257.7384   22875260.4534   22875256.5914
       197.0004        197.0004
 02  8  5  2  6 30.0060000  0  7G 3G31G 2G27G22G 1G13
  -5638505.42949  -4234860.88847  22660589.3564   22660597.2284   22660589.7644
       204.0004        203.0004
 -12794855.76748  -9954425.58347  22277281.3164   22277285.8824   22277281.0254
       193.0004        193.0004
   8342937.86348   6666532.93046  24162103.9774   24162104.8184   24162101.2094
       186.0004        186.0004
  -6429497.15048  -4910288.03346  24768305.1704   24768306.5334   24768302.4534
       172.0004        171.0004
  12993039.33248  10334441.24546  24783139.4684   24783142.0384   24783139.6124
       165.0004        166.0004
  -3417888.95149  -2279106.90247  22921115.7774   22921117.8774   22921114.4594
       196.0004        196.0004
  -9983341.30548  -7615357.94447  22882931.3374   22882939.8784   22882932.1484
       194.0004        194.0004
 02  8  5  2  7  0.0060000  0  7G 3G31G 2G27G22G 1G13
  -5565714.04149  -4178140.29847  22674445.0464   22674449.1314   22674445.5574
       199.0004        199.0004
 -12812769.31948  -9968384.21047  22273871.0284   22273877.7024   22273869.4384
       187.0004        188.0004
   8425459.07248   6730835.21047  24177799.0454   24177807.7424   24177798.9614
       193.0004        194.0004
  -6474017.06948  -4944978.75446  24759834.4934   24759833.9814   24759833.9194
       176.0004        176.0004
  13113953.62647  10428660.12246  24806153.0644   24806152.5994   24806149.8644
       164.0004        164.0004
  -3320505.06748  -2203223.36347  22939645.3434   22939649.0514   22939644.0074
       194.0004        193.0004
  -9942368.96649  -7583431.41247  22890731.5494   22890736.1394   22890732.2404
       196.0004        196.0004
 02  8  5  2  7 30.0060000  0  7G 3G31G 2G27G22G 1G13
  -5492427.83949  -4121034.22247  22688393.0824   22688394.6544   22688391.4274
       199.0004        199.0004
 -12830178.18749  -9981949.54847  22270562.9004   22270563.8264   22270561.0924
       195.0004        194.0004
   8507997.06548   6795150.50646  24193514.9324   24193514.6764   24193513.1904
       186.0004        187.0004
  -6518538.33648  -4979670.55946  24751351.4504   24751364.1484   24751352.7364
       168.0004        169.0004
  13234854.72348  10522868.73546  24829150.5144   24829159.3184   24829150.7724
       169.0004        169.0004
  -3222675.10648  -2126992.22447  22958259.9634   22958265.1534   22958258.8524
       190.0004        190.0004
  -9900834.67049  -7551067.02847  22898639.6874   22898639.8624   22898639.2824
       200.0004        200.0004
 02  8  5  2  8  0.0060000  0  7G 3G31G 2G27G22G 1G13
  -5418621.92549  -4063523.08547  22702432.6864   22702439.6524   22702432.3574
       207.0004        207.0004
 -12847054.20249  -9995099.57347  22267349.9884   22267352.6764   22267349.7784
       196.0004        196.0004
   8590577.78248   6859499.10147  24209222.0124   24209229.2504   24209220.4844
       193.0004        193.0004
  -6563032.75248  -5014341.56946  24742893.6674   24742896.9094   24742891.2424
       174.0004        174.0004
  13355768.41948  10617087.20246  24852159.5404   24852168.9154   24852160.0324
       171.0004        170.0004
  -3124374.67848  -2050394.48546  22976963.8254   22976971.0124   22976963.0254
       188.0004        187.0004
  -9858712.83349  -7518244.82347  22906654.7134   22906655.6114   22906653.8144
       200.0004        199.0004
 02  8  5  2  8 30.0060000  0  7G 3G31G 2G27G22G 1G13
  -5344265.48649  -4005582.95447  22716583.5374   22716588.8894   22716584.2114
       205.0004        205.0004
 -12863363.20048 -10007807.86246  22264241.0224   22264248.8834   22264240.4754
       184.0004        186.0004
   8673233.13948   6923905.92047  24224954.6834   24224957.7714   24224954.5424
       188.0004        189.0004
  -6607466.17848  -5048964.86446  24734439.9274   24734439.6714   24734439.1994
       179.0004        179.0004
  13476726.32448  10711340.08946  24875185.3124   24875186.4734   24875183.3114
       165.0004        166.0004
  -3025573.41648  -1973406.47147  22995765.0454   22995772.8794   22995765.1574
       190.0004        189.0004
  -9815969.18549  -7484938.06947  22914785.0684   22914789.3954   22914784.2784
       197.0004        197.0004
 02  8  5  2  9  0.0060000  0  7G 3G31G 2G27G22G 1G13
  -5269411.12349  -3947254.91547  22730833.0454   22730833.5544   22730831.6094
       200.0004        201.0004
 -12879154.68248 -10020112.93447  22261241.1974   22261243.4544   22261239.5254
       191.0004        191.0004
   8755911.83548   6988330.81847  24240687.3114   24240691.1674   24240685.2034
       192.0004        192.0004
  -6651888.26948  -5083579.39546  24725976.2964   24725987.1364   24725976.8884
       169.0004        170.0004
  13597676.61848  10805586.99146  24898200.6014   24898202.4774   24898198.3384
       165.0004        165.0004
  -2926324.19948  -1896069.41947  23014655.5174   23014659.3214   23014654.7774
       193.0004        193.0004
  -9772657.04549  -7451188.31947  22923024.6314   22923031.2124   22923025.5574
       196.0004        196.0004
 02  8  5  2  9 30.0060000  0  7G 3G31G 2G27G22G 1G13
  -5194053.46649  -3888534.66447  22745167.3944   22745173.3024   22745166.7624
       208.0004        207.0004
 -12894420.12349 -10032007.99747  22258336.9354   22258339.0794   22258336.8254
       198.0004        197.0004
   8838620.62948   7052779.29647  24256422.7304   24256430.4934   24256423.0704
       193.0004        193.0004
  -6696290.20948  -5118178.31046  24717535.0794   24717538.7134   24717532.9604
       175.0004        175.0004
  13718625.60148  10899832.95646  24921207.6114   24921217.1364   24921208.1294
       165.0004        165.0004
  -2826621.89748  -1818379.32447  23033628.8044   23033631.5404   23033628.3084
       194.0004        193.0004
  -9728769.43549  -7416990.16047  22931380.5314   22931382.8594   22931380.4824
       197.0004        197.0004
 02  8  5  2 10  0.0060000  0  7G 3G31G 2G27G22G 1G13
  -5118119.46449  -3829365.25847  22759616.7874   22759623.5454   22759617.2924
       208.0004        208.0004
 -12909083.16548 -10043433.66347  22255543.1984   22255548.5104   22255543.4254
       188.0004        189.0004
   8921433.93048   7117309.10247  24272189.0664   24272188.9974   24272186.6894
       188.0004        189.0004
  -6740595.73248  -5152701.98446  24709104.7394   24709106.6094   24709104.2864
       178.0004        178.0004
  13839646.97447  10994135.32446  24944239.7244   24944247.4304   24944239.8494
       164.0004        165.0004
  -2726394.09549  -1740279.75447  23052702.0204   23052705.0034   23052701.7274
       196.0004        195.0004
  -9684229.21349  -7382283.49347  22939858.4894   22939858.3394   22939858.4644
       200.0004        200.0004
 02  8  5  2 10 30.0060000  0  7G 3G31G 2G27G22G 1G13
  -5041673.89549  -3769797.29547  22774169.8294   22774170.6764   22774169.1724
       200.0004        201.0004
 -12923205.58148 -10054438.20447  22252857.2604   22252861.3454   22252855.2724
       189.0004        188.0004
   9004288.06548   7181870.78847  24287947.3614   24287955.4304   24287946.8584
       194.0004        194.0004
  -6784866.49648  -5187198.57946  24700672.9654   24700681.0994   24700673.5904
       169.0004        170.0004
  13960676.77447  11088444.20945  24967279.0504   24967277.9944   24967276.7184
       160.0004        160.0004
  -2625706.16849  -1661821.65247  23071863.4064   23071864.6894   23071862.4874
       197.0004        196.0004
  -9639102.31249  -7347119.67647  22948444.4764   22948446.0834   22948443.5464
       199.0004        199.0004
 02  8  5  2 11  0.0060000  0  7G 3G31G 2G27G22G 1G13
  -4964765.52649  -3709868.72847  22788801.1954   22788805.8234   22788799.8864
       205.0004        204.0004
 -12936833.05349 -10065056.95047  22250266.4764   22250268.0924   22250265.7224
       198.0004        198.0004
   9087135.69648   7246427.40147  24303720.0514   24303721.4184   24303719.0264
       187.0004        188.0004
  -6829147.70548  -5221703.40846  24692250.6534   24692256.1344   24692248.9024
       172.0004        172.0004
  14081667.27547  11182722.45445  24990298.9734   24990302.6194   24990297.3244
       163.0004        162.0004
  -2524607.32949  -1583043.35747  23091100.5604   23091103.1224   23091099.5764
       195.0004        194.0004
  -9593435.71349  -7311535.28547  22957130.2594   22957135.7754   22957129.8424
       196.0004        196.0004
 02  8  5  2 11 30.0060000  0  7G 3G31G 2G27G22G 1G13
  -4887280.05349  -3649490.37847  22803542.7404   22803550.6304   22803543.1354
       207.0004        207.0004
 -12949847.84548 -10075198.26847  22247787.2024   22247791.2484   22247787.2224
       192.0004        193.0004
   9170092.50948   7311069.03547  24319501.6804   24319507.4954   24319500.0204
       192.0004        191.0004
  -6873321.83848  -5256124.72146  24683848.0804   24683850.0644   24683846.7804
       179.0004        178.0004
  14202733.57748  11277059.85246  25013331.5824   25013340.6084   25013332.2514
       169.0004        168.0004
  -2422983.50948  -1503855.97347  23110436.9614   23110441.6564   23110435.6594
       192.0004        192.0004
  -9547113.09149  -7275439.68747  22965944.4524   22965950.6404   22965945.2934
       196.0004        196.0004
 02  8  5  2 12  0.0060000  0  7G 3G31G 2G27G22G 1G13
  -4809251.00149  -3588688.49547  22818396.4294   22818399.2364   22818396.7084
       196.0004        198.0004
 -12962280.31748 -10084885.95147  22245420.4974   22245425.4674   22245418.8904
       188.0004        188.0004
   9253126.26248   7375770.71647  24335301.2554   24335308.0984   24335301.5614
       190.0004        190.0004
  -6917418.89848  -5290485.99046  24675450.6184   24675456.8764   24675451.4344
       173.0004        173.0004
  14323843.21848  11371430.98646  25036379.5704   25036388.0974   25036380.0584
       170.0004        170.0004
  -2320868.79648  -1424286.06947  23129867.3704   23129873.8974   23129866.5924
       192.0004        191.0004
  -9500167.05649  -7238858.34747  22974883.3034   22974884.2744   22974883.1224
       200.0004        200.0004
 02  8  5  2 12 30.0060000  0  7G 3G31G 2G27G22G 1G13
  -4730754.14849  -3527522.17547  22833334.4104   22833336.4404   22833332.8544
       195.0004        195.0004
 -12974203.18149 -10094176.45947  22243155.1124   22243156.2154   22243154.3214
       199.0004        198.0004
   9336162.77748   7440474.43147  24351108.2224   24351109.8584   24351106.0934
       188.0004        188.0004
  -6961511.09748  -5324843.51546  24667061.4954   24667066.4764   24667060.3574
       171.0004        171.0004
  14444921.54748  11465777.70146  25059428.8924   25059427.9464   25059425.5954
       165.0004        165.0004
  -2218339.22648  -1344392.89047  23149376.2144   23149384.5204   23149376.0224
       190.0004        190.0004
  -9452671.27249  -7201848.65447  22983923.0354   22983922.1424   22983922.3264
       201.0004        201.0004
 02  8  5  2 13  0.0060000  0  7G 3G31G 2G27G22G 1G13
  -4651721.22249  -3465938.02847  22848367.8374   22848376.0694   22848367.9224
       202.0004        202.0004
 -12985544.95749 -10103014.11347  22240994.4934   22240998.1424   22240994.5984
       195.0004        195.0004
   9419271.69948   7505234.65647  24366914.9224   24366924.6864   24366915.1804
       193.0004        193.0004
  -7005527.04348  -5359141.59046  24658688.1624   24658692.0964   24658687.4534
       177.0004        176.0004
  14566037.64048  11560153.82346  25082471.4364   25082475.6674   25082470.3684
       166.0004        166.0004
  -2115326.96348  -1264123.59147  23168980.3214   23168987.1714   23168980.2644
       191.0004        190.0004
  -9404557.06349  -7164357.06347  22993076.5744   22993078.3094   22993075.4334
       199.0004        199.0004
 02  8  5  2 13 30.0060000  0  7G 3G31G 2G27G22G 1G13
  -4572173.13049  -3403952.43547  22863507.2314   22863513.1164   22863508.1764
       197.0004        197.0004
 -12996323.01548 -10111412.63247  22238941.3514   22238947.6124   22238940.1034
       187.0004        188.0004
   9502433.79948   7570036.29247  24382750.3434   24382750.0154   24382748.4764
       186.0004        188.0004
  -7049483.84348  -5393393.57546  24650322.5654   24650327.6014   24650322.0694
       178.0004        178.0004
  14687171.88348  11654544.13646  25105516.1854   25105525.7344   25105516.0204
       167.0004        167.0004
  -2011853.10548  -1183494.62547  23188673.1334   23188677.4184   23188672.7984
       194.0004        193.0004
  -9355842.93449  -7126397.96947  23002340.8214   23002348.3834   23002341.4914
       196.0004        196.0004
 02  8  5  2 14  0.0060000  0  7G 3G31G 2G27G22G 1G13
  -4492093.95248  -3341553.12847  22878754.5394   22878751.7224   22878752.2644
       188.0004        189.0004
 -13006518.93749 -10119357.48247  22237005.9344   22237007.3254   22237004.8034
       200.0004        199.0004
   9585665.93348   7634892.45247  24398581.1874   24398588.3544   24398579.8314
       192.0004        192.0004
  -7093362.40248  -5427584.61946  24641969.3404   24641975.7704   24641968.6134
       172.0004        172.0004
  14808340.78248  11748961.47646  25128574.6874   25128584.2754   25128576.6954
       165.0004        165.0004
  -1907902.47349  -1102494.14747  23208455.6354   23208458.8104   23208455.2514
       195.0004        195.0004
  -9306511.79849  -7087958.08047  23011729.1104   23011735.8894   23011730.3004
       196.0004        196.0004
 02  8  5  2 14 30.0060000  0  7G 3G31G 2G27G22G 1G13
  -4411525.14949  -3278772.24847  22894077.4734   22894083.3984   22894076.6134
       196.0004        196.0004
 -13016170.84749 -10126878.35747  22235166.7314   22235170.7304   22235167.1374
       197.0004        197.0004
   9668928.41148   7699772.35647  24414426.2394   24414432.7274   24414427.0224
       188.0004        189.0004
  -7137200.42648  -5461744.08546  24633631.4364   24633634.1584   24633630.0314
       175.0004        175.0004
  14929504.25847  11843374.54645  25151642.0194   25151641.0184   25151639.1664
       160.0004        160.0004
  -1803517.02449  -1021154.84947  23228320.8634   23228322.3694   23228320.2214
       196.0004        195.0004
  -9256605.07249  -7049069.70747  23021231.7314   23021232.7444   23021231.4304
       200.0004        199.0004
 02  8  5  2 15  0.0060000  0  7G 3G31G 2G27G22G 1G13
  -4330438.92549  -3215588.11847  22909506.6464   22909513.8524   22909506.9354
       197.0004        197.0004
 -13025247.34348 -10133950.97746  22233436.2084   22233443.0374   22233435.5944
       186.0004        187.0004
   9752250.99748   7764698.97647  24430287.0494   24430288.3484   24430284.3164
       188.0004        188.0004
  -7180966.47948  -5495847.41146  24625303.5694   24625306.5054   24625303.0824
       178.0004        177.0004
  15050691.42347  11937806.03645  25174699.4514   25174702.2414   25174697.8624
       161.0004        161.0004
  -1698668.95949   -939455.08947  23248273.0804   23248274.3524   23248271.7874
       196.0004        196.0004
  -9206091.95749  -7009708.85147  23030845.1324   23030844.7034   23030844.4194
       201.0004        201.0004
 02  8  5  2 15 30.0060000  0  7G 3G31G 2G27G22G 1G13
  -4248876.39048  -3152032.91347  22925033.9464   22925034.0244   22925033.3924
       188.0004        189.0004
 -13033786.94349 -10140605.20747  22231816.6374   22231817.8854   22231815.4144
       198.0004        198.0004
   9835593.64448   7829641.33947  24446139.2684   24446147.9494   24446139.3274
       193.0004        193.0004
  -7224698.51148  -5529924.25346  24616976.3554   24616984.2134   24616975.8194
       173.0004        173.0004
  15171861.91548  12032224.59146  25197749.8144   25197760.4754   25197749.1504
       167.0004        167.0004
  -1593400.11149   -857427.43847  23268304.2174   23268306.0924   23268302.5454
       195.0004        194.0004
  -9155013.09449  -6969907.14347  23040562.8184   23040564.7184   23040561.4084
       198.0004        198.0004
 02  8  5  2 16  0.0060000  0  7G 3G31G 2G27G22G 1G13
  -4166812.98249  -3088087.46147  22940647.4574   22940650.4554   22940645.9904
       195.0004        194.0004
 -13041761.93349 -10146819.38847  22230297.1694   22230300.7254   22230297.1104
       198.0004        198.0004
   9918982.79048   7894619.89047  24462016.3434   24462016.5794   24462014.7174
       188.0004        189.0004
  -7268367.99548  -5563952.39446  24608668.9564   24608673.9084   24608667.9174
       175.0004        175.0004
  15293041.55548  12126650.29946  25220809.3474   25220819.9074   25220810.3144
       167.0004        167.0004
  -1487686.39748   -775053.12647  23288419.0884   23288423.7984   23288417.7694
       193.0004        193.0004
  -9103342.39649  -6929644.22847  23050389.5734   23050397.4954   23050390.5654
       195.0004        196.0004
 02  8  5  2 16 30.0060000  0  7G 3G31G 2G27G22G 1G13
  -4084242.50649  -3023746.79247  22956355.8724   22956362.8714   22956356.0444
       201.0004        200.0004
 -13049162.54248 -10152586.10347  22228885.3134   22228892.4234   22228884.3504
       187.0004        188.0004
  10002426.12148   7959640.63147  24477888.4934   24477894.9514   24477887.3554
       193.0004        193.0004
  -7311965.02648  -5597924.04946  24600376.2694   24600378.1064   24600374.9334
       179.0004        178.0004
  15414237.94147  12221088.98946  25243881.7824   25243883.2824   25243879.9224
       164.0004        164.0004
  -1381521.84648   -692327.50847  23308619.7314   23308625.8064   23308618.3304
       190.0004        190.0004
  -9051072.30149  -6888914.24847  23060338.8154   23060344.4484   23060339.6744
       196.0004        196.0004
 02  8  5  2 17  0.0060000  0  7G 3G31G 2G27G22G 1G13
  -4001184.38949  -2959026.15647  22972165.4164   22972168.9924   22972165.4784
       196.0004        197.0004
 -13056005.47249 -10157918.26447  22227588.1654   22227590.2374   22227586.6604
       198.0004        197.0004
  10085905.78148   8024689.77347  24493774.1754   24493780.9314   24493775.1524
       190.0004        190.0004
  -7355505.61348  -5631851.70746  24592085.7294   24592092.6424   24592085.5374
       176.0004        176.0004
  15535432.64348  12315526.35946  25266943.5544   25266945.7734   25266941.5234
       165.0004        164.0004
  -1274926.36948   -609266.09247  23328901.7414   23328909.9244   23328901.4784
       188.0004        188.0004
  -8998220.83349  -6847731.28747  23070400.6544   23070401.7244   23070400.4484
       200.0004        200.0004
 02  8  5  2 17 30.0060000  0  7G 3G31G 2G27G22G 1G13
  -3917642.51949  -2893928.66847  22988064.9644   22988066.0834   22988063.3154
       196.0004        195.0004
 -13062291.71849 -10162816.54447  22226391.3054   22226394.0284   22226390.7944
       199.0004        199.0004
  10169419.45148   8089765.31246  24509671.8124   24509673.1264   24509669.6624
       186.0004        186.0004
  -7398990.09048  -5665735.68946  24583810.7624   24583816.0504   24583809.8004
       173.0004        173.0004
  15656622.85148  12409960.27346  25289998.0374   25290007.3474   25289998.3214
       166.0004        166.0004
  -1167904.43448   -525872.37847  23349267.3154   23349276.1794   23349267.7614
       188.0004        188.0004
  -8944790.57649  -6806097.33347  23080569.0814   23080568.9494   23080567.9144
       200.0004        200.0004
 02  8  5  2 18  0.0060000  0  7G 3G31G 2G27G22G 1G13
  -3833519.67349  -2828378.38247  23004066.7564   23004073.8624   23004066.5254
       203.0004        202.0004
 -13067920.46148 -10167202.57347  22225315.7894   22225323.3584   22225314.8214
       187.0004        189.0004
  10253066.10148   8154944.54747  24525581.0904   24525590.4404   24525581.0904
       190.0004        190.0004
  -7442317.10048  -5699496.94346  24575570.8634   24575571.6834   24575569.2224
       179.0004        178.0004
  15777907.32648  12504467.66246  25313077.1914   25313087.1184   25313077.5824
       167.0004        167.0004
  -1060359.10148   -442070.82447  23369735.7334   23369741.0984   23369735.4944
       190.0004        190.0004
  -8890683.27249  -6763935.79947  23090861.6384   23090864.9734   23090860.4864
       196.0004        196.0004
 02  8  5  2 18 30.0060000  0  7G 3G31G 2G27G22G 1G13
  -3749001.96049  -2762520.38747  23020151.9834   23020157.6304   23020152.3164
       199.0004        200.0004
 -13073074.90849 -10171219.05347  22224340.0714   22224342.2014   22224338.3104
       197.0004        197.0004
  10336661.56148   8220083.88646  24541496.8464   24541498.3974   24541496.0554
       183.0004        184.0004
  -7485669.26248  -5733277.76846  24567317.4314   24567324.2274   24567317.2454
       179.0004        179.0004
  15899101.06447  12598904.30746  25336145.1394   25336148.9964   25336145.0414
       163.0004        163.0004
   -952476.74148   -358006.65947  23390266.7974   23390270.6074   23390266.5454
       193.0004        192.0004
  -8836083.86348  -6721390.78247  23101247.4624   23101254.6664   23101248.3914
       194.0004        194.0004
 02  8  5  2 19  0.0060000  0  7G 3G31G 2G27G22G 1G13
  -3664073.28248  -2696342.24547  23036320.1084   23036318.8144   23036317.6554
       193.0004        194.0004
 -13077736.16449 -10174851.09347  22223451.1924   22223455.0864   22223451.3134
       198.0004        198.0004
  10420223.31148   8285196.90846  24557393.3854   24557399.5154   24557391.9944
       187.0004        186.0004
  -7529026.81048  -5767062.84446  24559065.7574   24559071.7954   24559065.3074
       176.0004        176.0004
  16020221.51647  12693283.83545  25359200.7394   25359198.1074   25359195.7844
       160.0004        161.0004
   -844241.79549   -273667.77247  23410864.9814   23410866.1804   23410864.1714
       195.0004        194.0004
  -8780975.10449  -6678448.87547  23111737.8734   23111741.9704   23111738.3344
       196.0004        196.0004
 02  8  5  2 19 30.0070000  0  7G 3G31G 2G27G22G 1G13
  -3578595.69549  -2629736.34747  23052578.6554   23052584.6544   23052577.9974
       201.0004        201.0004
 -13081765.72948 -10177990.99947  22222680.3914   22222688.5274   22222680.0834
       186.0004        188.0004
  10503891.21448   8350392.73746  24573312.4414   24573320.6904   24573313.1954
       185.0004        185.0004
  -7572252.10648  -5800744.83946  24550844.1164   24550844.9984   24550842.5544
       179.0004        178.0004
  16141409.30347  12787715.85345  25382253.4064   25382258.5534   25382252.0104
       162.0004        162.0004
   -735515.82749   -188946.26947  23431554.6444   23431556.2104   23431554.0124
       195.0004        194.0004
  -8725217.89649  -6635001.70547  23122351.5414   23122352.2034   23122351.2634
       198.0004        198.0004
 02  8  5  2 20  0.0070000  0  7G 3G31G 2G27G22G 1G13
  -3492622.96649  -2562744.54747  23068937.8284   23068944.6864   23068937.9904
       201.0004        201.0004
 -13085208.59549 -10180673.77947  22222030.4274   22222033.0654   22222028.9114
       196.0004        196.0004
  10587613.47848   8415630.82546  24589254.4304   24589252.6044   24589250.6024
       180.0004        180.0004
  -7615386.65748  -5834356.09846  24542634.0994   24542638.7734   24542633.3774
       178.0004        178.0004
  16262609.46847  12882157.53746  25405311.5734   25405322.6174   25405312.0724
       164.0004        164.0004
   -626354.78048   -103885.73747  23452327.1704   23452329.4354   23452326.1424
       194.0004        194.0004
  -8668863.37449  -6591089.11247  23133075.0154   23133075.8624   23133073.9684
       198.0004        197.0004
 02  8  5  2 20 30.0070000  0  7G 3G31G 2G27G22G 1G13
  -3406139.83248  -2495355.08847  23085402.2164   23085402.3304   23085401.3884
       192.0004        193.0004
 -13088049.66849 -10182887.50647  22221488.5424   22221492.1494   22221488.5164
       197.0004        197.0004
  10671406.82248   8480924.34047  24605188.5604   24605197.8384   24605188.3654
       188.0004        188.0004
  -7658415.72548  -5867885.20246  24534444.8004   24534450.6184   24534443.7744
       176.0004        176.0004
  16383839.69347  12976622.64246  25428383.4784   25428392.1094   25428383.5974
       163.0004        163.0004
   -516743.01348    -18473.98547  23473184.7024   23473187.5954   23473183.2794
       192.0004        192.0004
  -8611896.12949  -6546699.04447  23143912.1684   23143916.2554   23143911.3104
       195.0004        195.0004
 02  8  5  2 21  0.0070000  0  7G 3G31G 2G27G22G 1G13
  -3319196.67349  -2427607.21547  23101944.1214   23101946.8574   23101942.2134
       196.0004        196.0004
 -13090336.05148 -10184669.09247  22221050.3494   22221057.3654   22221049.4904
       186.0004        188.0004
  10755222.79348   8546235.51646  24621144.5164   24621148.0454   24621144.6064
       184.0004        185.0004
  -7701385.89148  -5901368.40646  24526267.6704   24526271.6304   24526266.9654
       176.0004        176.0004
  16505050.89247  13071072.90245  25451457.5594   25451458.1934   25451455.0614
       158.0004        159.0004
   -406731.46848     67249.27447  23494118.0254   23494121.7974   23494116.0554
       190.0004        189.0004
  -8554365.31248  -6501869.81447  23154858.1734   23154863.9534   23154858.4354
       194.0004        194.0004
 02  8  5  2 21 30.0070000  0  7G 3G31G 2G27G22G 1G13
  -3231778.57449  -2359489.15447  23118574.2604   23118581.7054   23118573.9624
       201.0004        201.0004
 -13092049.81949 -10186004.52047  22220728.7354   22220730.8194   22220727.3074
       196.0004        196.0004
  10839078.26648   8611577.38546  24637100.7654   24637104.8124   24637098.9504
       186.0004        186.0004
  -7744278.27448  -5934790.97446  24518106.8964   24518110.0134   24518106.0944
       179.0004        178.0004
  16626259.66247  13165521.24945  25474521.9664   25474523.8654   25474518.9774
       159.0004        159.0004
   -296305.40948    153295.54346  23515128.1914   23515135.6144   23515127.3204
       186.0004        186.0004
  -8496254.86149  -6456588.92947  23165918.9794   23165922.0674   23165919.2274
       196.0004        195.0004
 02  8  5  2 22  0.0070000  0  7G 3G31G 2G27G22G 1G13
  -3143902.63149  -2291014.35847  23135299.6144   23135304.1434   23135299.8524
       196.0004        196.0004
 -13093205.19649 -10186904.72147  22220507.8074   22220511.0004   22220507.8584
       197.0004        197.0004
  10922957.88148   8676938.18447  24653057.8534   24653066.7594   24653057.8704
       190.0004        190.0004
  -7787105.95948  -5968163.13246  24509956.8024   24509962.2504   24509955.5444
       179.0004        179.0004
  16747450.31247  13259955.46845  25497576.8154   25497584.5464   25497576.0384
       163.0004        162.0004
   -185482.25948    239651.24646  23536215.7954   23536224.9884   23536215.6124
       185.0004        185.0004
  -8437580.57949  -6410868.71547  23177087.1194   23177087.8474   23177086.4494
       198.0004        197.0004
 02  8  5  2 22 30.0070000  0  7G 3G31G 2G27G22G 1G13
  -3055572.02748  -2222185.37147  23152113.4894   23152112.6404   23152111.0054
       192.0004        192.0004
 -13093802.19048 -10187369.91346  22220389.3434   22220397.0794   22220389.1434
       184.0004        186.0004
  11006860.32448   8742316.69946  24669034.0264   24669033.0584   24669031.7424
       186.0004        187.0004
  -7829868.34448  -6001484.45146  24501816.9344   24501823.3384   24501816.4924
       177.0004        178.0004
  16868620.90247  13354374.09645  25520631.4864   25520643.1874   25520632.4464
       162.0004        162.0004
    -74265.91948    326313.32846  23557380.4394   23557388.6254   23557380.6564
       187.0004        186.0004
  -8378344.60149  -6364710.82047  23188358.0564   23188359.6764   23188357.4494
       198.0004        197.0004
 02  8  5  2 23  0.0070000  0  7G 3G31G 2G27G22G 1G13
  -2966837.33649  -2153041.45747  23168991.3714   23168998.5014   23168991.0414
       200.0004        199.0004
 -13093888.64449 -10187437.30447  22220379.0324   22220380.3244   22220377.6224
       196.0004        195.0004
  11090736.67048   8807674.87447  24684985.8674   24684994.0504   24684985.1974
       191.0004        190.0004
  -7872612.22848  -6034791.32046  24493686.2184   24493687.6674   24493685.3904
       179.0004        179.0004
  16989722.36847  13448738.87645  25543681.0964   25543687.2764   25543681.7874
       159.0004        159.0004
     37292.68048    413242.08046  23578610.6034   23578616.4364   23578610.8574
       186.0004        186.0004
  -8318596.31049  -6318153.70647  23199725.0754   23199729.2034   23199724.4214
       195.0004        195.0004
 02  8  5  2 23 30.0070000  0  7G 3G31G 2G27G22G 1G13
  -2877664.77749  -2083556.30747  23185961.2254   23185967.3654   23185961.4404
       198.0004        198.0004
 -13093427.51849 -10187077.88647  22220466.0404   22220468.3224   22220465.5914
       196.0004        196.0004
  11174622.96848   8873040.87247  24700949.9164   24700956.5874   24700950.1984
       188.0004        189.0004
  -7915299.54848  -6068054.07146  24485562.4194   24485566.8374   24485561.4304
       180.0004        180.0004
  17110790.23647  13543077.40645  25566728.3324   25566727.0474   25566724.8514
       158.0004        157.0004
    149227.23348    500463.79946  23599913.3214   23599917.5284   23599913.1174
       188.0004        187.0004
  -8258300.75948  -6271170.13947  23211197.4014   23211203.2994   23211198.1584
       194.0004        194.0004
 02  8  5  2 24  0.0070000  0  7G 3G31G 2G27G22G 1G13
  -2788009.93548  -2013695.42047  23203028.8444   23203028.2464   23203027.5094
       192.0004        192.0004
 -13092371.41148 -10186254.97146  22220664.5744   22220668.9074   22220662.4454
       184.0004        186.0004
  11258565.46748   8938450.57246  24716930.4214   24716930.2794   24716927.6184
       185.0004        185.0004
  -7957881.90348  -6101235.10546  24477454.5784   24477463.6944   24477454.6744
       178.0004        178.0004
  17231870.36247  13637425.47445  25589767.1714   25589766.3984   25589763.9414
       156.0004        156.0004
    261581.37648    588012.45247  23621295.6584   23621298.0314   23621295.5494
       191.0004        191.0004
  -8197412.44249  -6223724.69447  23222787.4104   23222789.6114   23222787.3434
       197.0004        196.0004
 02  8  5  2 24 30.0070000  0  7G 3G31G 2G27G22G 1G13
  -2697922.29549  -1943497.29947  23220166.8624   23220171.3794   23220165.7414
       196.0004        195.0004
 -13090767.29649 -10185005.02747  22220973.7194   22220973.8864   22220972.1094
       196.0004        196.0004
  11342516.18348   9003866.72647  24732896.3644   24732905.9964   24732896.2854
       190.0004        190.0004
  -8000405.20548  -6134370.13246  24469368.7264   24469370.6834   24469367.5714
       182.0004        182.0004
  17352914.46747  13731745.50545  25612791.2374   25612801.6524   25612792.6964
       158.0004        157.0004
    374305.18648    675849.16047  23642746.7764   23642748.3274   23642746.0494
       191.0004        190.0004
  -8135979.54449  -6175854.91147  23234479.5844   23234480.3794   23234479.0784
       198.0004        197.0004
 02  8  5  2 25  0.0070000  0  7G 3G31G 2G27G22G 1G13
  -2607414.20649  -1872971.48247  23237387.3834   23237394.6874   23237387.3384
       199.0004        198.0004
 -13088624.28348 -10183335.05247  22221379.3354   22221381.5234   22221379.2644
       194.0004        195.0004
  11426464.96848   9069281.40346  24748876.8764   24748880.5084   24748876.6114
       183.0004        184.0004
  -8042877.38948  -6167465.25346  24461286.0704   24461288.7854   24461285.6484
       183.0004        183.0004
  17473911.92247  13826029.22345  25635814.8074   25635826.5184   25635815.5684
       156.0004        156.0004
    487386.05848    763964.09147  23664266.2394   23664266.5274   23664264.9654
       191.0004        190.0004
  -8074013.38949  -6127569.60547  23246270.5274   23246271.9494   23246269.5414
       197.0004        197.0004
 02  8  5  2 25 30.0070000  0  7G 3G31G 2G27G22G 1G13
  -2516421.35048  -1802067.96147  23254707.6704   23254709.8584   23254707.5504
       192.0004        193.0004
 -13085875.05148 -10181192.83646  22221900.9194   22221904.9394   22221899.2104
       184.0004        185.0004
  11510478.33548   9134746.29646  24764864.8064   24764868.1604   24764862.6504
       183.0004        183.0004
  -8085230.44248  -6200467.60146  24453221.9094   24453230.0604   24453221.7934
       180.0004        180.0004
  17594928.71747  13920328.01345  25658846.7114   25658854.7704   25658847.7664
       153.0004        153.0004
    600887.74048    852406.93447  23685864.7904   23685865.4484   23685863.5224
       192.0004        191.0004
  -8011448.75149  -6078817.92447  23258173.6054   23258177.7124   23258172.8604
       195.0004        195.0004
 02  8  5  2 26  0.0070000  0  8G 3G31G 8G 2G27G22G 1G13
  -2424984.23248  -1730818.31347  23272108.2494   23272109.8554   23272106.3764
       192.0004        192.0004
 -13082557.49749 -10178607.72047  22222535.4894   22222535.8784   22222534.4964
       197.0004        197.0004
   -291814.83457   -217181.39645  26579418.5574   26579417.9684   26579416.4884
       137.0004        138.0004
  11594517.74748   9200231.58546  24780849.8044   24780860.6744   24780850.1014
       187.0004        187.0004
  -8127500.48148  -6233405.28346  24445180.7844   24445184.8694   24445179.8984
       180.0004        180.0004
  17715925.85747  14014611.41145  25681880.7274   25681880.7904   25681877.7044
       148.0004        149.0004
    714769.35748    941145.82647  23707534.1254   23707536.6324   23707532.8834
       189.0004        189.0004
  -7948324.96149  -6029630.54347  23270184.9324   23270189.3724   23270185.2204
       195.0004        195.0004
 02  8  5  2 26 30.0070000  0  8G 3G31G 8G 2G27G22G 1G13
  -2333115.24849  -1659232.06047  23289583.6694   23289592.0164   23289583.5214
       199.0004        199.0004
 -13078680.81048 -10175586.84147  22223271.2324   22223274.2874   22223271.3564
       193.0004        194.0004
   -351631.07246   -263791.40245  26568023.1794   26568035.1924   26568024.8344
       133.0004        133.0004
  11678572.96948   9265729.15746  24796856.4994   24796855.4254   24796854.5264
       178.0004        180.0004
  -8169695.70848  -6266284.59046  24437153.6874   24437155.3514   24437153.0434
       184.0004        184.0004
  17836892.78047  14108871.24845  25704898.5794   25704900.3934   25704895.0664
       150.0004        150.0004
    829018.31348   1030170.97846  23729273.5704   23729277.5814   23729271.4314
       186.0004        186.0004
  -7884653.26549  -5980016.23047  23282302.8774   23282306.3014   23282302.9834
       196.0004        196.0004
 02  8  5  2 27  0.0070000  0  8G 3G31G 8G 2G27G22G 1G13
  -2240800.57249  -1587298.49447  23307152.5374   23307159.0454   23307153.0024
       195.0004        196.0004
 -13074228.24848 -10172117.38046  22224118.1844   22224121.3114   22224116.1184
       186.0004        187.0004
   -411504.89447   -310446.31145  26556635.3244   26556641.7314   26556633.9984
       135.0004        135.0004
  11762659.76348   9331251.27346  24812850.7584   24812856.3154   24812848.5874
       182.0004        182.0004
  -8211798.47548  -6299091.87246  24429139.1884   24429145.8754   24429138.7214
       185.0004        185.0004
  17957844.72647  14203119.46445  25727906.8294   25727916.5784   25727906.7774
       155.0004        155.0004
    943647.88548   1119492.70746  23751083.5734   23751090.4904   23751082.6644
       183.0004        183.0004
  -7820418.76749  -5929963.38047  23294528.8134   23294529.6654   23294528.0914
       198.0004        198.0004
 02  8  5  2 27 30.0070000  0  8G 3G31G 8G 2G27G22G 1G13
  -2148072.27248  -1515042.71647  23324806.3664   23324804.3454   23324803.6064
       188.0004        190.0004
 -13069229.44249 -10168222.15647  22225071.1384   22225072.1364   22225070.5264
       197.0004        197.0004
   -471465.08247   -357168.44645  26545228.3024   26545232.0074   26545228.1574
       140.0004        140.0004
  11846747.82148   9396774.47046  24828848.0174   24828857.3364   24828848.8574
       181.0004        181.0004
  -8253836.71048  -6331848.92246  24421137.7394   24421145.4664   24421137.2664
       182.0004        182.0004
  18078751.17847  14297332.25845  25750914.1294   25750923.5304   25750912.6844
       156.0004        157.0004
   1058625.43648   1209085.58746  23772962.5454   23772969.8004   23772962.1634
       182.0004        182.0004
  -7755652.84549  -5879496.43647  23306852.3674   23306854.1004   23306851.5254
       198.0004        197.0004
 02  8  5  2 28  0.0070000  0  8G 3G31G 8G 2G27G22G 1G13
  -2054878.03849  -1442423.84947  23342531.3194   23342538.5014   23342530.6374
       198.0004        198.0004
 -13063628.78148 -10163857.91647  22226133.7984   22226138.0364   22226134.1034
       188.0004        190.0004
   -531455.59847   -403914.19545  26533809.5274   26533817.1474   26533809.1304
       138.0004        139.0004
  11930892.00548   9462341.32546  24844872.6914   24844870.2064   24844868.9954
       176.0004        176.0004
  -8295753.76048  -6364511.52546  24413164.2834   24413166.9044   24413163.3634
       183.0004        183.0004
  18199666.38447  14391551.85445  25773924.4864   25773933.7574   25773925.8134
       155.0004        156.0004
   1174003.06948   1298990.23046  23794916.8034   23794926.2134   23794917.1464
       182.0004        182.0004
  -7690301.72849  -5828573.48247  23319285.7544   23319289.4554   23319285.1184
       196.0004        196.0004
 02  8  5  2 28 30.0070000  0  8G 3G31G 8G 2G27G22G 1G13
  -1961254.15849  -1369470.10347  23360346.2894   23360354.6644   23360346.8104
       200.0004        200.0004
 -13057459.58448 -10159050.84647  22227310.7984   22227312.6134   22227308.6554
       190.0004        189.0004
   -591509.02847   -450709.03245  26522379.2324   26522388.3674   26522377.5464
       142.0004        142.0004
  12015057.78648   9527925.02546  24860878.3384   24860885.6654   24860877.3634
       182.0004        182.0004
  -8337581.72048  -6397104.64746  24405205.7664   24405207.7784   24405205.2034
       185.0004        185.0004
  18320555.73547  14485751.29245  25796936.9994   25796938.1974   25796934.3914
       155.0004        155.0004
   1289744.03448   1389177.99246  23816943.8434   23816950.9274   23816943.3294
       182.0004        182.0004
  -7624401.02448  -5777222.27147  23331823.9644   23331829.6914   23331824.7514
       194.0004        194.0004
 02  8  5  2 29  0.0070000  0  8G 3G31G 8G 2G27G22G 1G13
  -1867178.72048  -1296164.56447  23378255.8254   23378256.7654   23378255.0014
       194.0004        195.0004
 -13050697.76049 -10153781.80247  22228597.3544   22228598.9254   22228596.9934
       198.0004        198.0004
   -651600.45847   -497533.43845  26510948.5044   26510952.5914   26510947.7054
       148.0004        147.0004
  12099269.10248   9593544.27246  24876903.6524   24876911.0214   24876904.5054
       181.0004        181.0004
  -8379294.72448  -6429608.22446  24397262.6184   24397271.3824   24397262.8874
       180.0004        181.0004
  18441442.52547  14579948.72445  25819941.6904   25819941.0174   25819938.2564
       155.0004        155.0004
   1405869.71948   1479665.51846  23839044.6094   23839048.9454   23839043.7374
       185.0004        185.0004
  -7557927.41949  -5725424.64247  23344476.7804   23344479.8404   23344476.8374
       196.0004        196.0004
 02  8  5  2 29 30.0070000  0  8G 3G31G 8G 2G27G22G 1G13
  -1772724.48949  -1222563.91747  23396227.8474   23396230.7224   23396225.9454
       199.0004        198.0004
 -13043412.88548 -10148105.21346  22229979.0014   22229985.5254   22229978.8164
       182.0004        185.0004
   -711798.88147   -544441.17045  26499494.9244   26499497.9074   26499493.3954
       149.0004        149.0004
  12183455.65048   9659144.11946  24892933.1964   24892931.3864   24892929.4884
       179.0004        179.0004
  -8420961.31248  -6462075.69246  24389337.0844   24389340.9434   24389335.4294
       181.0004        181.0004
  18562256.01947  14674089.04645  25842925.2484   25842931.4284   25842925.1064
       155.0004        155.0004
   1522306.97348   1570395.80846  23861202.3334   23861205.7934   23861201.7974
       186.0004        185.0004
  -7490953.03649  -5673236.81247  23357225.0144   23357224.9444   23357224.2894
       200.0004        199.0004
 02  8  5  2 30  0.0070000  0  8G 3G31G 8G 2G27G22G 1G13
  -1677844.75149  -1148631.61347  23414278.3044   23414285.9114   23414278.1604
       204.0004        203.0004
 -13035555.09848 -10141982.35547  22231479.3874   22231480.8784   22231477.3394
       191.0004        191.0004
   -772054.00347   -591393.12045  26488021.2714   26488030.7764   26488020.6224
       142.0004        143.0004
  12267666.31948   9724762.81146  24908947.1184   24908955.9404   24908946.6314
       185.0004        185.0004
  -8462530.20848  -6494466.93946  24381429.6594   24381430.5734   24381428.7964
       187.0004        187.0004
  18683044.60847  14768209.98345  25865903.3864   25865917.4214   25865904.7364
       156.0004        156.0004
   1639102.23648   1661405.08646  23883428.3144   23883431.8334   23883427.7944
       186.0004        186.0004
  -7423430.20149  -5620621.62747  23370073.4784   23370073.9064   23370072.4324
       198.0004        198.0004
 02  8  5  2 30 30.0070000  0  8G 3G31G 8G 2G27G22G 1G13
  -1582544.28449  -1074371.49047  23432417.6074   23432420.9704   23432417.6194
       198.0004        198.0004
 -13027127.19949 -10135415.03347  22233082.0894   22233084.4874   22233081.6324
       196.0004        196.0004
   -832367.34647   -638390.49645  26476547.2914   26476553.9944   26476545.6394
       143.0004        143.0004
  12351898.28848   9790398.12946  24924979.7684   24924985.1154   24924980.1724
       183.0004        183.0004
  -8504002.42948  -6526782.86846  24373534.4524   24373540.2484   24373534.4484
       186.0004        186.0004
  18803804.97047  14862308.91545  25888888.4494   25888897.6474   25888887.6004
       160.0004        160.0004
   1756249.88548   1752688.94647  23905722.5384   23905724.6014   23905721.8894
       188.0004        188.0004
  -7355362.55149  -5567581.89747  23383022.5214   23383027.0034   23383021.8814
       196.0004        196.0004
 02  8  5  2 31  0.0070000  0  8G 3G31G 8G 2G27G22G 1G13
  -1486781.14149   -999750.90747  23450643.7754   23450643.8254   23450641.9794
       195.0004        195.0004
 -13018083.93848 -10128368.30746  22234798.9224   22234805.6384   22234797.2654
       179.0004        182.0004
   -892693.29847   -685397.64045  26465073.2284   26465074.1494   26465070.3204
       148.0004        148.0004
  12436195.82948   9856084.46546  24941025.1694   24941026.3204   24941022.9334
       181.0004        181.0004
  -8545331.39248  -6558987.23946  24365666.7534   24365674.0724   24365665.8754
       179.0004        180.0004
  18924581.19947  14956420.19345  25911875.4914   25911881.0224   25911875.5334
       160.0004        160.0004
   1873791.81248   1844280.01747  23928090.8964   23928091.6064   23928089.5934
       189.0004        188.0004
  -7286707.38749  -5514084.34647  23396083.6214   23396091.2894   23396084.9924
       195.0004        195.0004
 02  8  5  2 31 30.0070000  0  8G 3G31G 8G 2G27G22G 1G13
  -1390636.15349   -924832.72547  23468932.8194   23468939.1904   23468932.4414
       200.0004        199.0004
 -13008503.36149 -10120902.97747  22236627.1634   22236629.1584   22236625.3694
       195.0004        195.0004
   -953108.70547   -732474.48045  26453572.4094   26453577.2484   26453571.7674
       146.0004        145.0004
  12520480.22848   9921760.62446  24957055.3044   24957064.9724   24957055.1834
       185.0004        186.0004
  -8586593.78848  -6591139.73646  24357819.7794   24357821.2074   24357818.4664
       184.0004        183.0004
  19045294.09247  15050482.12545  25934851.6864   25934850.8444   25934848.0534
       154.0004        155.0004
   1991646.70548   1936114.96846  23950516.8494   23950518.4854   23950515.9094
       187.0004        187.0004
  -7217544.46649  -5460191.14947  23409249.6654   23409252.6094   23409249.3324
       196.0004        196.0004
 02  8  5  2 32  0.0070000  0  8G 3G31G 8G 2G27G22G 1G13
  -1294034.50949   -849558.67847  23487316.4304   23487322.1364   23487316.8134
       197.0004        196.0004
 -12998308.27049 -10112958.62747  22238565.3054   22238569.3104   22238565.1664
       195.0004        195.0004
  -1013535.62347   -779560.33445  26442066.4414   26442077.5774   26442068.1084
       141.0004        140.0004
  12604828.41648   9987486.51546  24973110.9254   24973115.7364   24973111.2814
       182.0004        182.0004
  -8627710.54448  -6623178.66447  24349996.3754   24349998.4514   24349996.1764
       189.0004        188.0004
  19166020.35647  15144554.48045  25957821.6294   25957824.5654   25957820.0984
       156.0004        156.0004
   2109888.84248   2028251.66946  23973017.3104   23973019.7154   23973015.9964
       187.0004        186.0004
  -7147798.38149  -5405843.56947  23422525.3674   23422524.6564   23422524.7204
       199.0004        199.0004
 02  8  5  2 32 30.0070000  0  8G 3G31G 8G 2G27G22G 1G13
  -1197027.02848   -773968.46747  23505783.2284   23505782.2984   23505781.7534
       189.0004        189.0004
 -12987546.51648 -10104572.88046  22240609.2464   22240616.9464   22240608.2344
       181.0004        183.0004
  -1074021.05947   -826691.80345  26430565.7784   26430566.1914   26430562.9084
       145.0004        144.0004
  12689191.73148  10053224.09246  24989169.0894   24989169.7524   24989166.5774
       180.0004        180.0004
  -8668728.40748  -6655140.58346  24342186.4754   24342193.1354   24342186.7704
       183.0004        184.0004
  19286710.70247  15238598.86745  25980783.3364   25980790.4604   25980782.6444
       159.0004        159.0004
   2228466.96348   2120650.16746  23995582.5354   23995584.2674   23995581.1814
       187.0004        187.0004
  -7077518.92649  -5351080.37947  23435897.8934   23435898.5924   23435897.3064
       200.0004        199.0004
 02  8  5  2 33  0.0070000  0  8G 3G31G 8G 2G27G22G 1G13
  -1099582.34348   -698037.58047  23524320.1634   23524324.8884   23524318.9654
       193.0004        193.0004
 -12976184.29049 -10095719.16447  22242776.5774   22242778.8054   22242775.7654
       197.0004        198.0004
  -1134530.03547   -873841.50545  26419052.0114   26419055.1594   26419051.6244
       150.0004        149.0004
  12773603.76848  10118999.70546  25005222.3544   25005232.7964   25005222.6894
       185.0004        185.0004
  -8709611.34248  -6686997.40646  24334405.6384   24334411.5924   24334404.8584
       179.0004        179.0004
  19407398.49547  15332641.24245  26003748.1504   26003757.6714   26003748.0364
       163.0004        162.0004
   2347412.13848   2213334.69746  24018215.7304   24018219.2474   24018213.9514
       185.0004        185.0004
  -7006673.78249  -5295876.36747  23449375.5584   23449379.9934   23449375.2144
       197.0004        197.0004
 02  8  5  2 33 30.0070000  0  8G 3G31G 8G 2G27G22G 1G13
  -1001676.82449   -621747.51747  23542948.4104   23542955.6854   23542948.4604
       197.0004        196.0004
 -12964195.14748 -10086376.86447  22245055.2914   22245060.5494   22245055.7324
       190.0004        192.0004
  -1195035.18747   -920988.29345  26407532.0754   26407539.9934   26407530.9074
       148.0004        148.0004
  12858090.58848  10184833.59746  25021305.7564   25021310.1444   25021306.1704
       180.0004        180.0004
  -8750331.37948  -6718727.24947  24326662.8304   24326663.3704   24326661.7054
       188.0004        188.0004
  19528109.28347  15426701.55546  26026718.1684   26026727.8594   26026719.2764
       163.0004        163.0004
   2466747.52748   2306323.29346  24040922.6234   24040926.8744   24040920.6074
       182.0004        182.0004
  -6935238.61249  -5240212.57947  23462966.6214   23462973.5954   23462967.7014
       196.0004        196.0004
 02  8  5  2 34  0.0070000  0  8G 3G31G 8G 2G27G22G 1G13
   -903377.35748   -545150.52447  23561659.3754   23561661.7244   23561659.4434
       189.0004        190.0004
 -12951642.94048 -10076596.01547  22247445.2904   22247449.2614   22247442.5124
       188.0004        188.0004
  -1255599.49247   -968181.26345  26396008.4184   26396015.6764   26396007.6964
       149.0004        149.0004
  12942587.59548  10250675.35546  25037388.8104   25037388.9224   25037385.6294
       179.0004        178.0004
  -8790951.16248  -6750378.94147  24318931.3004   24318935.3194   24318931.3994
       190.0004        190.0004
  19648778.10047  15520729.16446  26049684.1684   26049690.6844   26049684.4284
       163.0004        163.0004
   2586405.82348   2399563.51246  24063691.2684   24063697.6424   24063690.6494
       182.0004        182.0004
  -6863279.45049  -5184140.49147  23476662.8804   23476666.9064   23476663.3574
       198.0004        197.0004
 02  8  5  2 34 30.0070000  0  9G 3G31G11G 8G 2G27G22G 1G13
   -804674.49748   -468239.26647  23580442.9074   23580444.3304   23580440.9404
       190.0004        190.0004
 -12938516.01349 -10066367.14247  22249944.8124   22249947.1814   22249943.9264
       200.0004        200.0004
    -13747.66354     -2949.11743  26992893.2374
        74.0004         74.0004
  -1316209.95047  -1015410.10245  26384479.5654   26384480.6914   26384477.7364
       153.0004        153.0004
  13027106.41648  10316534.19346  25053461.9714   25053472.8004   25053462.3164
       184.0004        184.0004
  -8831456.52348  -6781941.52646  24311219.3044   24311226.2014   24311218.6964
       182.0004        183.0004
  19769416.50847  15614733.07045  26072646.2794   26072647.3434   26072643.5244
       162.0004        162.0004
   2706396.01848   2493062.33346  24086524.2914   24086530.3624   24086523.0924
       179.0004        179.0004
  -6790785.49349  -5127651.70447  23490461.3074   23490461.9784   23490460.7024
       199.0004        199.0004
 02  8  5  2 35  0.0070000  0  9G 3G31G11G 8G 2G27G22G 1G13
   -705549.90449   -390999.29247  23599298.5334   23599307.3104   23599298.9914
       200.0004        199.0004
 -12924793.07748 -10055673.87446  22252551.5914   22252558.1014   22252551.9754
       184.0004        187.0004
    -64833.11844    -42746.90943  26983184.7814
        74.0004         69.0004
  -1376844.22447  -1062657.48445  26372938.1264   26372941.9534   26372936.7704
       149.0004        150.0004
  13111667.91548  10382426.27146  25069560.2824   25069563.5534   25069560.8784
       177.0004        178.0004
  -8871824.87248  -6813397.39246  24303539.2234   24303544.1294   24303538.1784
       183.0004        183.0004
  19890044.49547  15708728.84645  26095601.6444   26095602.1074   26095598.4774
       162.0004        162.0004
   2826736.13148   2586833.83146  24109421.3794   24109431.6084   24109421.6894
       178.0004        178.0004
  -6717737.63449  -5070731.30947  23504362.1684   23504362.7064   23504361.5894
       200.0004        200.0004
 02  8  5  2 35 30.0070000  0  9G 3G31G11G 8G 2G27G22G 1G13
   -605998.28749   -313426.57247  23618245.7044   23618251.4354   23618246.1574
       197.0004        198.0004
 -12910466.40248 -10044510.31047  22255281.6204   22255284.4314   22255279.8714
       193.0004        194.0004
   -116027.41844    -82600.07143  26973434.7924
        74.0004         90.0004
  -1437493.58347  -1109916.63645  26361390.6754   26361401.0804   26361390.8854
       144.0004        144.0004
  13196279.41648  10448357.23846  25085663.8914   25085665.3024   25085661.6384
       178.0004        178.0004
  -8912046.70848  -6844739.03047  24295889.5794   24295890.5174   24295888.5954
       191.0004        190.0004
  20010669.14047  15802722.01846  26118550.6774   26118556.4974   26118550.3614
       163.0004        163.0004
   2947430.86048   2680881.65746  24132389.1964   24132398.4374   24132389.9004
       178.0004        178.0004
  -6644130.06049  -5013374.76547  23518368.4024   23518369.4244   23518367.3974
       199.0004        199.0004
 02  8  5  2 36  0.0070000  0  9G 3G31G11G 8G 2G27G22G 1G13
   -506016.37449   -235518.63747  23637278.2754   23637277.4534   23637276.4804
       195.0004        195.0004
 -12895530.49449 -10032871.81347  22258123.5384   22258127.1134   22258123.2424
       198.0004        198.0004
   -167322.94144      -280.67943  26963680.0804
        74.0004         74.0004
  -1498151.16847  -1157182.22045  26349853.8754   26349859.2004   26349851.2684
       148.0004        147.0004
  13280946.46248  10514331.56346  25101766.7604   25101777.4574   25101766.9114
       183.0004        183.0004
  -8952114.49048  -6875960.59547  24288263.3264   24288265.7194   24288263.1374
       190.0004        190.0004
  20131295.64647  15896716.64645  26141502.2864   26141510.1144   26141500.8434
       161.0004        161.0004
   3068483.07848   2775208.04546  24155427.0374   24155433.4174   24155426.6464
       178.0004        178.0004
  -6569959.30549  -4955579.37447  23532479.1784   23532483.7174   23532479.1704
       197.0004        197.0004
 02  8  5  2 36 30.0070000  0  9G 3G31G11G 8G 2G27G22G 1G13
   -405641.04249   -157304.11047  23656371.8654   23656378.6264   23656371.1084
       203.0004        202.0004
 -12880018.89748 -10020784.86646  22261071.8094   22261078.9824   22261070.6184
       182.0004        185.0004
   -218751.47944    -40354.86144  26953890.9874
        74.0004        116.0004
  -1558849.59547  -1204479.57645  26338304.3824   26338309.2064   26338304.0434
       149.0004        149.0004
  13365635.08048  10580322.69946  25117888.3954   25117892.2054   25117888.9174
       177.0004        177.0004
  -8992060.05148  -6907086.98646  24280656.1194   24280663.9194   24280655.8464
       182.0004        182.0004
  20251889.41947  15990685.77045  26164447.3854   26164458.8644   26164448.0254
       159.0004        160.0004
   3189855.62948   2869784.03846  24178523.6444   24178530.0274   24178523.2924
       179.0004        178.0004
  -6495261.32649  -4897373.14747  23546690.7844   23546698.1244   23546692.5684
       196.0004        196.0004
 02  8  5  2 37  0.0070000  0  9G 3G31G11G 8G 2G27G22G 1G13
   -304879.40549    -78788.50947  23675545.7474   23675552.6054   23675546.1234
       203.0004        203.0004
 -12863936.77749 -10008253.35947  22264136.8884   22264139.0284   22264135.6054
       199.0004        199.0004
   -270315.52046    -80534.87644  26944081.8134   26944085.6234   26944072.7684
       121.0004        122.0004
  -1619592.47647  -1251811.56945  26326741.3464   26326747.9644   26326741.8364
       147.0004        147.0004
  13450340.05948  10646326.52046  25134011.7544   25134011.9774   25134008.6724
       177.0004        176.0004
  -9031886.55948  -6938120.63846  24273082.1704   24273085.8054   24273080.5024
       186.0004        186.0004
  20372445.02747  16084625.12845  26187391.8354   26187400.3834   26187391.7714
       158.0004        159.0004
   3311540.74448   2964603.58746  24201680.5934   24201686.5144   24201680.6604
       180.0004        180.0004
  -6420041.61949  -4838760.37847  23561009.3884   23561012.2364   23561009.4394
       197.0004        196.0004
 02  8  5  2 37 30.0070000  0  9G 3G31G11G 8G 2G27G22G 1G13
   -203701.37749        51.49747  23694805.6284   23694806.1124   23694804.9664
       196.0004        197.0004
 -12847251.53648  -9995251.75247  22267309.4154   22267313.7634   22267309.8324
       193.0004        194.0004
   -321979.99246   -120793.16945  26934253.0184   26934252.3064   26934249.9474
       133.0004        133.0004
  -1680346.05447  -1299151.95945  26315179.7954   26315187.4334   26315177.9004
       144.0004        144.0004
  13535093.81348  10712368.43046  25150130.2294   25150138.9214   25150130.1974
       181.0004        181.0004
  -9071559.26148  -6969034.36247  24265534.4264   24265536.1294   24265534.0534
       191.0004        190.0004
  20492994.40047  16178559.62745  26210334.2314   26210340.2434   26210334.1554
       157.0004        157.0004
   3433567.88548   3059689.65646  24224903.9224   24224907.9194   24224903.4564
       182.0004        182.0004
  -6344270.02449  -4779717.58747  23575432.0644   23575430.9644   23575431.5144
       200.0004        199.0004
 02  8  5  2 38  0.0070000  0  9G 3G31G11G 8G 2G27G22G 1G13
   -102088.04149     79230.67347  23714139.4864   23714142.2364   23714137.7534
       198.0004        198.0004
 -12829941.24248  -9981763.29347  22270603.7874   22270607.9294   22270601.8394
       187.0004        188.0004
   -373721.26947   -161111.13045  26924402.8464   26924407.2014   26924404.0314
       135.0004        135.0004
  -1741087.07847  -1346482.54145  26303624.3824   26303630.2614   26303622.5584
       146.0004        146.0004
  13619917.87348  10778465.12246  25166275.7444   25166281.6244   25166276.5574
       179.0004        179.0004
  -9111054.81848  -6999810.06746  24258013.9504   24258020.0794   24258014.7474
       186.0004        186.0004
  20613558.74947  16272505.80945  26233281.5594   26233282.1964   26233278.1554
       155.0004        155.0004
   3555955.84348   3155056.85546  24248194.0514   24248197.1374   24248193.6884
       183.0004        182.0004
  -6267926.60349  -4720229.23447  23589959.1934   23589958.4574   23589958.2924
       200.0004        200.0004
 02  8  5  2 38 30.0070000  0  9G 3G31G11G 8G 2G27G22G 1G13
       -55.28049    158736.75247  23733550.6424   23733558.5664   23733550.8144
       201.0004        200.0004
 -12812019.55449  -9967798.26147  22274015.4604   22274018.0314   22274015.1054
       200.0004        201.0004
   -425550.10746   -201497.41244  26914533.2554   26914547.2944   26914534.5754
       120.0004        122.0004
  -1801827.59147  -1393812.71745  26292067.3324   26292069.3414   26292066.2814
       148.0004        148.0004
  13704798.97448  10844606.18346  25182434.4084   25182432.8344   25182431.1024
       176.0004        176.0004
  -9150384.23048  -7030456.34446  24250529.4014   24250535.8334   24250528.6394
       182.0004        182.0004
  20734124.25147  16366452.91845  26256223.6084   26256224.6324   26256221.4004
       154.0004        154.0004
   3678688.48048   3250692.64546  24271550.2984   24271552.3844   24271549.6154
       184.0004        183.0004
  -6191026.83849  -4660307.34147  23604588.7304   23604592.7274   23604587.5214
       197.0004        197.0004
 02  8  5  2 39  0.0070000  0  9G 3G31G11G 8G 2G27G22G 1G13
    102394.94848    238568.11747  23753050.7024   23753054.0644   23753050.6234
       194.0004        194.0004
 -12793485.92148  -9953356.40647  22277538.7724   22277545.4614   22277539.2784
       186.0004        190.0004
   -477463.66246   -241949.72945  26904662.4164   26904667.6824   26904661.2464
       133.0004        132.0004
  -1862565.83047  -1441141.14345  26280500.8534   26280512.8314   26280502.0774
       144.0004        144.0004
  13789737.24448  10910791.85446  25198587.6484   25198595.9624   25198587.9304
       181.0004        180.0004
  -9189545.16548  -7060971.34946  24243081.1654   24243084.2404   24243079.3944
       187.0004        186.0004
  20854690.85047  16460400.87145  26279163.1814   26279167.9824   26279162.0384
       156.0004        155.0004
   3801763.24248   3346595.02346  24294970.0534   24294972.5174   24294969.1974
       183.0004        182.0004
  -6113571.99449  -4599952.90347  23619322.9814   23619331.8924   23619324.6384
       195.0004        195.0004
 02  8  5  2 39 30.0070000  0  9G 3G31G11G 8G 2G27G22G 1G13
    205182.31848    318662.12147  23772613.7734   23772613.3204   23772612.0974
       188.0004        188.0004
 -12774417.97149  -9938498.35147  22281171.3804   22281173.6044   22281169.6424
       196.0004        196.0004
   -529537.63447   -282526.91545  26894754.5254   26894758.3974   26894755.1504
       137.0004        137.0004
  -1923378.14547  -1488527.28545  26268935.0304   26268940.0574   26268932.6844
       147.0004        146.0004
  13874655.04648  10976961.59746  25214748.5534   25214756.5964   25214749.7014
       179.0004        179.0004
  -9228613.49048  -7091414.12847  24235647.2904   24235649.4434   24235646.9124
       191.0004        190.0004
  20975180.33247  16554288.75945  26302089.7624   26302096.7854   26302089.2864
       159.0004        159.0004
   3925099.46748   3442701.14246  24318441.5904   24318443.6614   24318440.7804
       185.0004        184.0004
  -6035640.85949  -4539227.32847  23634157.4744   23634161.9074   23634157.8104
       197.0004        197.0004
 02  8  5  2 40  0.0070000  0  9G 3G31G11G 8G 2G27G22G 1G13
    308340.69748    399045.27047  23792236.8554   23792243.2414   23792236.4334
       194.0004        193.0004
 -12754779.87149  -9923195.82547  22284907.4314   22284910.0874   22284907.3774
       197.0004        198.0004
   -581733.46246   -323199.07844  26884809.7914   26884821.9844   26884813.9194
       119.0004        122.0004
  -1984226.86947  -1535941.77445  26257360.5834   26257361.5364   26257357.9904
       154.0004        153.0004
  13959588.54148  11043143.49546  25230919.6444   25230918.4804   25230916.8774
       176.0004        176.0004
  -9267550.76048  -7121754.79246  24228235.2564   24228239.5364   24228235.4544
       186.0004        186.0004
  21095628.37847  16648144.37445  26325009.1764   26325017.5674   26325008.1864
       158.0004        158.0004
   4048730.27048   3539036.78946  24341968.8034   24341969.5004   24341967.3804
       185.0004        185.0004
  -5957200.62849  -4478105.08547  23649088.8324   23649088.2884   23649088.2674
       200.0004        199.0004
 02  8  5  2 40 30.0080000  0  8G 3G31G 8G 2G27G22G 1G13
    411882.71648    479727.40447  23811940.7194   23811947.2374   23811940.9894
       192.0004        192.0004
 -12734558.95748  -9907439.30646  22288754.3024   22288758.2274   22288752.0694
       182.0004        185.0004
  -2045100.98047  -1583376.01745  26245770.0714   26245776.1034   26245770.7224
       149.0004        149.0004
  14044552.00848  11109348.77746  25247079.3084   25247085.9624   25247078.5774
       180.0004        179.0004
  -9306344.46548  -7151983.65846  24220849.1074   24220858.0984   24220848.3694
       182.0004        182.0004
  21216050.37247  16741979.68145  26347922.0594   26347933.2624   26347922.7224
       157.0004        157.0004
   4172668.69348   3635612.15646  24365552.0624   24365553.6094   24365551.3604
       183.0004        182.0004
  -5878237.36049  -4416575.30047  23664115.4094   23664114.3894   23664114.3824
       201.0004        200.0004
 02  8  5  2 41  0.0080000  0  9G 3G31G11G 8G 2G27G22G 1G13
    515816.16548    560714.48546  23831725.7424   23831725.3444   23831724.7544
       186.0004        187.0004
 -12713739.81249  -9891216.57947  22292717.9964   22292719.6354   22292717.1334
       200.0004        200.0004
    -52699.07254    -35677.91743  26864895.6454
        74.0004         90.0004
  -2105977.82847  -1630812.43445  26234181.7684   26234191.8764   26234181.8014
       148.0004        148.0004
  14129557.20348  11175586.60846  25263253.3314   25263262.8114   25263254.0334
       180.0004        180.0004
  -9344973.07848  -7182083.86947  24213505.9814   24213506.9934   24213504.3444
       190.0004        189.0004
  21336454.95247  16835801.40145  26370837.1574   26370845.9674   26370838.8244
       153.0004        153.0004
   4296920.74348   3732431.91046  24389195.0884   24389197.4554   24389194.3044
       181.0004        180.0004
  -5798741.10349  -4354630.17847  23679240.1894   23679242.3054   23679238.3644
       198.0004        198.0004
 02  8  5  2 41 30.0080000  0  9G 3G31G11G 8G 2G27G22G 1G13
    620164.42948    642024.78047  23851577.6574   23851582.0624   23851576.8074
       191.0004        191.0004
 -12692299.23148  -9874509.53547  22296795.3164   22296799.8784   22296795.9764
       191.0004        193.0004
   -105153.53846    -76551.58144  26854908.9474   26854919.3274   26854909.7014
       121.0004        125.0004
  -2166835.22047  -1678233.70845  26222609.1234   26222611.5754   26222606.4864
       154.0004        154.0004
  14214629.38548  11241876.59446  25279451.3224   25279450.7054   25279449.3974
       175.0004        176.0004
  -9383412.96348  -7212036.93547  24206190.6214   24206191.5534   24206190.1424
       193.0004        192.0004
  21456868.31047  16929629.97145  26393756.5084   26393759.8564   26393754.4114
       149.0004        149.0004
   4421509.97348   3829514.40246  24412904.3334   24412906.5594   24412903.3294
       181.0004        181.0004
  -5718688.68149  -4292251.65947  23694468.7174   23694475.7634   23694469.0304
       195.0004        196.0004
 02  8  5  2 42  0.0080000  0  8G 3G31G 8G 2G27G22G 1G13
    724894.48249    723632.64647  23871504.1394   23871511.3994   23871504.1044
       197.0004        196.0004
 -12670267.47848  -9857342.04047  22300990.5214   22300992.1644   22300988.2064
       192.0004        192.0004
  -2227702.12947  -1725662.34445  26211025.8014   26211028.4094   26211025.2214
       155.0004        155.0004
  14299738.21948  11308195.10746  25295641.5274   25295646.6924   25295640.5444
       178.0004        178.0004
  -9421692.36348  -7241864.98347  24198901.6374   24198908.1274   24198901.9214
       187.0004        188.0004
  21577259.59147  17023441.33245  26416672.1154   26416669.5884   26416666.9844
       149.0004        148.0004
   4546403.13548   3926833.71546  24436671.1414   24436673.3334   24436669.5864
       181.0004        181.0004
  -5638113.73949  -4229465.98447  23709801.9954   23709808.6684   23709802.9954
       195.0004        195.0004
 02  8  5  2 42 30.0080000  0  9G 3G31G11G 8G 2G27G22G 1G13
    829990.48248    805525.64147  23891507.1784   23891511.0524   23891507.6704
       193.0004        193.0004
 -12647658.86049  -9839724.83547  22305291.3034   22305294.5584   22305291.4964
       199.0004        200.0004
    -49072.40454    -27652.96743  26834894.8744
        74.0004         74.0004
  -2288590.84447  -1773107.95245  26199434.3024   26199442.5264   26199433.2814
       150.0004        151.0004
  14384869.85548  11374531.46446  25311836.4614   25311846.4824   25311837.2194
       181.0004        180.0004
  -9459823.17148  -7271577.30046  24191644.8314   24191651.1454   24191644.0404
       183.0004        183.0004
  21697614.76947  17117224.55445  26439572.3044   26439572.5184   26439568.5724
       149.0004        150.0004
   4671583.52548   4024376.84046  24460491.3234   24460494.7044   24460489.4764
       180.0004        180.0004
  -5557030.88949  -4166284.54847  23725235.8104   23725238.1524   23725235.4764
       197.0004        197.0004
 02  8  5  2 43  0.0080000  0  9G 3G31G11G 8G 2G27G22G 1G13
    935433.92848    887689.31247  23911576.1134   23911576.3274   23911574.2034
       193.0004        193.0004
 -12624489.15848  -9821670.52146  22309697.8034   22309703.5504   22309697.2534
       181.0004        185.0004
   -101835.69744    -68767.33044  26824855.3484
        74.0004        119.0004
  -2349515.81347  -1820581.89745  26187839.0364   26187847.8914   26187838.4224
       147.0004        147.0004
  14470008.45548  11440873.22146  25328045.3554   25328047.9484   25328045.2544
       175.0004        176.0004
  -9497818.82348  -7301184.27947  24184418.9104   24184420.9844   24184417.2744
       189.0004        189.0004
  21817917.45547  17210966.86345  26462458.4384   26462464.9244   26462458.0704
       150.0004        149.0004
   4797032.26548   4122129.07846  24484362.0044   24484365.8684   24484360.5814
       178.0004        178.0004
  -5475457.80849  -4102721.12847  23740761.4264   23740761.0004   23740760.6234
       200.0004        199.0004
 02  8  5  2 43 30.0080000  0  9G 3G31G11G 8G 2G27G22G 1G13
   1041242.57849    970137.61547  23931703.6494   23931710.9684   23931703.6154
       199.0004        199.0004
 -12600738.07749  -9803163.22047  22314221.4054   22314222.5024   22314220.5714
       198.0004        198.0004
   -154691.43446   -109953.41644  26814799.5464   26814805.4104   26814796.4594
       133.0004        131.0004
  -2410454.66547  -1868066.61045  26176250.4744   26176250.8794   26176248.6144
       154.0004        153.0004
  14555174.75348  11507236.50746  25344253.5904   25344254.5714   25344250.7984
       174.0004        174.0004
  -9535656.86048  -7330668.39847  24177219.4164   24177220.7444   24177218.7054
       192.0004        191.0004
  21938187.91047  17304684.04645  26485344.0014   26485350.9334   26485342.9694
       150.0004        150.0004
   4922767.25448   4220104.37046  24508288.6624   24508292.9864   24508286.8324
       176.0004        176.0004
  -5393375.66949  -4038761.05047  23756380.9134   23756380.8394   23756379.7854
       199.0004        198.0004
